GFSSW_sfc_dewp_000.txt.gz
Dewpoint
59 57 55 54 54 54 54 54 54 55 56 59 61 62 63 62 61 57 52 53 54 57 56 49 47 49 48 47 49 46 41 39 38 37 36 37 36 36 34 31 35 35 35 38 41
60 58 56 55 54 54 54 54 54 55 56 58 60 62 62 61 57 55 56 59 59 58 52 48 46 48 45 46 46 47 42 40 41 39 37 38 38 38 34 35 35 36 37 44 51
59 59 57 56 54 52 54 54 54 55 57 58 58 60 61 60 52 51 57 60 60 59 53 52 50 47 44 45 46 46 43 43 43 42 41 40 38 38 36 37 36 35 36 40 52
58 59 58 56 55 53 53 54 54 55 56 57 58 58 60 56 43 47 55 55 59 57 54 52 48 43 42 42 46 42 46 46 46 46 45 43 43 39 37 37 36 37 37 38 44
58 58 59 57 56 53 53 54 54 54 54 56 57 57 56 50 49 49 54 52 55 55 53 50 47 44 40 41 42 42 44 45 45 46 46 47 46 45 43 42 41 41 38 38 39
57 58 59 58 56 56 54 54 54 54 55 55 57 55 49 41 45 44 44 47 50 54 53 52 49 48 44 43 41 42 42 42 42 44 44 43 43 44 43 43 40 40 39 38 39
58 58 58 58 57 56 55 55 55 54 55 54 55 51 47 43 44 44 43 43 44 48 50 52 51 48 47 43 44 43 40 40 41 41 41 43 41 41 42 43 41 39 38 38 39
56 57 57 58 58 57 56 55 56 56 56 54 55 50 43 47 47 45 43 41 42 46 43 49 50 48 46 44 40 40 39 35 37 40 41 42 36 39 39 40 41 42 39 38 38
52 55 57 57 58 57 57 56 55 54 54 54 48 44 39 46 46 45 43 40 39 40 42 40 41 39 40 38 34 37 30 33 34 38 39 40 35 39 40 39 39 39 38 38 38
50 52 54 57 57 57 57 56 55 54 52 50 48 42 42 40 44 43 45 42 39 40 40 39 39 37 37 35 26 29 31 33 32 35 37 38 38 39 39 40 40 40 39 39 38
49 53 53 56 57 57 54 50 44 45 48 41 41 39 39 43 44 43 43 41 40 38 36 37 36 33 33 34 33 34 34 34 35 35 36 34 34 34 36 38 40 40 40 40 39
48 50 54 54 57 57 51 44 42 40 39 44 44 43 43 43 40 42 42 39 38 34 35 35 31 34 35 35 36 35 34 33 34 34 34 32 31 32 33 36 38 39 40 41 41
48 49 52 53 57 54 47 44 47 44 36 37 43 42 42 42 39 40 41 39 36 34 35 31 30 34 35 34 33 32 32 31 30 31 30 29 26 26 28 30 32 34 35 39 40
48 49 51 53 54 51 47 48 47 42 24 28 39 41 42 41 38 42 41 39 36 34 35 34 35 33 32 32 33 30 33 33 32 30 25 29 20 23 25 30 30 31 33 39 40
47 48 51 52 51 47 48 48 47 36 11 32 39 43 43 37 38 40 41 39 35 34 33 30 32 32 31 31 32 29 33 32 33 31 28 29 26 24 25 25 28 33 37 39 39
48 49 51 50 52 49 49 49 45 22 11 33 38 40 39 38 39 41 39 40 39 35 34 31 34 33 32 32 31 32 31 30 30 30 23 24 26 21 21 21 31 31 34 37 37
49 49 50 48 47 51 49 44 30 19 32 32 33 37 36 36 37 38 36 36 35 31 31 35 34 35 35 31 32 31 29 22 23 23 19 23 23 21 23 25 28 31 32 33 36
49 50 50 48 52 51 46 36 21 25 29 35 32 34 33 35 34 37 36 34 36 35 32 25 21 33 34 31 30 29 28 22 14 19 17 21 20 22 27 26 25 25 32 34 36
50 49 48 47 52 49 39 28 24 26 34 33 33 31 31 33 34 35 35 33 32 37 30 28 25 33 34 33 32 33 28 28 23 21 22 21 24 26 32 33 31 30 28 33 37
47 44 45 49 52 47 35 29 27 33 36 34 30 31 29 31 31 34 31 31 33 35 35 31 27 30 33 34 33 34 33 28 28 18 14 18 19 21 25 28 28 27 24 34 37
45 39 46 49 50 42 32 30 30 38 36 34 32 31 29 29 32 31 27 29 33 32 35 34 32 28 34 32 29 32 31 31 28 26 16 15 14 26 24 30 30 30 32 35 37
43 36 49 50 38 39 32 30 34 39 40 38 36 33 32 32 31 28 28 29 34 35 32 35 34 27 27 32 32 29 27 27 23 17 23 19 17 28 36 33 32 34 33 36 39
40 43 49 47 33 35 34 34 36 39 39 38 36 36 36 33 29 31 31 32 35 35 34 34 33 26 27 31 34 33 31 27 27 28 21 17 15 19 27 32 34 35 38 40 41
41 36 42 44 42 34 32 32 33 38 38 39 38 37 36 35 33 31 31 33 35 35 38 37 35 30 23 29 33 31 31 30 28 26 23 22 21 21 29 31 34 38 39 41 41
43 37 38 33 37 34 34 34 33 34 38 39 39 37 37 36 34 33 32 32 35 37 38 38 31 33 33 31 34 34 33 31 30 28 23 21 21 26 29 33 36 36 40 40 41
41 39 39 36 36 32 33 34 34 35 38 37 36 36 38 37 34 29 33 33 34 35 36 39 32 33 31 35 34 33 34 35 34 29 27 25 25 29 33 34 35 35 37 39 40
43 45 39 37 37 33 33 34 34 38 38 39 39 39 38 38 39 39 36 36 37 36 37 36 33 32 28 34 34 29 31 31 32 33 28 26 27 28 33 36 33 34 36 38 40

GFSSW_sfc_dewp_003.txt.gz
Dewpoint
59 59 59 57 55 54 54 52 54 55 55 56 59 61 63 62 61 57 52 53 54 57 56 49 48 49 49 48 50 46 43 40 38 37 36 37 36 37 34 32 35 36 35 38 47
58 59 59 58 56 54 54 53 55 55 55 57 59 61 62 61 57 54 55 58 58 57 53 48 46 47 46 47 47 48 44 42 41 39 38 38 38 38 37 36 37 37 38 41 50
58 58 58 59 57 55 53 54 55 55 56 56 58 59 61 60 53 51 57 60 60 59 53 52 49 45 44 47 46 47 42 44 43 41 41 41 40 40 37 38 38 38 37 39 46
59 57 58 59 58 56 54 52 55 55 55 56 57 58 60 56 42 47 56 55 60 56 53 51 47 42 42 43 46 44 46 47 46 46 46 44 45 45 39 40 40 38 40 39 39
56 58 57 58 59 57 54 53 54 54 54 54 56 57 56 51 49 49 52 52 55 54 52 50 47 43 40 42 42 44 44 45 45 45 46 47 46 46 46 43 44 46 45 42 41
53 56 57 57 58 58 56 54 54 54 55 54 56 54 49 44 44 43 43 45 52 54 52 50 49 48 44 43 41 41 42 42 42 42 43 43 43 45 44 46 46 44 42 41 41
50 53 55 57 57 58 55 55 54 54 55 54 55 50 46 42 44 44 42 41 43 49 52 52 50 48 48 45 44 43 40 40 40 40 40 42 40 42 43 44 43 43 43 43 42
47 49 53 54 57 58 57 56 55 56 55 54 55 49 42 47 47 45 43 40 41 45 45 50 51 48 47 45 40 39 39 36 36 39 40 40 33 39 40 41 42 42 42 42 42
47 47 50 53 54 57 57 57 57 55 55 55 49 44 39 45 47 46 42 39 39 41 42 42 41 39 42 38 34 36 30 35 34 38 37 39 36 38 40 40 40 40 40 41 40
45 46 48 51 54 56 58 57 55 54 51 49 48 43 43 39 44 44 45 41 39 40 40 40 39 37 37 35 24 28 33 32 32 34 36 36 35 36 39 38 38 39 40 41 40
45 47 48 50 54 56 56 52 46 44 47 40 40 40 40 43 43 43 43 41 40 39 36 38 36 33 33 35 31 34 33 32 32 35 35 33 33 33 35 35 35 36 36 38 40
46 47 48 49 53 55 53 46 42 41 39 45 44 43 44 44 40 42 42 39 38 35 36 36 32 34 34 35 34 34 32 31 30 34 33 32 30 31 32 32 33 34 36 39 41
47 49 48 48 52 53 50 46 46 42 34 37 43 43 42 43 40 40 41 39 36 35 35 32 31 34 34 34 32 31 31 28 28 31 32 30 25 23 23 25 30 33 33 34 34
47 47 48 48 48 50 48 50 48 40 24 29 38 42 42 41 37 42 42 39 37 34 33 32 34 34 34 33 34 29 33 33 32 31 25 28 20 20 24 24 25 28 30 31 35
47 47 49 48 47 48 49 49 45 37 10 32 38 43 43 38 37 40 42 38 35 34 35 30 32 34 32 32 33 29 32 32 32 31 30 27 26 22 24 23 25 27 31 33 35
45 47 48 48 49 49 51 49 43 28 12 32 39 40 39 38 40 40 40 40 38 34 34 31 34 32 32 32 32 33 31 30 29 29 23 23 24 21 18 19 23 27 28 32 34
45 46 47 47 42 51 51 46 30 21 31 33 34 39 36 35 37 37 36 36 34 30 30 32 32 35 34 31 32 31 32 24 22 23 18 22 24 21 21 22 23 23 28 32 34
47 49 48 48 50 52 47 37 25 25 28 33 32 37 34 33 35 36 34 34 36 35 30 23 21 31 34 31 29 30 29 24 15 16 17 22 21 22 25 25 25 25 25 25 32
50 47 47 48 50 50 41 31 25 27 34 32 32 32 32 32 33 34 35 34 34 36 31 27 26 32 34 33 31 33 29 29 26 25 22 20 22 21 22 22 25 26 25 26 28
47 45 45 49 50 47 37 32 28 35 35 33 30 31 29 31 32 33 33 32 33 35 35 32 27 30 33 34 33 33 34 27 28 19 16 16 17 20 18 14 20 28 29 30 29
45 39 45 49 50 41 32 34 31 37 36 33 32 31 30 31 31 32 28 28 33 34 35 34 32 29 35 31 29 32 31 32 31 28 19 14 12 20 18 21 28 29 32 34 32
42 36 47 49 36 35 34 31 36 37 39 38 35 33 31 31 32 31 28 28 33 35 34 34 33 28 27 31 32 30 28 28 25 22 25 21 18 21 23 32 30 31 34 37 38
39 42 48 45 33 34 36 35 36 39 39 38 36 36 36 32 31 31 31 32 36 34 33 35 33 24 23 31 32 33 31 29 28 28 23 19 18 18 20 32 33 34 36 39 41
41 36 42 43 42 34 32 33 33 38 39 39 37 37 36 35 33 32 32 33 34 35 38 37 34 27 23 27 33 31 30 32 32 26 23 22 22 22 23 27 31 31 36 40 40
43 37 38 34 37 34 34 34 34 33 38 38 37 36 35 35 34 35 34 33 35 37 37 37 31 33 33 31 33 34 32 31 31 28 24 21 22 22 24 29 32 36 37 40 39
39 39 37 37 37 32 34 31 31 34 37 37 35 36 38 36 32 31 33 33 32 35 36 38 33 34 31 34 34 32 34 32 32 30 28 26 26 27 27 31 39 41 37 39 40
43 44 42 37 35 32 31 33 34 36 37 39 38 37 37 38 38 38 38 37 37 35 35 36 33 32 27 33 34 29 32 33 33 33 30 27 27 28 29 33 38 38 36 40 41

GFSSW_sfc_dewp_006.txt.gz
Dewpoint
58 58 59 59 59 56 55 54 52 54 55 56 57 59 62 62 61 57 52 51 52 57 57 50 46 47 47 46 48 48 37 32 32 33 31 35 34 35 34 32 34 35 35 38 46
57 59 58 59 59 57 56 55 54 55 55 56 57 59 61 61 55 53 53 58 58 58 51 47 44 44 42 43 45 42 37 33 33 36 34 35 36 35 36 35 34 36 38 39 45
55 56 58 58 59 58 56 55 55 55 55 56 57 58 60 59 53 51 56 60 60 59 53 49 46 43 41 44 43 42 37 36 40 40 39 38 39 39 37 35 36 36 37 40 41
51 54 57 57 58 59 57 55 53 55 55 55 56 57 60 57 45 50 57 57 61 57 54 50 46 41 40 40 42 39 40 40 40 43 44 43 43 42 40 37 37 40 40 43 43
48 50 53 56 57 58 58 56 54 55 55 54 55 56 56 51 49 48 51 53 56 56 52 50 44 41 39 39 41 42 39 42 43 45 44 43 42 42 41 42 44 45 45 46 45
46 48 51 54 55 57 58 57 54 55 55 54 55 53 48 45 45 43 45 51 53 55 51 50 46 45 41 39 39 40 42 41 41 41 41 41 40 40 41 41 41 41 41 43 43
45 48 48 50 54 55 58 56 55 55 55 55 54 49 45 38 42 43 43 44 47 53 51 51 49 46 44 41 43 41 39 37 36 38 38 40 37 36 37 37 38 39 39 39 40
43 47 47 48 52 55 57 57 56 56 56 55 54 47 39 45 46 44 42 41 45 46 51 52 52 46 42 44 39 38 38 33 34 37 35 36 31 32 40 38 38 38 37 37 38
44 44 46 46 49 53 55 58 57 56 55 55 47 42 39 46 44 44 42 41 41 41 45 47 42 39 41 36 34 34 27 32 31 35 35 36 33 35 35 38 38 36 37 38 40
44 44 45 47 49 52 54 58 56 54 52 49 47 43 43 39 43 44 42 40 40 41 40 40 40 37 36 35 24 24 29 28 26 30 35 33 32 33 35 35 35 35 37 38 40
45 45 46 48 48 50 53 55 47 46 46 39 40 38 40 43 43 42 41 40 39 39 36 39 36 33 31 33 29 28 28 28 28 31 32 29 29 30 31 32 33 33 34 34 36
46 47 48 48 49 49 52 47 43 42 40 43 42 42 43 42 39 41 41 36 36 34 36 36 33 32 32 32 32 30 28 27 27 29 30 28 27 28 29 29 30 31 31 32 34
47 47 48 48 49 48 48 48 49 46 38 42 42 41 41 42 38 40 39 38 35 35 35 32 31 33 33 32 31 30 29 28 27 28 28 29 26 22 22 22 24 26 28 28 29
46 46 46 47 45 44 44 51 50 47 34 34 40 40 41 41 37 41 40 37 36 32 33 33 32 32 32 31 31 27 28 28 29 28 24 26 20 20 20 21 23 25 27 28 29
47 46 45 45 44 42 47 51 48 44 27 33 38 43 41 35 37 40 41 37 34 33 34 30 33 33 31 31 32 29 30 28 29 28 27 25 27 20 22 21 23 23 24 25 27
44 45 45 44 44 44 50 49 46 32 25 33 39 39 39 36 38 40 39 38 36 33 34 31 33 32 31 32 32 31 30 29 29 27 25 24 21 19 17 18 18 20 23 22 27
45 46 44 43 40 46 51 44 31 29 31 33 34 37 34 33 36 36 37 36 33 31 32 31 31 33 32 30 32 31 29 25 23 24 19 15 18 19 19 20 20 20 19 22 26
47 50 49 45 47 48 48 37 28 29 28 33 34 33 31 32 36 35 35 34 34 33 31 28 26 31 33 31 27 30 28 23 14 11 13 16 19 17 18 21 22 22 23 22 25
49 48 46 47 47 49 39 31 32 27 31 31 34 32 32 30 32 33 33 31 31 33 31 29 26 31 32 32 31 30 29 29 27 26 25 19 21 19 20 22 21 21 20 29 31
44 45 45 49 49 45 36 34 31 33 32 31 28 28 27 29 31 30 32 32 31 33 32 30 28 28 30 34 33 32 31 28 31 20 16 14 17 15 15 15 15 16 25 29 32
43 39 46 49 46 38 33 34 35 35 33 32 30 29 28 29 30 29 29 30 32 33 34 31 29 29 33 31 27 31 30 33 30 28 18 13 9 14 17 21 27 27 28 32 35
42 34 47 49 36 36 35 35 38 36 39 36 33 31 29 31 30 29 29 28 31 35 33 33 31 29 29 27 29 27 27 27 27 25 28 22 18 16 19 18 26 27 29 32 37
39 39 47 47 34 36 36 36 39 37 38 36 35 33 33 31 29 30 30 32 33 34 32 33 34 27 28 30 30 30 29 29 33 32 27 22 17 18 21 20 21 23 26 32 39
39 34 41 41 41 35 33 33 35 39 39 38 36 36 33 31 32 31 31 33 33 33 37 36 31 32 24 29 30 33 30 33 33 28 24 24 23 22 22 23 23 24 30 38 38
41 38 39 35 36 34 34 34 34 34 38 38 35 33 33 31 32 32 33 32 34 36 35 35 33 34 31 31 33 34 33 35 32 30 26 24 21 22 23 24 26 28 32 38 37
37 39 39 38 35 33 36 32 32 36 35 34 34 35 34 31 32 31 33 34 32 34 34 37 32 35 32 33 32 33 35 35 35 33 28 27 26 28 28 28 30 38 40 37 38
43 43 42 38 36 32 33 32 33 35 37 38 36 36 35 36 36 37 36 35 35 34 34 36 35 33 28 30 31 31 34 35 35 34 31 27 29 28 29 32 37 39 37 37 38

GFSSW_sfc_dewp_009.txt.gz
Dewpoint
54 56 58 59 59 59 58 56 55 53 54 55 56 57 59 61 62 57 50 52 52 58 57 48 45 45 45 43 42 46 39 32 32 28 28 29 29 33 32 30 29 31 31 38 45
51 53 55 58 58 58 59 57 56 54 55 55 56 58 59 61 53 50 52 55 57 57 51 47 42 43 41 41 43 42 36 32 29 28 29 30 32 32 33 32 29 31 35 38 42
47 50 52 55 57 57 58 58 56 55 56 56 56 57 59 58 49 47 58 59 59 58 50 46 44 41 38 40 40 40 36 32 31 37 38 35 33 33 33 33 33 31 33 36 39
46 46 50 52 54 56 58 58 57 55 56 56 55 56 59 56 45 51 56 58 61 56 50 48 44 41 39 38 38 36 35 35 35 36 40 38 37 34 35 35 34 33 35 37 39
45 45 48 49 51 53 56 58 57 55 55 55 54 56 55 53 50 50 53 55 56 56 50 47 44 41 38 37 38 38 38 34 36 39 39 40 39 38 39 40 39 39 40 40 40
45 44 46 48 49 50 54 56 58 55 55 55 54 56 50 47 49 47 46 50 49 54 50 49 45 42 40 37 38 37 38 37 38 39 40 39 38 38 37 38 38 39 40 40 41
45 45 44 46 47 48 51 56 58 55 55 56 55 49 44 43 43 44 46 47 51 53 50 50 49 46 43 40 40 40 38 37 36 36 37 37 36 35 36 36 35 35 37 38 38
45 45 45 45 46 47 50 54 55 57 55 55 54 45 40 45 43 41 45 47 50 51 50 51 50 46 42 42 39 37 36 33 33 34 33 34 31 32 34 35 36 34 33 34 35
45 45 46 45 45 47 49 52 54 57 56 55 48 44 38 47 43 41 42 44 44 46 49 48 48 41 40 36 32 33 29 30 31 32 32 34 32 31 34 34 32 33 35 35 36
45 45 46 47 46 48 49 51 53 56 53 50 46 42 41 39 43 42 41 43 41 41 42 40 38 36 35 33 27 27 29 28 25 25 31 31 29 29 30 31 34 34 33 33 34
45 46 45 47 48 49 48 50 49 48 50 41 40 37 40 42 43 42 40 41 40 39 36 38 36 33 31 32 32 28 26 23 24 26 28 27 26 25 26 27 29 30 31 32 32
45 47 47 47 48 48 48 44 47 46 42 42 39 39 41 41 39 40 39 37 38 36 35 37 34 33 32 31 30 29 27 26 25 26 27 27 26 26 26 26 27 27 28 29 30
46 47 46 47 46 46 43 43 51 48 41 41 40 40 41 41 37 40 38 36 35 33 33 33 31 32 31 31 29 28 27 26 25 26 27 27 26 24 24 25 25 25 26 27 28
45 46 46 45 43 43 41 49 50 49 34 39 40 39 41 41 37 40 39 36 35 32 33 33 32 31 29 30 29 27 27 27 27 27 24 26 21 20 16 19 21 22 24 24 26
43 44 45 44 42 40 43 50 50 46 27 38 38 41 40 35 38 39 39 38 32 31 32 31 30 31 30 29 29 28 30 28 28 27 26 24 24 20 16 15 13 17 24 25 26
43 44 45 42 42 41 46 50 45 32 26 35 38 38 37 34 37 39 38 38 34 31 31 29 31 31 30 30 30 31 29 28 28 27 24 22 19 16 13 9 12 16 19 21 21
45 46 47 43 39 41 47 44 30 26 34 33 32 36 34 32 34 37 36 34 32 31 30 30 29 31 31 30 31 30 28 26 24 25 21 14 15 15 14 14 13 16 19 20 20
48 49 48 47 45 43 44 38 28 32 30 32 34 34 33 31 31 32 32 32 32 30 30 28 28 30 32 30 28 29 27 23 15 13 13 16 15 13 16 15 17 19 20 21 21
47 44 46 47 45 45 37 30 27 31 31 33 32 31 32 31 33 32 31 31 30 31 31 29 27 29 30 30 30 29 29 28 26 23 22 17 16 16 16 16 17 18 20 20 19
46 43 44 47 46 45 36 34 35 31 32 31 28 30 27 28 32 30 29 30 30 31 31 29 28 28 29 32 31 30 29 28 31 20 14 12 12 13 14 14 14 15 18 19 24
45 39 46 48 46 39 33 34 36 32 33 31 28 27 27 27 28 28 28 30 30 31 31 29 27 29 32 30 26 29 30 32 28 27 22 18 15 15 15 19 21 26 25 27 30
42 35 47 46 36 38 37 36 38 33 38 33 31 28 27 27 27 27 27 27 31 32 30 30 30 29 28 27 28 27 28 27 27 24 27 24 21 20 18 19 18 22 23 24 24
39 39 47 47 34 36 37 37 35 36 37 34 32 31 29 28 27 28 29 31 31 32 30 31 32 28 30 29 28 28 27 27 30 32 29 25 20 18 20 21 21 20 20 23 29
37 35 41 42 42 35 37 37 36 40 37 35 34 32 30 29 31 29 30 33 32 32 38 35 31 32 24 31 29 32 31 31 33 30 26 25 24 23 23 23 23 23 24 26 29
40 38 39 36 36 37 36 36 36 34 36 35 33 31 29 28 29 29 31 32 33 37 34 33 33 34 30 29 32 32 31 31 33 34 30 26 23 24 25 26 27 27 26 32 35
38 38 40 36 34 32 34 33 33 34 33 31 31 31 31 28 30 30 31 31 31 33 33 36 33 35 31 31 31 33 32 34 36 35 35 34 32 31 29 28 29 33 34 38 37
44 42 42 38 33 30 32 32 33 35 37 37 34 34 33 35 36 36 36 34 34 33 33 35 35 32 28 28 29 32 35 37 37 36 35 32 33 31 29 31 36 37 38 38 37

GFSSW_sfc_dewp_012.txt.gz
Dewpoint
48 50 52 54 56 57 59 59 58 57 55 54 56 56 57 59 61 58 55 52 54 59 57 52 47 45 44 44 44 44 39 35 34 31 31 30 29 32 32 31 30 31 31 42 52
47 48 48 52 53 56 57 58 59 57 56 55 56 56 58 60 56 52 55 56 56 59 49 48 43 43 42 43 43 41 40 39 36 32 31 34 30 31 32 31 31 31 31 41 44
46 46 47 48 51 53 55 57 59 57 56 56 56 56 58 58 53 46 59 58 58 56 52 48 44 40 41 41 40 41 38 36 33 32 35 38 37 35 32 33 33 31 30 36 39
46 46 46 46 49 50 52 55 57 59 56 56 56 56 57 55 43 51 58 60 59 56 52 46 43 41 39 37 37 36 37 37 37 36 37 38 38 36 35 33 35 35 36 35 39
46 46 46 45 46 47 50 52 56 58 56 56 55 55 54 52 49 55 57 57 56 56 52 44 43 41 39 37 36 36 36 34 35 36 36 38 38 39 39 39 39 38 38 39 40
47 47 46 46 46 46 47 50 54 57 58 56 55 55 50 46 51 47 48 49 52 55 52 48 46 45 41 39 36 38 38 37 38 36 38 38 38 39 37 37 37 38 39 39 40
48 47 47 46 46 46 46 49 51 56 58 56 55 51 44 44 45 49 50 46 48 53 52 50 49 46 44 41 41 39 38 38 37 37 37 37 35 36 38 38 37 36 37 38 39
47 47 46 46 46 46 46 47 50 53 56 56 55 48 41 44 44 42 48 48 49 53 53 52 50 47 43 42 39 38 38 35 33 35 35 36 32 33 34 35 35 35 34 34 37
47 47 47 47 47 47 47 48 50 52 56 56 49 46 39 46 43 40 44 46 47 50 52 50 49 44 41 37 34 35 31 32 32 34 33 33 32 33 34 33 33 34 33 34 34
47 47 46 46 46 47 48 49 50 51 56 53 46 43 41 40 41 41 42 45 42 46 44 45 42 37 37 34 28 29 30 30 28 29 30 30 30 31 31 30 30 32 34 34 34
46 47 47 47 47 47 47 47 46 47 50 44 42 38 37 42 43 41 41 42 40 41 36 39 36 33 33 34 32 31 30 27 25 25 26 25 25 26 27 27 26 28 30 31 33
46 46 47 47 47 47 46 41 44 48 42 47 40 40 42 42 40 40 41 39 38 36 36 36 33 33 33 32 31 31 30 28 27 26 27 26 26 27 27 27 26 26 26 27 29
46 46 46 46 46 46 42 41 50 48 43 42 41 39 41 41 39 39 39 38 36 35 35 32 32 34 33 32 30 29 28 27 26 28 27 26 25 26 25 27 27 27 27 27 27
45 44 44 46 43 42 40 47 49 48 34 38 40 39 40 42 37 40 39 37 36 35 33 32 33 30 30 30 30 27 29 28 27 27 24 27 22 23 22 18 23 24 24 25 25
44 44 44 44 42 39 44 50 48 44 25 39 39 41 41 38 39 39 40 37 33 33 34 32 32 32 30 29 29 28 31 29 29 28 26 25 24 21 20 19 18 17 20 24 26
45 46 47 45 45 41 47 48 43 30 25 35 39 38 38 37 36 38 38 39 35 32 32 31 32 32 31 30 31 31 30 29 28 27 20 24 21 16 15 17 16 14 16 20 22
46 48 48 47 40 42 46 42 30 25 36 34 37 37 34 33 35 35 36 35 32 31 29 31 30 32 32 31 32 31 29 22 20 21 18 19 19 16 17 17 16 16 17 17 19
49 49 47 47 45 43 43 35 25 29 35 33 36 35 31 32 34 35 34 33 33 31 31 27 27 30 31 30 29 30 28 23 17 16 19 21 19 16 16 16 16 17 18 20 21
49 46 45 48 47 44 37 28 29 32 32 33 36 35 33 32 32 32 32 30 30 30 30 29 28 31 32 31 31 30 27 28 26 24 20 19 17 17 18 18 18 17 18 20 21
46 44 43 45 45 42 35 33 32 38 33 32 28 29 28 29 30 31 30 30 28 30 31 31 26 29 30 32 31 30 29 28 28 13 14 15 14 16 16 18 20 19 21 24 26
45 39 45 47 46 40 32 34 35 37 32 31 29 27 26 30 30 28 27 29 30 30 30 29 28 29 31 30 28 30 29 31 28 27 19 17 16 18 18 18 20 23 27 25 28
41 36 46 47 37 37 35 36 40 35 38 33 31 28 26 27 29 28 27 29 31 32 29 29 31 26 29 29 30 29 28 28 26 19 25 24 21 24 23 21 21 21 23 24 25
39 40 47 47 33 35 37 38 38 36 37 33 30 31 28 27 27 28 30 30 33 32 30 30 31 23 26 29 28 29 28 28 29 29 26 24 21 21 24 24 25 23 23 22 25
40 34 40 42 41 35 36 37 38 41 36 34 32 31 29 28 31 29 31 34 31 33 39 35 32 27 23 26 30 30 32 31 31 29 26 26 25 26 26 26 32 33 34 32 29
41 37 39 37 38 37 38 38 37 35 37 35 33 31 29 28 29 28 29 32 33 37 34 33 31 30 31 30 30 30 30 30 32 33 30 29 30 31 32 32 31 30 34 35 38
40 38 40 36 37 38 37 38 34 33 34 31 32 31 30 29 31 27 31 30 32 33 32 34 32 34 28 30 30 29 31 31 32 34 37 36 35 36 37 35 33 36 36 38 39
43 43 41 36 34 32 34 32 34 36 37 37 34 33 34 37 37 37 37 35 34 33 33 35 35 32 24 29 29 29 32 35 35 37 36 34 36 37 35 33 36 37 39 39 39

GFSSW_sfc_dewp_015.txt.gz
Dewpoint
48 48 48 49 50 54 56 57 58 59 58 56 55 56 56 57 59 58 52 54 55 61 57 54 51 48 46 43 45 43 39 37 37 35 33 33 33 31 33 31 31 31 31 49 56
47 48 47 47 48 49 53 55 57 58 59 57 56 56 56 59 56 55 56 60 60 59 54 48 46 45 42 42 42 39 39 39 39 36 33 35 38 37 32 31 32 31 35 47 53
47 46 47 47 47 47 48 52 55 57 59 57 56 56 57 57 51 51 60 59 59 58 53 48 48 43 42 42 41 40 38 40 40 37 35 38 37 38 35 33 32 31 32 41 46
48 48 47 48 47 47 46 47 52 55 58 58 56 56 57 54 41 55 59 60 59 55 52 50 46 42 39 39 39 38 39 38 39 39 37 36 39 39 38 35 38 36 36 36 39
49 49 48 48 47 47 46 47 48 52 57 59 57 56 54 50 49 56 59 59 56 56 52 50 46 42 39 38 37 36 37 37 38 37 36 37 38 38 38 40 40 39 39 39 39
49 48 48 47 47 45 47 46 46 51 54 58 57 56 51 44 50 53 53 55 56 55 54 52 44 44 42 40 37 37 38 38 38 38 38 37 38 38 39 39 38 37 37 38 39
49 47 48 47 47 47 45 46 46 47 53 55 57 51 46 44 49 48 49 48 52 55 52 52 49 47 44 41 41 40 38 38 39 39 37 38 36 37 39 40 39 38 37 37 38
47 48 48 47 47 47 47 47 47 47 51 54 57 50 44 46 46 49 50 49 48 51 53 52 51 46 44 42 39 38 37 36 37 37 38 37 33 36 37 37 37 38 37 37 37
47 47 47 47 46 46 47 47 48 48 51 54 53 48 41 47 42 41 47 46 51 55 54 51 50 44 43 38 34 36 32 34 34 35 35 35 33 35 35 34 33 35 36 36 36
47 47 46 47 46 47 48 48 48 49 49 53 51 44 44 41 44 41 41 48 46 51 51 50 47 39 37 35 30 29 32 30 30 31 32 31 31 33 32 30 30 30 33 34 34
46 46 46 47 46 47 46 45 42 44 47 44 41 40 40 43 44 43 41 44 45 44 38 41 38 35 35 35 33 32 30 29 29 28 27 25 27 26 26 27 27 27 29 30 31
46 46 46 46 46 46 45 40 42 46 39 46 43 42 43 43 40 41 42 40 42 38 37 36 33 35 35 35 35 31 30 29 28 28 27 27 26 27 27 27 27 27 27 27 30
45 46 45 44 46 45 42 41 48 46 39 44 46 41 42 43 40 39 41 39 38 36 35 33 33 35 34 33 31 30 29 28 27 28 27 26 25 25 27 27 27 28 28 27 27
44 44 45 44 42 42 41 47 49 46 32 38 41 40 41 43 39 41 41 39 38 35 36 34 33 32 33 33 31 28 30 30 29 27 23 27 22 25 24 23 23 27 27 28 28
45 46 47 47 44 40 44 48 45 42 22 39 40 43 42 40 39 38 41 38 35 35 35 34 32 32 30 30 29 28 31 29 29 27 25 25 23 23 24 21 20 19 17 20 25
47 47 48 47 47 43 47 47 43 28 21 36 39 39 39 38 38 39 38 40 37 34 34 31 32 32 32 31 31 31 29 28 28 26 17 23 22 18 16 18 19 17 15 15 19
48 49 49 47 41 44 45 41 27 21 36 34 37 37 36 36 36 37 36 35 31 29 30 31 31 32 32 30 31 31 26 16 19 22 17 23 23 20 18 18 18 18 17 17 18
49 51 47 47 46 44 42 35 22 33 34 38 37 35 33 34 35 35 35 32 34 31 27 24 22 31 32 30 29 29 26 20 16 17 20 22 20 19 20 20 18 18 18 18 18
50 45 45 48 44 42 37 24 27 33 36 35 37 35 33 33 35 34 33 31 31 31 26 24 26 32 31 31 32 29 26 28 22 22 15 20 19 18 18 17 19 20 20 20 19
46 43 43 46 43 40 35 32 32 36 38 34 31 33 31 31 31 32 32 31 30 31 31 31 25 30 32 32 32 29 30 22 21 12 15 17 17 17 17 17 20 25 25 25 29
42 38 43 45 44 39 32 33 36 37 36 34 29 29 29 32 31 30 30 30 30 31 31 30 28 28 32 29 28 29 27 28 26 24 16 18 18 19 20 21 21 20 21 25 24
40 35 44 47 37 37 34 36 40 37 39 37 31 28 28 33 30 28 27 29 31 31 29 30 31 26 27 30 31 30 28 28 22 17 23 20 21 23 23 23 24 25 24 24 26
38 39 46 46 33 34 37 38 39 39 37 34 32 31 30 28 29 29 30 31 32 31 30 29 28 21 26 29 30 29 29 29 29 28 23 22 20 22 24 26 28 30 31 34 34
37 30 36 40 40 37 36 37 36 40 38 36 32 29 28 29 30 29 31 33 32 34 39 34 32 23 21 23 30 27 30 30 30 28 25 25 24 26 28 31 35 35 34 34 35
39 35 35 29 35 35 38 38 35 35 37 34 33 31 29 28 28 29 32 32 32 38 34 35 26 28 30 31 31 29 29 30 30 30 29 27 29 31 33 37 38 37 35 37 39
38 38 38 36 37 36 37 36 36 36 37 32 31 33 34 31 32 28 31 32 31 34 32 33 29 33 28 31 31 29 30 30 30 30 31 31 32 35 37 38 38 36 37 38 38
43 43 41 35 35 35 34 36 35 37 37 38 36 37 37 38 38 38 36 35 33 33 33 35 32 26 19 29 29 27 30 30 33 36 35 34 35 38 36 36 38 38 38 39 39

GFSSW_sfc_dewp_018.txt.gz
Dewpoint
49 47 47 47 47 47 49 51 54 56 58 59 58 56 56 56 57 56 51 53 55 60 58 53 51 48 48 44 44 43 39 37 36 35 34 35 35 35 33 31 31 31 35 50 56
48 47 47 45 46 47 46 48 51 53 56 58 58 56 57 58 55 52 55 59 60 60 55 54 47 48 43 42 42 40 39 39 39 38 36 35 37 37 32 31 31 31 47 54 56
50 48 48 48 49 47 46 45 46 49 53 56 59 57 57 57 50 48 59 60 61 60 53 53 48 44 42 42 41 40 38 40 40 41 38 38 36 39 36 32 33 32 43 49 48
52 50 50 49 48 47 46 48 46 46 51 54 56 57 57 54 40 52 58 62 61 56 53 50 48 44 41 40 41 38 39 39 40 40 39 36 38 39 38 36 38 41 38 36 42
51 51 50 49 48 48 46 44 46 47 47 52 55 58 53 49 49 54 59 60 56 54 51 49 46 42 39 39 40 37 38 38 39 40 38 37 37 36 39 40 40 40 40 38 39
50 49 47 48 48 48 47 46 46 46 46 49 54 57 51 42 50 54 56 56 55 54 53 51 47 44 42 40 37 37 37 37 38 38 39 38 37 38 38 39 39 39 38 38 39
48 48 48 48 47 47 46 46 47 47 47 48 52 54 47 43 49 52 54 55 56 54 52 53 51 45 44 41 41 40 37 38 38 38 38 38 35 37 39 39 39 39 39 39 38
48 47 47 47 47 46 47 47 47 47 47 49 53 53 42 47 45 48 49 49 50 54 53 53 49 45 42 42 39 37 37 34 36 37 37 37 33 36 38 38 38 39 39 39 39
46 46 46 47 47 47 47 47 47 48 49 48 51 49 39 49 45 47 50 47 52 54 54 52 50 45 42 38 34 35 31 33 35 36 35 36 34 35 36 36 35 35 35 36 37
47 46 46 46 47 47 47 47 48 47 47 47 52 43 41 41 44 42 44 49 50 52 50 50 48 42 38 35 29 29 31 32 31 30 32 31 34 35 34 33 32 31 31 32 35
45 46 46 46 46 46 46 44 39 40 44 41 43 39 38 44 44 42 41 47 50 47 43 45 41 38 37 37 33 32 32 30 30 30 28 26 26 27 28 27 26 27 27 28 29
45 45 45 45 45 46 45 39 41 42 36 44 44 43 42 43 40 41 44 42 45 39 39 37 37 38 36 36 36 35 31 30 30 29 27 27 26 27 28 28 28 28 27 27 28
44 45 46 46 46 44 42 42 47 44 38 39 44 41 42 42 40 40 42 41 41 36 35 34 33 36 35 33 33 30 29 28 28 29 27 26 21 23 26 27 27 27 28 28 28
46 46 46 47 43 42 41 47 48 44 28 36 40 43 42 43 39 41 43 39 38 36 35 34 33 35 34 33 31 28 30 29 29 26 22 27 21 25 24 23 24 23 27 28 28
47 48 48 48 45 41 44 45 46 40 19 38 41 45 43 40 39 40 42 39 36 36 36 34 32 31 30 31 30 29 31 29 29 26 24 24 23 22 23 22 22 22 22 23 24
48 49 49 48 47 44 46 45 42 27 18 35 41 40 39 38 39 40 39 39 38 36 35 31 33 33 31 31 31 32 28 28 28 24 16 21 22 18 16 19 18 18 17 16 16
49 48 47 48 42 46 46 41 23 19 33 34 37 37 36 36 36 37 37 35 34 32 33 32 30 32 32 30 31 29 25 16 12 12 15 23 22 22 20 20 20 20 19 19 18
48 47 47 46 45 44 42 32 20 29 33 38 36 35 35 35 36 36 35 33 34 30 30 25 21 30 31 30 29 28 24 18 12 15 18 23 20 19 22 22 20 19 20 18 18
47 45 46 45 43 42 38 25 26 31 38 36 35 33 33 35 35 33 33 33 32 31 26 24 25 32 31 31 30 29 24 27 21 19 14 19 20 19 19 18 22 25 25 26 28
42 41 42 45 43 41 35 31 33 36 37 34 31 33 31 32 31 31 31 31 30 31 32 29 24 31 32 31 31 28 29 21 17 7 13 17 18 17 17 18 22 22 21 24 25
40 36 42 47 45 38 32 33 36 40 38 34 31 30 31 30 31 30 30 30 30 31 31 29 27 27 31 29 28 28 26 26 24 22 16 18 18 20 18 20 22 22 24 24 25
38 29 43 47 37 37 33 35 39 38 39 39 31 30 31 31 30 29 30 29 31 32 30 30 29 20 27 29 30 29 28 27 18 15 21 20 21 24 23 23 26 27 31 34 33
35 35 43 44 33 35 37 38 40 39 39 34 31 31 32 30 28 28 29 31 32 31 30 29 27 19 24 29 31 29 29 29 27 26 17 21 20 24 24 26 28 31 36 39 35
35 27 34 40 38 36 36 35 35 39 36 35 31 31 29 28 29 30 30 32 33 33 38 35 30 21 20 20 28 25 29 29 28 26 23 24 23 24 27 29 33 36 38 39 37
37 36 38 31 34 36 37 36 35 35 38 34 31 29 30 29 29 31 32 31 34 39 36 33 25 26 29 30 30 29 29 29 28 28 27 25 27 28 31 33 37 38 37 36 38
38 38 37 35 36 35 35 34 36 36 36 34 35 35 32 32 31 30 31 31 29 33 32 34 30 31 29 30 31 28 29 29 29 29 29 28 29 32 36 38 37 38 38 38 39
39 42 40 34 34 33 32 34 36 36 36 38 36 37 37 37 38 36 33 33 32 31 32 32 31 27 18 26 28 26 29 29 30 31 31 32 33 36 38 38 37 35 30 32 37

GFSSW_sfc_dewp_021.txt.gz
Dewpoint
50 48 48 46 47 47 48 48 47 50 52 55 57 59 56 56 56 55 50 52 54 59 58 53 50 49 47 44 44 43 38 37 34 32 32 35 35 36 35 30 30 31 46 50 56
53 53 52 49 48 48 46 46 47 47 48 51 55 58 57 58 54 49 52 57 58 57 57 53 48 47 44 43 42 40 39 38 39 37 36 36 37 37 35 33 30 32 51 56 57
50 50 52 52 51 51 47 46 47 47 47 49 53 56 58 56 47 45 55 58 59 58 56 53 48 45 42 42 41 40 38 40 40 41 40 38 37 39 37 34 32 32 37 47 55
49 50 50 51 51 49 49 47 45 44 46 48 50 54 58 53 38 49 58 59 60 56 54 50 48 44 41 40 41 38 39 40 41 41 39 37 37 37 37 36 37 40 40 38 46
49 49 49 47 48 49 49 48 46 46 47 47 48 51 55 47 45 51 58 60 57 56 52 49 46 43 40 40 40 38 38 39 39 39 39 39 36 36 37 39 40 40 40 40 39
48 48 48 48 48 47 47 47 47 47 47 48 48 51 51 40 45 51 56 58 56 54 51 49 46 44 41 39 39 38 38 37 38 37 38 37 37 37 38 39 39 39 38 38 39
47 47 47 47 47 47 47 47 46 47 47 47 48 49 49 41 46 49 57 55 56 54 51 51 49 44 43 40 40 39 36 38 38 38 38 38 36 37 38 38 38 38 39 39 38
47 47 46 46 47 47 47 47 47 47 47 47 48 50 44 47 47 43 51 54 57 56 53 54 52 46 42 41 38 37 36 34 36 37 37 37 33 35 38 38 38 38 39 39 40
47 46 47 47 47 47 47 47 48 47 48 48 46 50 41 50 46 45 49 49 51 55 54 52 50 44 41 37 34 34 31 33 34 36 36 36 34 35 36 36 36 36 36 36 36
45 45 46 46 47 47 47 47 48 47 46 46 47 44 43 41 44 46 51 51 50 51 50 49 48 40 38 35 29 30 30 32 32 31 32 30 31 35 36 35 35 35 34 33 33
45 44 44 45 46 46 45 43 37 36 40 39 43 41 40 44 44 43 45 49 50 48 45 45 42 38 37 35 33 31 32 31 31 31 28 27 27 27 28 28 28 28 29 29 29
44 44 46 46 47 47 44 38 40 42 33 39 44 44 45 44 40 43 49 46 46 42 42 40 38 41 40 37 37 36 34 31 30 30 28 27 26 27 27 27 28 28 28 28 28
46 47 46 47 47 44 42 41 46 46 36 38 42 44 42 43 40 41 44 44 40 40 39 38 37 39 38 36 35 32 31 29 28 29 27 26 23 22 23 26 27 27 28 28 28
47 47 47 48 44 44 40 45 47 43 24 34 38 43 43 42 39 42 44 41 39 36 39 37 34 39 35 33 31 28 29 29 28 26 23 26 20 24 23 23 24 24 23 27 28
48 49 48 48 44 41 41 46 46 40 9 37 38 47 43 39 39 40 44 40 37 36 36 34 32 35 34 33 31 30 30 28 28 26 22 23 22 22 21 19 19 20 21 22 24
49 48 47 48 46 44 45 44 41 19 20 34 41 41 38 38 39 41 40 39 39 37 35 31 33 32 31 31 31 31 28 26 27 24 16 20 21 19 16 18 19 19 21 19 18
47 48 47 46 42 46 45 40 20 17 33 34 37 37 36 36 38 38 37 34 35 33 33 33 30 31 32 30 31 28 25 15 11 12 14 22 22 21 22 22 20 21 20 19 19
48 48 46 45 45 44 40 31 20 30 30 39 36 36 35 36 37 38 34 32 33 31 31 28 24 30 31 30 29 28 25 16 9 12 17 22 20 18 22 22 20 23 23 26 27
45 44 44 44 42 41 37 26 27 31 35 36 34 34 35 35 36 36 36 32 32 30 26 23 25 31 31 32 30 28 22 26 21 19 13 18 19 18 18 19 22 23 22 24 26
42 40 40 44 44 41 35 31 32 36 36 33 30 33 31 33 33 32 32 32 30 32 31 28 24 31 31 31 31 28 29 22 17 4 12 15 18 16 17 18 22 22 25 26 27
41 35 40 45 45 37 31 32 37 39 39 33 32 30 31 30 31 29 29 29 30 30 31 29 27 29 30 29 28 29 26 25 23 20 13 16 16 21 19 19 22 25 27 28 32
37 29 41 46 34 36 34 35 39 39 39 38 31 32 31 31 30 29 28 29 31 31 29 30 28 22 27 30 30 29 27 26 17 13 19 18 20 24 24 23 25 27 29 32 37
34 34 41 41 33 35 36 38 39 38 38 36 30 32 33 29 28 28 30 31 33 31 29 30 25 17 24 28 30 28 28 27 25 23 16 19 20 24 24 26 28 32 35 38 39
34 28 35 37 39 36 34 34 34 38 37 32 31 32 29 29 29 29 29 33 32 32 38 34 28 21 19 20 27 25 28 28 26 22 23 23 23 24 25 28 31 36 38 38 38
35 35 38 34 36 37 36 36 34 35 36 34 30 30 29 28 30 30 31 31 35 39 35 31 25 26 29 29 28 28 28 28 25 27 24 24 25 26 28 30 36 38 38 36 34
35 37 38 35 34 34 34 33 34 35 36 34 32 33 31 31 30 30 31 30 30 33 33 33 30 30 27 29 30 28 30 30 29 29 28 28 28 30 30 37 39 37 33 32 32
37 39 37 33 32 31 31 34 35 35 36 38 37 36 36 37 37 33 32 31 31 31 31 30 30 28 21 25 27 25 28 29 29 30 29 27 29 33 36 39 38 33 32 31 31

GFSSW_sfc_dewp_024.txt.gz
Dewpoint
51 51 51 53 53 50 49 47 46 48 48 49 51 54 58 58 57 54 50 52 55 59 59 55 55 51 47 45 44 43 38 35 32 32 31 35 34 36 36 32 31 31 39 48 59
50 49 50 51 51 52 52 51 46 46 47 49 49 52 56 59 54 51 51 56 57 56 55 53 50 47 46 43 42 41 38 37 37 34 34 36 36 36 36 35 32 31 51 56 61
49 49 49 50 50 51 50 52 50 46 44 47 48 51 53 56 48 44 54 56 58 57 56 53 49 45 43 42 41 40 38 39 40 39 40 38 39 38 36 34 34 32 37 45 56
48 48 49 50 49 49 50 50 50 48 46 46 47 49 51 55 37 45 53 56 57 55 55 52 48 43 42 40 41 39 40 40 41 41 40 38 37 36 37 35 37 40 41 40 43
47 48 48 48 48 49 48 49 49 48 47 47 47 49 50 49 43 51 55 59 53 55 54 51 47 43 39 40 39 38 39 40 40 40 39 39 37 36 36 38 39 40 40 39 40
46 47 47 47 47 47 47 47 47 47 46 47 47 49 49 43 47 46 52 56 53 55 52 48 46 44 41 40 38 39 39 38 38 37 38 37 37 37 37 38 38 39 38 39 39
48 48 47 47 47 46 47 47 47 47 46 46 46 46 46 44 49 46 55 55 56 54 50 48 47 44 42 39 40 39 36 37 37 38 37 38 36 37 38 38 38 38 38 39 39
48 47 45 47 46 47 47 47 47 47 47 46 44 47 43 48 53 49 48 56 57 55 52 52 50 45 42 40 38 37 36 34 36 38 38 36 31 35 37 38 37 37 38 38 39
48 47 45 45 46 46 47 47 47 47 47 46 44 45 41 49 46 46 48 52 55 54 54 52 50 44 41 36 35 35 31 33 34 36 36 36 34 36 36 36 36 36 36 36 36
48 45 44 44 45 46 46 47 47 46 45 45 44 44 45 42 45 46 52 53 51 52 49 48 47 41 37 36 28 30 30 32 32 31 34 32 30 30 31 35 35 35 35 35 35
45 45 46 45 46 46 46 41 36 34 39 35 39 41 42 47 46 46 51 50 51 49 40 44 41 37 36 36 33 32 31 30 32 32 30 30 28 28 29 28 28 28 29 29 29
45 46 48 47 47 47 43 37 40 40 32 35 37 43 45 46 40 44 50 46 46 42 43 42 38 40 38 36 35 33 32 30 32 30 28 27 26 27 28 28 28 28 28 28 29
49 47 47 48 47 45 40 39 45 45 34 38 43 44 44 42 40 41 48 46 42 40 41 37 39 43 38 37 36 34 33 30 30 29 27 26 23 23 23 25 25 26 27 28 29
50 50 48 47 43 44 39 45 47 42 21 29 39 43 45 42 39 43 50 45 42 38 38 37 38 41 40 38 34 30 30 30 28 26 24 26 20 23 23 23 22 21 21 24 24
48 48 49 47 43 40 41 46 44 39 2 33 37 47 44 38 39 40 47 45 37 39 39 35 37 39 35 35 32 30 30 28 27 25 21 23 22 21 19 17 18 19 21 20 19
49 49 48 46 46 44 44 43 40 18 15 34 40 40 37 38 39 41 40 41 42 37 34 34 34 34 32 32 31 30 27 26 25 23 16 19 19 15 15 19 18 20 21 21 22
48 48 46 46 41 45 43 36 19 17 33 34 36 37 36 36 38 38 36 35 36 33 33 32 30 31 32 30 30 28 25 16 10 12 14 22 21 18 22 23 22 22 21 25 27
46 46 45 44 45 43 40 27 22 29 31 39 36 36 34 36 37 37 34 32 32 33 30 28 27 30 31 30 29 27 23 17 6 10 15 22 20 17 22 22 21 24 24 26 27
47 41 42 43 43 41 34 22 23 31 35 36 34 33 35 35 36 37 34 32 31 29 26 24 25 31 31 31 29 28 23 25 19 16 13 16 17 15 19 22 22 23 26 27 28
40 38 39 44 46 39 33 32 33 36 35 33 30 31 31 34 33 35 33 32 31 31 31 27 25 30 31 32 31 29 28 22 18 4 10 13 16 16 16 18 20 24 26 28 31
38 34 39 43 42 38 31 33 37 39 38 32 32 30 31 30 31 29 31 29 31 31 31 28 27 29 30 28 28 28 27 25 22 20 12 13 13 20 19 20 22 26 28 30 31
35 29 40 44 35 37 35 37 39 38 38 36 32 31 30 31 28 28 29 28 31 31 28 30 28 21 27 29 30 29 27 25 16 13 20 18 19 24 24 24 25 27 30 34 38
33 33 40 40 34 35 35 37 38 37 37 36 30 32 31 29 27 28 29 31 32 30 28 30 25 18 24 27 30 28 28 26 24 21 16 15 18 24 24 25 27 29 35 38 38
34 29 36 40 40 37 34 34 34 37 36 32 31 31 29 28 30 28 29 33 32 31 36 33 27 22 18 19 27 26 28 27 25 18 21 21 22 24 25 27 29 31 38 38 35
35 35 38 32 33 36 35 35 33 34 36 34 30 30 29 28 30 29 31 32 34 38 34 30 24 25 28 28 28 28 28 28 25 25 20 23 24 25 27 28 29 38 37 33 32
35 35 36 33 33 32 32 32 34 34 35 32 31 35 31 29 29 30 30 30 31 33 32 32 28 27 23 28 29 28 29 28 28 27 27 27 27 29 29 30 37 39 33 32 32
36 40 39 32 31 29 30 33 35 35 36 38 36 35 35 36 37 33 32 32 32 31 31 31 30 24 21 25 26 23 27 28 29 30 28 26 27 29 33 35 40 35 33 31 32

GFSSW_sfc_dewp_027.txt.gz
Dewpoint
50 50 49 49 49 51 51 52 51 47 46 48 50 50 53 56 59 53 50 52 54 59 58 53 55 54 48 45 44 43 38 34 35 32 31 34 32 37 36 34 33 31 38 50 61
48 48 49 50 50 50 50 50 51 50 48 45 48 48 51 55 53 52 52 55 57 57 53 51 53 49 47 44 43 42 38 36 35 35 33 36 36 36 36 36 34 34 40 59 64
47 47 48 49 49 49 49 49 50 50 50 49 46 47 50 52 50 48 57 57 56 57 53 54 51 48 45 43 42 42 37 39 39 37 39 38 39 37 36 35 36 35 40 51 61
46 46 48 49 48 48 48 48 50 50 50 49 47 47 49 51 40 45 54 57 57 54 54 50 47 45 43 41 41 39 40 40 41 42 40 39 39 37 38 37 37 40 41 40 55
47 48 48 47 47 47 47 47 47 48 49 48 47 45 48 46 45 50 53 54 52 54 53 50 47 44 42 41 40 39 39 40 40 40 39 39 38 37 37 38 39 39 41 40 40
46 48 48 47 47 47 46 47 46 47 47 46 44 46 46 41 47 49 46 55 51 53 53 50 47 43 41 41 39 40 39 38 38 38 38 38 37 38 38 39 38 38 39 39 39
48 49 47 46 46 46 47 46 46 46 47 47 47 43 44 42 48 52 48 54 51 54 52 50 48 44 41 40 41 39 37 37 37 37 37 38 35 37 38 38 38 37 38 40 40
49 49 49 47 45 46 46 47 46 46 46 46 45 44 37 48 52 50 48 54 54 55 53 50 48 45 43 41 39 38 37 35 36 38 37 34 27 36 38 38 38 38 38 39 39
48 48 46 46 44 45 46 47 46 46 46 45 44 42 39 50 47 49 49 49 55 54 53 51 48 45 41 37 36 36 32 33 33 38 36 36 34 36 37 36 36 36 37 37 37
47 47 45 47 45 46 47 47 46 46 45 45 43 40 42 42 47 48 49 53 51 52 49 48 46 42 39 36 29 32 32 33 32 32 35 34 34 34 32 31 34 35 36 35 35
50 47 47 47 47 47 45 40 35 33 40 33 35 39 43 47 47 48 52 52 51 48 43 45 40 35 35 34 33 33 32 32 33 33 31 32 30 30 30 30 29 29 29 30 30
49 49 48 47 45 45 42 37 36 38 31 36 35 39 41 48 42 45 52 48 42 40 43 42 37 38 37 36 33 33 31 31 32 31 29 28 27 28 29 30 30 30 29 30 30
49 49 45 46 45 44 40 39 45 44 34 38 43 36 44 47 41 42 50 48 39 37 37 37 40 39 37 36 35 34 32 31 31 29 27 27 26 24 24 25 25 23 24 26 28
49 48 48 45 43 42 38 45 45 41 20 34 38 43 46 44 40 46 51 46 43 38 40 39 40 39 37 36 36 33 33 31 28 28 26 26 22 23 23 20 22 21 22 21 21
49 49 48 45 42 39 42 46 43 35 8 32 38 46 45 38 41 44 48 45 38 37 39 35 38 40 37 38 34 31 31 28 27 26 24 23 21 18 19 17 19 21 25 26 26
47 48 47 45 44 44 43 42 37 18 12 33 38 39 37 39 40 44 43 47 43 39 38 34 42 38 38 37 36 30 26 26 25 24 20 19 20 14 15 18 21 22 23 27 28
47 47 45 45 41 44 43 35 19 19 32 34 36 37 36 37 38 38 37 36 36 33 32 33 31 35 34 31 31 29 28 22 17 19 19 22 22 17 20 22 23 22 24 27 29
49 45 44 44 44 41 38 27 16 29 30 38 36 36 35 36 37 36 34 33 32 33 32 29 29 31 31 31 29 27 26 22 12 11 14 22 20 16 23 23 22 24 26 28 31
46 40 40 42 44 41 34 25 20 30 35 35 33 32 34 36 36 37 33 31 31 30 28 27 27 31 31 31 30 29 25 24 20 18 17 15 17 16 21 22 23 25 29 30 31
39 37 37 42 45 40 35 33 34 37 36 32 29 32 30 34 34 33 32 32 31 31 30 28 27 31 31 32 31 29 28 24 21 10 9 11 14 13 18 19 23 25 27 30 33
37 33 39 45 42 37 32 34 37 39 37 32 31 30 31 31 31 31 31 30 31 31 30 28 28 30 31 29 28 28 27 25 23 21 16 11 11 19 20 21 24 26 28 31 37
35 30 40 43 35 38 35 37 39 38 38 33 32 31 30 30 28 28 29 29 31 31 29 30 28 26 28 30 30 29 27 23 20 17 21 20 16 23 24 24 25 27 29 37 39
32 32 39 40 34 35 35 35 38 36 36 34 30 32 31 29 27 28 29 31 32 30 29 29 25 21 26 28 30 29 28 25 23 23 22 19 16 24 24 25 26 29 34 39 37
33 29 35 37 38 34 33 33 33 37 35 32 31 31 29 28 30 28 29 34 32 31 37 32 26 23 18 21 28 28 28 26 26 22 21 21 20 23 24 27 28 30 38 37 34
35 35 38 31 32 33 33 34 32 33 36 33 30 29 28 28 29 29 31 32 33 38 33 30 25 25 27 26 29 28 28 28 25 25 22 21 23 24 27 28 29 32 38 34 33
34 36 37 33 32 30 30 30 33 34 35 31 31 34 30 28 27 29 30 30 30 33 31 32 28 28 23 28 29 29 29 28 28 27 26 26 26 28 29 30 34 39 34 34 32
39 40 39 32 30 28 30 31 34 34 36 37 36 35 34 35 36 34 31 31 32 31 31 31 30 23 20 25 26 24 27 29 29 29 28 26 27 29 31 33 39 36 34 31 33

GFSSW_sfc_dewp_030.txt.gz
Dewpoint
50 49 48 49 50 50 50 50 51 52 51 47 46 48 50 52 55 54 51 48 51 57 57 49 56 55 47 45 45 44 38 35 36 35 32 32 30 33 34 30 33 31 35 51 56
50 49 47 47 50 50 50 50 50 51 51 47 45 46 48 52 49 48 55 56 56 56 55 47 54 52 45 43 43 37 36 33 34 35 33 32 29 32 33 33 33 34 42 59 63
50 49 48 49 49 48 48 48 49 50 50 49 50 45 48 49 43 43 59 57 57 56 53 49 53 50 45 43 41 37 32 33 35 34 33 33 33 36 32 33 31 32 39 55 61
50 49 48 49 48 47 47 47 48 48 49 50 48 46 45 46 36 48 55 60 57 52 51 50 51 48 43 40 41 37 34 34 37 39 38 36 35 35 35 30 35 39 39 40 57
50 49 49 48 46 47 46 46 47 46 47 48 48 44 43 41 38 50 55 52 53 50 50 49 47 46 42 41 40 38 39 38 38 41 40 39 37 34 36 37 38 38 40 39 40
49 49 49 50 48 47 47 46 47 46 46 46 46 45 41 35 37 50 52 51 52 49 49 49 44 45 41 42 39 39 38 37 38 38 39 38 37 38 35 36 36 36 35 36 39
48 48 49 49 51 48 46 46 46 46 46 46 46 42 39 35 46 53 52 49 51 49 49 49 45 44 42 40 41 39 37 37 38 37 36 37 35 36 35 34 33 31 32 37 38
49 49 48 46 46 46 46 46 47 47 46 47 46 42 35 38 44 49 51 48 51 51 50 52 46 43 40 40 39 35 34 33 32 35 36 35 25 31 34 34 33 32 32 34 36
50 50 48 48 46 45 46 47 47 46 46 45 42 39 33 45 45 47 50 47 51 51 52 51 47 43 40 36 34 32 23 26 31 37 32 32 24 29 32 35 33 33 33 33 36
49 49 48 46 46 46 47 46 46 46 45 43 41 37 37 38 45 48 49 50 50 51 50 48 45 41 36 32 24 28 24 28 24 32 36 35 30 35 35 34 33 31 31 31 33
49 49 48 45 45 44 44 42 38 37 39 29 28 35 39 43 47 45 49 50 50 47 42 44 40 37 32 32 30 29 27 26 30 33 32 30 31 32 33 32 31 30 30 30 31
49 49 47 46 45 45 42 37 38 39 30 33 35 35 38 42 42 44 50 47 46 41 43 42 37 35 33 34 33 32 29 28 32 30 30 29 29 29 30 30 31 30 30 30 30
48 48 44 47 46 44 40 40 45 43 35 38 38 38 38 45 41 43 46 45 42 41 40 38 37 34 35 32 32 32 29 31 28 30 29 28 25 26 25 25 22 22 23 23 26
49 49 47 45 41 43 39 45 46 42 33 34 38 42 46 46 43 49 49 46 41 38 40 40 41 34 32 33 32 29 34 33 30 30 24 27 17 24 21 20 23 24 24 26 30
48 48 47 45 42 40 43 45 44 40 23 34 37 45 45 40 42 44 50 45 38 37 40 36 40 37 34 33 34 31 33 30 29 28 26 24 22 18 18 18 23 26 29 31 32
47 46 46 46 45 44 45 43 40 32 23 34 39 39 39 39 40 43 44 45 42 38 39 38 41 39 38 37 35 30 29 28 28 26 27 22 21 13 15 17 21 24 27 32 34
50 46 44 45 39 44 44 40 33 27 34 35 36 37 35 37 38 38 39 38 36 33 34 36 36 38 39 36 33 30 30 30 27 29 23 22 20 16 18 21 21 25 31 33 35
50 45 44 43 46 43 42 36 29 31 33 38 35 35 34 35 38 38 36 34 32 34 34 32 30 36 38 34 34 30 30 28 18 15 15 22 17 16 22 22 22 26 29 34 35
46 42 44 43 44 44 39 32 31 32 37 33 31 30 32 34 34 34 33 32 30 31 31 30 30 32 31 31 32 30 32 24 24 20 21 14 16 18 22 22 23 25 30 34 36
43 42 41 43 45 43 40 34 35 37 36 32 28 30 28 31 30 31 31 32 30 31 30 29 30 30 30 31 30 30 28 27 31 21 14 8 10 14 19 20 23 27 32 35 39
42 40 42 45 45 43 35 36 37 39 37 31 31 29 31 31 31 31 29 31 31 30 29 29 30 30 31 29 28 27 28 26 25 23 18 7 9 17 20 23 25 27 30 33 40
40 41 43 45 42 41 38 37 39 38 38 32 32 32 30 30 30 30 26 30 31 30 28 29 30 29 28 30 30 29 27 23 23 24 23 22 14 21 23 23 25 27 30 35 39
39 39 44 45 37 37 36 35 37 35 35 32 30 32 31 29 28 28 30 31 32 30 29 29 29 27 28 29 30 29 28 26 24 27 26 20 16 24 24 25 27 30 32 37 37
40 38 41 42 40 36 35 35 34 37 34 32 31 30 28 28 29 28 28 33 32 30 37 33 27 28 21 29 29 30 28 27 27 27 22 20 19 22 23 27 31 32 34 38 36
41 36 37 38 37 36 36 36 33 33 36 33 30 29 27 27 28 28 31 31 32 36 32 30 33 31 26 27 30 29 28 28 29 26 26 20 21 22 25 29 31 34 39 37 36
36 36 36 35 34 34 34 34 34 35 36 30 30 30 30 27 26 27 30 30 29 33 30 31 32 31 29 28 29 29 29 28 28 27 26 25 25 26 28 30 34 38 37 36 34
40 39 39 33 33 33 34 34 35 36 37 38 35 34 33 34 36 34 32 31 31 30 30 31 33 31 26 25 26 25 26 28 29 29 27 25 26 28 28 30 36 37 37 34 34

GFSSW_sfc_dewp_033.txt.gz
Dewpoint
53 52 52 51 48 49 51 51 50 51 52 53 48 46 48 50 53 49 51 52 51 53 57 45 52 55 48 45 43 43 42 39 37 33 33 33 33 32 31 27 28 29 35 50 60
51 52 51 50 49 49 49 49 49 50 51 52 47 46 47 49 44 44 50 59 55 54 52 43 50 52 45 43 43 41 40 39 36 34 34 34 32 29 31 29 27 31 41 54 60
51 51 51 50 50 48 49 49 49 49 49 50 48 49 45 46 39 35 52 59 58 55 53 42 48 51 44 41 40 37 33 36 33 34 35 33 31 28 31 27 28 28 37 54 59
50 50 50 50 49 47 47 48 48 47 47 49 49 48 43 42 27 33 56 59 58 52 51 46 45 48 43 39 39 34 34 31 33 35 35 32 31 31 31 28 29 34 38 41 55
50 48 49 49 49 48 49 48 47 47 46 47 48 47 43 37 33 52 55 58 56 52 49 45 41 45 41 39 36 36 32 33 34 38 36 32 31 31 31 33 36 37 38 38 39
50 50 49 48 48 49 50 48 47 46 45 46 46 45 39 34 31 44 51 50 54 54 45 43 39 45 41 37 36 38 36 35 35 38 38 36 33 34 33 34 34 34 34 34 37
50 50 50 47 45 46 48 48 47 46 45 46 47 43 38 34 37 50 52 47 49 54 42 43 41 43 40 39 39 37 35 36 34 36 35 38 34 34 35 34 33 31 32 32 31
50 50 49 48 48 46 46 45 46 46 46 47 46 40 34 34 36 38 52 50 50 53 42 46 42 41 39 38 38 35 35 32 33 36 35 36 29 31 34 33 33 30 29 29 29
50 50 49 47 44 45 45 46 47 47 46 45 42 39 31 42 35 35 50 48 46 52 47 49 45 42 39 35 33 33 26 27 28 32 34 34 29 28 29 29 30 29 28 29 30
50 50 49 46 45 45 45 45 46 46 45 41 40 35 33 33 40 48 51 51 52 48 49 48 46 36 34 30 24 25 23 22 22 33 32 30 30 26 31 30 30 28 28 28 28
50 49 48 46 46 45 44 43 39 37 37 29 27 31 37 41 45 47 51 52 47 46 42 46 41 35 31 27 23 21 23 19 21 31 32 30 28 27 31 31 30 29 28 27 27
49 47 48 47 46 44 42 36 38 39 29 31 31 34 37 40 42 45 50 44 43 40 37 41 38 33 30 28 29 28 25 24 26 31 30 25 27 28 29 29 28 27 27 26 27
49 45 47 46 44 41 39 40 44 42 36 37 38 36 40 44 39 44 46 44 40 36 38 36 35 34 33 29 29 27 25 24 27 30 29 28 25 26 26 28 28 25 25 25 27
48 47 46 45 44 42 39 44 44 43 34 35 37 40 43 45 43 48 47 42 38 36 40 38 39 35 33 31 27 25 28 30 30 28 19 27 8 24 24 22 22 22 22 24 27
50 48 47 47 41 40 41 43 43 41 25 38 37 45 46 43 41 42 48 46 37 37 40 36 39 34 32 30 29 30 33 32 32 30 28 25 21 20 20 19 23 26 29 30 31
49 50 47 44 44 42 44 43 41 33 25 34 39 40 40 41 40 43 43 45 42 38 38 38 41 39 37 33 31 33 31 30 30 28 28 25 20 17 16 17 23 25 28 31 32
49 50 45 43 39 43 43 41 33 29 35 35 36 39 37 37 38 39 38 37 35 33 33 35 35 39 39 33 33 32 30 30 28 30 24 22 21 18 18 19 22 24 29 31 33
49 50 45 42 44 44 43 38 31 32 36 37 36 34 37 37 37 37 38 36 35 36 36 34 30 36 36 36 32 31 30 29 21 21 21 20 18 17 19 21 22 28 30 33 35
48 43 43 44 44 44 39 34 33 35 37 31 30 31 33 32 36 36 32 31 35 33 33 33 32 37 37 36 35 33 32 26 24 18 21 16 16 19 21 21 21 25 28 34 36
43 41 42 43 45 43 39 34 35 37 36 31 27 28 26 29 29 29 29 31 31 30 30 30 30 36 36 37 35 34 31 29 32 25 14 12 8 15 20 21 22 24 30 34 37
42 38 44 44 46 41 36 37 34 37 36 31 29 28 28 28 28 26 28 31 30 29 30 30 30 30 34 32 30 29 29 27 27 24 21 7 8 18 20 23 26 28 30 33 37
43 42 45 46 41 40 38 37 38 36 36 32 31 30 28 29 28 27 26 30 31 30 27 30 31 30 29 30 30 29 27 26 24 25 22 22 16 18 24 25 26 28 31 33 39
39 38 45 46 38 33 35 34 36 33 33 30 30 31 31 28 27 29 29 31 32 30 28 29 30 28 27 29 30 29 28 27 24 27 28 21 17 21 24 25 28 31 33 34 38
40 39 40 40 40 34 32 32 32 37 32 31 30 30 29 27 27 28 29 32 31 31 36 34 27 29 24 30 29 29 28 28 28 28 22 18 19 22 23 25 31 33 35 38 38
39 37 37 39 36 36 37 35 32 32 35 32 30 29 26 25 25 26 30 30 31 35 31 30 34 31 25 27 30 29 27 28 29 27 25 18 17 21 23 29 31 35 38 38 37
36 37 36 35 35 34 34 34 33 33 34 29 30 29 27 25 25 25 28 28 28 32 30 31 32 32 31 28 28 29 28 27 27 26 24 23 22 24 25 29 33 37 38 36 35
36 38 37 34 34 32 33 34 35 36 36 36 34 30 29 31 33 32 30 29 30 30 30 30 34 32 27 26 26 25 26 27 28 28 26 24 25 28 27 29 33 37 37 35 35

GFSSW_sfc_dewp_036.txt.gz
Dewpoint
51 52 51 52 52 51 50 50 50 51 50 51 53 48 46 49 50 49 47 52 53 58 55 47 51 55 55 50 47 50 45 41 42 41 37 35 33 33 32 29 29 31 49 59 63
51 51 51 50 51 51 50 49 50 50 50 50 51 52 45 48 44 41 48 57 58 57 50 44 49 53 48 46 45 42 43 41 42 43 40 35 34 33 31 30 28 33 51 60 62
51 51 51 50 50 50 48 47 49 49 49 48 50 49 46 45 39 36 49 57 59 56 50 43 48 50 48 44 42 41 39 42 45 44 38 36 34 35 31 31 29 29 46 55 60
52 52 51 50 49 49 48 48 48 48 48 47 48 49 46 41 32 46 48 56 60 53 51 49 41 47 46 42 40 36 39 37 38 38 36 35 34 31 31 32 32 33 40 55 57
50 51 51 51 49 49 48 49 48 47 48 47 47 49 44 37 35 45 52 55 54 54 47 49 40 45 43 41 38 38 35 34 34 38 37 36 33 31 32 34 37 38 39 40 45
50 50 50 50 48 46 47 48 48 46 46 45 46 47 40 34 35 45 51 53 53 53 45 47 39 43 42 40 38 37 37 35 34 38 39 35 32 33 33 35 35 36 37 37 37
51 49 50 49 45 45 45 46 48 47 46 45 46 43 38 33 39 49 48 47 51 52 46 44 41 40 44 41 39 37 36 36 34 37 37 39 35 33 33 34 33 33 33 33 33
51 50 50 50 46 45 45 45 45 46 46 46 46 41 34 35 36 34 48 49 48 51 52 47 45 39 43 41 38 36 35 33 35 35 36 36 32 34 35 34 34 33 31 31 32
50 50 48 47 46 45 45 45 46 46 45 45 42 39 31 41 33 33 37 45 46 51 51 52 48 39 43 38 37 35 30 32 32 35 35 35 32 32 32 32 32 32 32 29 28
49 49 48 47 46 45 45 45 46 46 45 40 37 34 33 29 35 34 41 50 47 50 47 49 46 38 39 37 32 32 29 29 29 33 34 34 33 31 30 31 29 29 28 28 30
48 48 49 47 47 45 45 45 41 38 37 32 31 30 32 38 40 41 48 49 46 47 43 46 39 35 35 34 33 28 28 25 25 33 32 31 31 30 30 31 31 31 29 28 28
49 48 48 48 46 46 45 36 37 39 33 32 30 30 34 39 39 43 47 43 43 41 41 41 36 35 35 31 29 26 25 24 25 31 31 28 28 29 28 30 32 30 28 27 27
50 49 48 48 47 46 40 40 43 42 38 37 38 37 40 44 41 42 45 41 41 40 39 36 35 35 31 29 27 27 25 23 26 31 30 28 26 27 28 29 29 28 27 25 26
49 50 49 48 44 42 40 43 45 44 33 35 38 41 43 46 42 48 48 43 41 36 37 38 38 35 32 29 27 25 27 27 30 29 24 27 12 22 26 26 26 24 23 23 26
48 49 50 47 45 40 41 43 44 42 22 37 38 43 45 42 42 44 49 40 37 38 40 37 38 37 34 32 30 28 33 31 32 30 29 26 23 21 24 22 22 25 29 31 32
47 49 49 46 47 41 44 44 43 32 25 34 39 38 40 39 40 41 42 42 42 38 38 38 41 40 39 36 32 35 32 31 31 29 24 27 22 20 21 20 24 27 29 31 32
47 48 48 42 42 44 45 42 32 26 36 34 37 40 36 36 38 38 37 36 35 32 32 35 35 39 39 36 35 32 30 27 24 24 22 23 22 21 19 21 24 25 29 31 33
49 49 49 42 45 46 44 38 26 31 35 37 37 36 34 36 37 38 37 35 39 37 35 32 28 35 37 37 33 32 29 27 18 21 21 21 21 19 20 22 24 29 30 33 35
49 47 45 47 46 45 41 31 30 33 36 31 31 34 35 34 34 38 37 37 38 38 34 33 31 37 37 38 36 34 32 26 25 18 21 19 18 21 21 21 26 26 28 33 36
44 44 44 45 46 44 40 32 35 37 36 32 28 29 28 29 31 32 32 36 34 34 33 32 31 37 37 39 38 34 31 28 28 17 16 15 15 17 20 21 21 25 25 33 37
45 40 45 47 47 42 35 37 34 36 35 31 28 26 28 28 29 27 29 31 30 29 30 32 31 35 37 35 34 33 31 30 27 26 22 13 12 19 20 20 21 24 29 32 36
45 40 46 48 43 41 38 37 39 34 36 32 33 31 29 29 28 27 28 30 31 30 29 31 31 31 33 32 32 34 32 31 29 23 22 21 17 20 22 25 28 28 31 32 39
40 40 47 47 37 34 36 34 36 33 33 31 30 32 31 28 27 29 30 32 34 32 30 30 30 27 28 30 30 29 29 30 27 30 27 21 17 24 25 26 27 29 32 37 38
41 38 43 44 40 37 34 32 33 39 34 32 31 31 30 28 28 29 30 34 32 32 37 34 29 28 22 25 30 28 29 29 28 26 24 22 20 22 24 25 31 34 37 38 38
38 36 36 38 37 36 37 35 32 33 36 33 31 30 28 26 26 27 31 31 33 36 33 32 28 27 26 28 31 30 29 29 27 29 24 21 18 22 23 28 32 36 38 38 36
35 36 36 35 35 34 35 34 33 33 34 30 31 30 29 27 26 26 29 28 28 31 30 33 30 29 26 28 28 28 29 28 29 28 27 26 23 24 25 31 34 37 38 36 35
33 37 37 35 34 32 34 35 34 37 37 36 36 34 31 35 35 33 31 29 30 30 29 30 30 26 22 26 26 24 27 28 28 28 27 25 24 28 29 31 34 37 37 36 35

GFSSW_sfc_dewp_039.txt.gz
Dewpoint
51 52 51 51 51 51 51 51 50 50 49 50 50 52 49 47 49 48 47 51 55 55 54 49 50 53 56 53 49 50 44 40 40 41 41 43 39 34 31 29 35 47 57 62 64
52 52 52 52 51 50 50 50 48 50 49 49 50 51 49 47 45 44 48 55 58 58 49 46 47 53 50 50 51 49 44 41 41 41 42 43 41 33 30 30 31 54 62 63 63
51 49 51 51 51 49 49 48 48 48 48 48 48 51 49 45 41 38 50 54 59 58 50 46 49 52 48 47 47 46 42 42 42 42 49 46 44 37 30 31 30 50 59 61 62
50 51 51 51 51 49 48 49 49 47 47 47 47 50 51 43 33 38 49 54 58 57 50 46 47 48 47 43 44 39 42 42 42 49 48 44 41 32 32 32 37 41 56 59 60
51 51 50 50 50 48 47 47 48 47 47 47 48 50 45 39 37 39 49 52 54 54 49 48 43 47 45 44 41 40 38 40 42 44 45 46 40 34 31 37 38 40 48 57 58
50 50 50 50 48 47 47 46 47 46 46 46 48 50 43 37 39 47 51 48 53 53 49 49 40 46 44 42 40 39 39 38 36 40 40 42 36 35 33 36 36 37 37 37 44
51 51 51 49 48 46 46 46 46 47 47 45 46 44 40 36 39 48 49 50 52 52 48 48 45 43 42 42 42 38 37 37 37 38 37 37 34 34 34 34 34 34 34 34 33
49 49 49 48 47 46 46 45 45 46 46 46 45 43 36 38 37 36 47 49 49 52 53 51 49 42 43 42 41 38 36 34 35 37 37 33 31 34 35 36 34 33 33 32 34
49 50 48 48 47 47 46 46 45 46 46 45 43 40 34 41 37 35 38 43 46 51 53 50 49 43 41 39 37 38 32 33 33 36 35 35 33 34 35 34 34 34 34 34 31
49 48 49 48 47 46 47 46 45 45 45 42 38 35 36 32 40 36 43 49 46 49 47 47 46 39 39 39 32 33 31 31 32 34 34 34 34 34 30 32 33 31 30 28 29
51 49 48 48 48 48 46 45 40 37 39 34 34 33 31 38 43 39 49 47 47 44 39 44 42 35 35 37 34 33 31 29 32 33 35 33 34 33 33 30 30 30 30 30 28
49 50 49 48 49 49 45 36 37 39 35 37 34 32 34 40 39 44 48 41 43 39 41 40 36 37 37 36 35 31 30 28 29 33 33 32 31 33 32 30 31 31 31 30 28
47 49 50 49 49 46 42 42 45 43 37 37 37 38 41 42 38 42 44 41 40 39 40 36 36 37 36 33 31 29 26 27 28 31 30 28 26 27 30 29 31 31 28 26 26
47 47 49 50 45 41 40 44 45 44 32 35 38 41 41 42 40 46 47 43 42 37 38 37 38 35 33 32 29 26 28 29 31 28 24 26 18 20 26 28 28 26 23 23 24
47 47 48 49 43 41 42 43 44 41 20 35 38 46 45 41 40 40 48 44 39 40 40 37 39 36 33 32 30 29 32 32 31 29 28 26 23 22 25 25 23 22 25 25 29
46 47 48 46 46 44 43 43 43 29 22 34 40 38 41 40 41 42 43 43 42 39 38 38 40 40 38 38 34 34 32 31 31 29 24 26 24 21 23 24 22 28 29 31 33
47 48 46 45 42 43 44 42 29 20 34 34 37 38 36 37 38 37 38 38 36 31 33 36 36 38 39 35 36 33 29 24 23 21 21 23 24 23 22 22 26 28 29 31 32
48 50 48 46 44 44 43 36 23 32 34 38 37 36 35 36 37 37 37 36 37 35 34 31 30 37 38 35 33 33 29 25 19 18 22 21 22 22 21 23 27 28 30 32 37
48 46 44 45 45 44 39 24 26 31 34 34 34 34 33 36 37 38 37 37 38 38 31 31 29 37 38 39 37 34 31 28 23 21 17 20 19 20 21 26 28 30 31 34 38
42 42 42 46 44 43 34 27 31 37 37 35 29 29 28 30 33 36 36 38 37 37 37 34 30 36 38 39 38 35 32 29 27 16 15 17 16 18 19 23 27 27 28 33 37
42 38 43 46 45 40 28 27 35 37 36 33 31 28 28 28 29 28 30 35 38 37 34 33 33 34 37 36 35 34 31 30 28 25 19 12 13 19 20 21 24 25 25 30 39
39 39 44 47 37 36 30 35 38 36 36 35 33 31 29 28 27 29 29 30 32 32 33 32 33 31 34 37 38 35 32 29 26 22 21 21 19 21 21 22 22 23 28 34 39
36 37 45 45 36 32 34 36 37 35 34 32 31 32 31 28 27 29 30 32 33 32 29 31 30 27 29 33 35 34 34 34 30 29 24 18 16 24 25 26 27 28 30 38 38
39 36 40 41 40 37 33 32 35 38 35 33 31 31 29 27 27 29 31 34 32 32 39 35 30 25 22 23 30 28 31 33 34 28 25 25 20 23 24 25 27 32 37 38 37
37 36 37 35 35 35 37 36 33 33 37 33 32 31 29 26 26 28 31 32 33 37 32 32 24 25 27 30 30 29 29 29 27 27 23 22 20 22 24 25 32 37 38 36 36
34 34 36 34 35 33 35 35 35 35 34 31 32 30 28 32 30 27 29 28 28 32 30 32 25 26 21 28 28 27 29 29 29 27 27 27 26 24 24 31 37 38 38 35 35
33 35 37 34 32 32 34 35 36 36 36 36 36 35 34 34 36 34 30 29 29 30 29 31 26 21 19 26 26 22 26 27 28 29 27 25 26 27 30 33 37 37 37 35 34

GFSSW_sfc_dewp_042.txt.gz
Dewpoint
52 51 51 51 51 52 51 51 51 51 50 50 51 50 51 53 51 49 46 49 54 59 57 49 49 51 56 53 51 50 44 39 40 40 42 43 43 43 33 41 49 57 58 61 64
51 51 51 51 51 51 50 49 49 48 49 49 49 50 50 49 45 44 47 53 56 58 48 45 46 52 50 51 51 47 42 40 40 41 43 45 46 45 34 33 51 59 62 63 63
51 50 50 51 51 50 50 48 49 48 48 48 48 50 51 49 40 38 49 53 55 57 49 46 50 53 46 49 50 48 41 41 40 42 49 47 45 45 40 30 47 56 60 61 61
51 51 51 51 50 49 48 48 47 49 47 48 47 51 50 43 32 38 49 52 55 55 52 45 49 48 45 45 48 45 43 42 44 51 48 47 47 44 37 32 34 56 61 60 60
50 51 51 50 49 48 48 47 47 46 46 46 48 51 47 38 37 42 53 50 48 54 53 44 47 46 43 43 44 40 42 43 46 49 50 49 46 45 43 39 38 57 59 59 60
49 49 49 49 48 47 47 47 47 47 46 47 50 48 42 36 40 40 48 46 50 54 52 46 45 47 45 43 42 42 40 42 47 47 48 47 46 46 38 35 42 47 55 57 58
49 49 48 48 47 47 47 46 46 48 47 46 48 45 41 38 41 41 48 49 51 52 49 50 44 46 43 42 43 40 39 39 39 41 40 43 43 41 39 35 35 35 36 38 45
49 49 49 48 47 47 46 46 46 46 46 46 45 43 37 40 38 39 45 49 51 53 50 51 47 43 43 43 41 37 36 34 36 38 38 39 34 39 39 35 33 34 33 33 34
50 49 48 49 48 47 47 46 45 46 46 45 43 40 34 40 36 36 41 43 48 52 53 50 47 43 41 39 37 38 33 33 34 37 37 33 32 35 35 34 33 34 34 34 34
49 51 49 48 49 49 49 47 45 45 44 44 41 36 35 34 39 37 41 46 46 50 49 48 45 39 38 39 31 32 32 32 31 35 36 35 34 34 34 32 33 34 34 32 30
47 49 50 50 49 50 48 43 38 35 39 34 34 34 32 36 43 45 46 42 45 46 38 45 38 35 35 37 34 34 30 32 33 35 34 33 34 35 34 31 31 31 30 30 29
47 47 49 50 49 50 44 37 39 38 34 38 37 35 35 41 39 44 44 37 42 37 39 40 35 36 37 38 35 33 31 30 30 33 34 34 33 34 35 33 30 30 30 31 29
46 46 48 49 50 44 42 42 45 43 36 38 39 39 42 43 38 41 43 39 40 37 37 36 36 38 36 36 35 31 31 28 28 31 30 29 27 30 32 31 31 31 31 31 28
47 46 48 48 45 42 40 44 45 44 31 35 37 41 41 42 39 46 45 43 41 37 38 37 39 37 36 34 32 29 28 28 30 29 27 27 23 21 28 29 30 30 28 27 25
47 47 48 47 42 41 42 44 43 41 20 36 40 45 42 39 40 41 47 42 38 39 38 35 37 36 35 34 29 28 31 31 31 28 27 25 22 22 24 25 27 28 24 24 27
46 47 48 46 46 44 44 43 43 24 18 33 38 36 36 37 39 42 42 44 42 38 40 38 40 39 36 37 32 33 31 31 30 27 22 26 23 22 22 24 25 24 25 26 32
46 48 46 46 42 44 44 42 24 21 33 34 37 35 35 35 37 36 36 38 36 31 33 37 37 39 39 34 36 31 27 21 23 20 20 24 24 24 24 24 24 28 30 32 34
48 49 48 47 44 44 43 35 19 30 34 38 38 38 35 38 38 37 37 36 37 34 35 31 31 37 38 35 32 30 26 22 17 19 20 22 22 22 23 22 25 29 30 31 34
47 44 45 46 45 44 38 20 21 26 32 35 34 33 36 38 38 37 35 35 37 36 31 28 29 37 38 38 37 33 30 28 22 20 17 20 21 21 24 26 28 29 30 32 37
41 41 42 46 44 42 30 26 28 35 36 36 29 28 28 34 36 36 36 37 37 37 37 32 29 37 37 39 37 34 32 26 24 15 14 17 18 18 21 25 27 29 31 36 39
41 38 43 46 45 38 24 26 35 37 37 33 30 27 28 28 32 31 34 37 38 37 36 33 31 33 37 37 34 33 32 30 30 26 19 15 16 18 20 25 27 29 31 34 38
37 35 44 46 39 33 28 34 38 36 36 35 32 31 28 28 28 29 29 32 38 35 35 34 34 31 34 38 38 35 33 30 29 23 21 20 18 21 21 24 27 26 26 29 39
38 36 44 44 29 30 33 36 37 35 33 32 31 31 30 27 27 29 30 32 36 34 33 32 30 25 29 33 36 36 35 33 29 27 20 17 15 24 22 22 23 24 28 38 38
37 34 37 42 40 35 33 32 34 37 35 33 31 30 29 26 29 29 30 33 32 32 38 35 30 24 23 25 32 32 34 34 31 23 24 23 20 22 24 24 25 28 34 38 37
35 35 36 34 35 35 36 35 33 33 35 33 31 30 29 25 27 29 31 31 32 36 33 30 25 25 27 30 29 29 31 33 32 30 29 26 26 24 24 26 27 34 38 37 36
31 33 35 34 34 33 36 35 35 35 34 33 33 34 32 32 30 27 30 30 28 32 31 31 24 25 21 27 28 27 28 31 33 33 32 26 26 27 25 27 35 37 37 36 35
32 33 35 32 27 33 33 34 35 36 36 37 38 35 32 33 34 35 30 30 29 29 29 30 26 20 17 26 25 22 26 27 29 29 30 26 26 27 27 28 36 37 38 36 35

GFSSW_sfc_dewp_045.txt.gz
Dewpoint
51 52 51 51 51 51 51 52 51 50 50 50 50 51 51 52 54 51 49 48 52 58 57 50 49 51 55 54 53 51 43 38 39 40 42 44 45 46 46 39 50 59 57 60 63
51 51 50 50 51 51 50 50 49 50 49 48 49 50 50 51 47 46 50 52 55 57 50 47 45 52 52 51 52 49 43 39 38 42 44 45 45 45 43 43 48 56 62 63 63
50 50 50 50 51 50 50 49 48 48 48 48 48 49 51 48 40 39 49 53 53 55 53 46 46 51 49 50 49 48 42 41 41 46 48 46 45 46 43 38 40 45 60 61 61
49 49 49 49 49 49 49 48 48 47 46 47 47 50 50 45 34 41 51 52 53 50 54 47 48 47 45 47 49 44 42 41 46 48 47 45 48 47 44 39 43 43 58 61 61
49 49 49 48 48 48 48 48 48 47 47 47 47 50 46 40 38 41 47 44 49 50 51 44 46 45 40 45 45 44 43 42 49 49 48 49 47 48 47 46 42 42 60 60 61
49 49 49 48 48 48 48 47 47 48 46 47 48 48 43 37 39 40 39 47 48 49 51 45 46 45 44 43 44 44 43 46 48 47 47 46 45 48 45 43 41 57 58 57 59
50 49 49 49 48 47 47 47 47 47 47 46 46 43 41 38 40 40 42 50 47 50 50 48 47 46 44 42 43 43 42 46 47 47 47 47 45 46 45 46 40 36 55 57 57
50 50 49 49 48 48 48 47 47 47 46 45 45 45 37 40 39 38 43 49 55 54 53 52 47 45 43 42 42 38 41 38 42 45 45 42 37 44 46 43 39 35 34 37 42
48 50 50 49 49 49 49 48 47 47 46 44 41 40 32 39 39 36 36 46 50 52 54 52 46 42 41 39 36 36 33 34 36 41 42 39 35 39 43 41 37 35 34 33 33
47 47 49 50 50 50 50 47 47 46 44 44 42 34 33 32 38 41 43 45 47 49 50 46 44 39 37 36 30 33 31 33 33 36 41 39 34 39 41 40 34 34 34 34 34
48 46 48 49 50 50 47 41 37 33 38 33 34 33 32 34 43 45 44 42 44 45 40 44 38 36 35 35 34 34 32 32 32 36 36 38 34 37 41 40 31 32 34 34 31
49 46 47 48 49 50 43 36 38 36 33 37 36 36 37 42 39 42 42 39 41 38 38 38 34 36 38 38 34 34 31 31 32 34 35 34 33 35 35 35 34 31 31 31 30
48 47 46 48 49 44 41 40 45 43 36 37 39 39 42 42 39 41 40 38 39 37 37 35 36 37 37 37 34 31 30 29 30 31 31 31 30 33 34 35 34 33 31 31 30
47 46 46 49 44 41 39 43 44 43 28 34 37 40 42 42 38 44 43 40 41 37 37 35 39 36 36 36 35 30 30 29 30 30 28 30 27 25 30 31 32 33 32 31 29
47 47 47 48 41 41 41 44 43 41 20 37 38 44 42 39 39 40 46 42 38 38 38 35 37 36 35 34 32 31 30 29 31 28 27 25 25 25 23 23 28 31 32 30 27
47 47 48 46 47 44 43 43 42 22 14 32 37 36 35 37 38 41 40 44 43 39 40 38 40 38 36 34 32 33 30 30 29 26 23 26 25 23 22 22 23 26 29 26 26
47 48 46 46 41 45 44 41 25 18 31 33 34 35 34 35 35 37 35 37 35 32 33 37 37 39 38 33 34 32 28 27 23 20 20 25 24 23 24 25 25 24 26 24 32
48 49 47 46 44 44 43 32 15 28 34 38 36 35 33 34 32 33 32 34 38 35 34 32 29 36 38 34 31 29 26 22 18 19 20 23 22 23 25 25 25 26 28 31 34
46 44 44 46 44 44 36 16 20 24 31 35 36 33 35 36 31 32 31 33 37 36 32 28 31 38 38 39 35 32 25 25 21 18 16 20 21 20 22 24 26 28 30 32 36
40 40 42 46 45 43 30 25 27 33 35 36 29 30 33 34 32 35 34 36 36 37 35 31 29 37 37 38 37 32 31 25 22 11 15 17 19 18 19 22 26 28 30 31 37
40 38 42 45 45 39 23 26 33 37 37 32 30 27 28 35 35 33 33 36 37 37 36 33 29 33 37 36 33 31 30 29 28 22 16 16 16 20 19 21 26 28 30 34 38
37 33 43 45 40 36 26 33 38 35 36 34 32 30 28 28 30 29 33 34 38 36 33 33 31 29 33 38 38 35 32 30 24 20 20 19 19 21 21 22 27 29 32 36 39
37 36 44 45 29 29 32 35 36 34 33 31 30 31 30 27 28 30 30 34 39 36 34 33 29 28 29 35 36 36 35 32 29 26 21 20 21 22 22 23 28 28 29 31 38
35 30 36 42 38 33 33 32 33 36 34 32 31 30 28 26 30 29 30 32 34 34 39 35 30 25 22 24 33 33 34 34 30 25 26 24 24 22 22 22 24 26 28 36 37
34 33 34 29 35 35 34 36 33 32 34 33 31 31 28 25 28 29 31 31 32 35 34 31 28 26 27 29 31 30 32 33 31 31 27 27 24 25 23 24 23 25 34 37 37
30 31 34 33 33 34 36 35 35 36 35 33 34 33 32 30 30 29 29 29 29 31 31 31 24 24 21 26 28 27 29 33 33 32 31 30 30 28 27 26 29 32 36 37 37
31 32 34 28 25 34 29 34 32 35 36 37 38 33 31 32 34 34 32 30 30 29 29 29 25 21 17 25 24 21 24 27 31 33 33 30 31 27 25 26 29 34 37 37 36

GFSSW_sfc_dewp_048.txt.gz
Dewpoint
49 52 52 51 51 51 51 50 51 50 50 50 49 50 51 51 53 52 49 49 52 57 57 51 50 52 56 54 54 53 44 40 40 40 41 45 43 46 46 42 42 59 58 60 63
50 48 49 49 49 50 51 50 49 49 49 49 49 49 50 51 49 48 51 52 54 57 52 48 47 52 52 51 52 48 44 41 40 42 44 45 45 45 44 43 44 44 53 61 64
50 49 49 49 49 49 48 49 49 49 48 48 48 48 49 50 42 41 51 55 53 53 54 49 46 49 47 50 50 49 43 42 41 42 47 46 45 46 44 42 40 45 45 54 60
49 50 49 49 48 49 49 48 48 48 48 47 47 50 50 46 33 47 50 53 54 50 53 48 46 44 44 45 49 44 46 44 43 47 46 44 47 46 46 44 46 45 45 54 60
50 48 49 48 48 48 48 48 48 48 48 48 48 50 46 41 40 43 48 43 45 49 50 47 44 42 41 44 47 45 44 44 45 47 48 47 45 48 47 46 44 43 48 52 60
51 49 48 48 48 48 48 48 48 48 48 47 48 48 44 36 45 44 43 44 46 49 49 46 44 45 41 44 44 45 43 46 47 48 48 44 46 46 41 45 45 45 42 57 59
50 51 50 48 49 48 48 47 48 48 48 47 46 44 41 38 41 42 40 48 48 48 50 46 46 44 44 44 46 45 44 46 46 47 46 46 42 43 45 45 44 43 42 45 57
46 49 50 50 49 49 49 50 47 47 47 46 46 43 35 40 41 41 41 50 49 49 51 51 48 45 43 43 41 42 44 41 45 45 48 43 38 43 46 45 44 43 39 35 41
49 46 48 49 50 49 50 50 46 46 47 45 40 39 30 40 39 39 39 47 51 51 52 52 48 43 42 39 36 36 33 36 42 44 46 41 38 39 47 47 44 41 37 35 34
49 48 46 49 50 50 50 48 47 46 43 43 42 33 32 31 36 41 44 47 47 48 47 49 45 40 37 37 30 32 30 33 36 43 44 41 36 39 44 46 45 39 35 34 35
48 49 46 48 49 50 47 39 36 31 37 33 34 33 33 36 44 43 42 43 46 44 37 41 39 35 35 34 33 33 31 33 33 39 40 40 37 38 41 44 44 41 34 33 34
47 49 46 47 48 49 42 36 37 36 31 37 36 36 38 43 38 42 41 40 41 37 36 37 34 36 38 36 34 32 31 31 33 36 37 39 38 36 39 40 42 41 35 32 33
49 48 45 47 48 44 39 38 44 42 35 36 38 40 42 42 39 40 40 40 37 35 34 36 35 38 38 36 32 30 31 30 31 32 31 34 34 35 35 37 38 37 34 32 32
48 47 46 48 44 41 39 43 44 42 30 33 36 38 41 41 38 44 44 42 40 35 37 37 39 37 37 36 33 30 31 30 31 31 29 31 28 30 33 33 34 35 35 34 31
46 46 45 49 41 40 40 44 42 39 20 36 38 43 41 38 37 41 43 41 36 37 37 35 38 36 35 36 33 30 30 29 30 28 27 26 27 28 24 29 32 34 34 34 33
46 46 47 46 47 44 43 42 42 21 19 33 36 36 35 37 38 41 41 44 44 39 39 39 41 37 36 34 32 32 30 29 29 27 21 25 26 26 23 23 23 26 31 32 32
47 49 47 46 41 45 44 40 24 18 31 32 34 34 32 34 35 36 37 36 35 31 32 36 38 38 37 33 33 30 28 21 19 18 19 24 24 26 25 24 24 23 24 27 28
47 49 46 45 44 43 42 29 16 27 34 36 33 34 30 32 32 30 33 34 37 36 32 32 28 36 37 33 30 29 27 22 18 19 20 23 22 24 26 25 25 26 26 27 28
46 43 44 46 44 44 36 16 18 21 32 36 35 33 31 33 30 30 30 32 37 37 31 31 31 38 38 38 33 30 25 25 20 16 15 21 21 20 21 22 24 25 28 28 33
40 40 41 46 45 43 32 26 27 31 34 37 33 35 31 31 27 28 30 33 37 37 34 31 30 37 38 38 36 31 30 27 23 12 15 16 17 19 20 20 21 26 29 31 36
40 40 42 46 45 39 22 28 32 35 36 32 30 28 34 31 29 31 30 36 37 37 34 32 30 34 37 35 32 31 28 27 26 21 16 14 17 20 20 19 20 24 29 32 37
37 36 43 45 39 37 25 32 38 34 36 34 31 30 28 34 33 30 31 33 37 37 32 33 30 30 34 38 37 33 29 28 22 19 20 18 20 25 21 22 22 26 30 33 38
34 38 45 45 33 28 31 34 35 33 33 31 30 30 29 28 28 30 31 34 38 35 33 34 30 27 28 34 36 35 35 32 28 25 20 19 22 21 23 21 25 29 31 35 38
34 29 36 42 40 32 31 32 33 35 34 32 31 30 27 28 30 29 30 35 36 35 39 35 29 24 22 23 30 31 34 34 30 29 27 26 26 27 26 23 22 27 29 33 38
33 32 33 27 33 32 33 35 33 31 34 34 32 31 28 26 28 29 30 31 33 39 36 32 25 25 27 27 31 30 30 33 33 32 29 28 27 28 28 27 23 24 27 34 36
29 30 32 30 30 30 32 34 34 35 34 34 35 33 32 30 29 28 30 28 29 30 32 31 26 24 22 26 30 28 29 32 33 33 33 32 31 30 28 27 25 24 28 34 36
30 32 31 25 26 33 25 30 28 33 36 38 39 33 32 34 35 34 32 30 29 29 30 29 25 20 17 25 24 21 25 27 30 33 32 31 32 32 30 29 29 27 29 33 36

GFSSW_sfc_dewp_051.txt.gz
Dewpoint
51 50 49 49 49 49 50 50 50 50 50 51 50 49 51 51 51 50 49 50 52 55 57 53 51 56 56 54 54 52 45 41 40 40 42 45 43 45 46 43 51 55 52 61 63
49 51 49 49 48 49 48 49 49 49 49 49 49 49 50 50 48 46 51 54 55 55 52 49 48 53 52 52 52 48 42 41 41 43 44 45 45 45 43 39 40 44 46 49 63
51 48 50 48 48 48 49 49 48 48 48 48 48 49 48 49 41 39 52 56 55 53 54 50 48 48 48 51 50 49 42 43 41 45 46 45 45 46 43 41 43 45 44 48 61
51 50 47 49 48 48 50 49 48 48 48 48 49 51 50 46 32 48 53 53 56 52 52 48 46 46 44 45 49 45 44 43 45 47 45 43 47 45 45 44 47 45 45 49 54
50 51 51 47 49 48 48 49 48 48 48 49 49 48 45 40 40 44 47 49 43 47 48 47 44 43 42 44 47 44 45 48 46 47 47 46 44 45 46 47 45 46 45 47 54
46 49 51 50 47 48 48 48 48 48 48 47 46 47 43 36 43 45 43 43 43 47 48 49 44 42 42 44 44 45 45 43 45 47 47 45 45 45 43 45 45 45 45 43 51
51 46 49 49 51 48 49 50 48 47 47 46 47 45 41 38 44 42 42 41 46 49 47 49 47 43 44 41 45 46 43 46 46 46 47 46 41 43 44 45 44 44 45 43 40
49 49 47 49 49 50 49 50 48 46 47 45 46 42 35 39 44 44 42 43 49 50 50 51 49 45 44 44 43 43 43 40 46 46 48 44 39 41 44 44 44 45 44 42 39
49 49 47 48 50 50 50 50 47 46 46 45 40 39 31 39 42 43 41 46 48 49 52 50 49 43 42 40 39 41 36 38 43 44 45 42 38 39 44 46 43 45 43 40 38
49 49 48 47 49 49 50 49 47 45 43 43 41 32 32 30 36 41 45 50 44 48 47 48 46 40 39 38 29 34 35 36 39 44 44 41 37 38 45 45 42 41 44 40 38
48 49 49 47 48 49 47 39 36 31 36 33 34 33 34 38 43 42 42 47 45 43 39 43 39 34 37 36 33 33 34 33 35 44 41 40 38 37 43 44 46 45 45 44 39
49 49 49 45 47 48 42 35 35 35 30 37 36 36 38 43 37 41 42 40 42 36 38 36 35 36 37 34 34 34 32 33 33 42 41 40 39 39 41 42 43 43 43 44 40
49 48 48 45 48 45 39 37 44 42 34 35 38 40 41 42 39 41 41 41 38 35 36 36 36 38 37 34 33 32 31 31 31 39 36 39 37 38 38 40 42 44 44 43 37
48 47 47 45 43 41 39 43 44 42 29 32 34 37 41 41 38 43 43 41 38 35 35 36 38 39 37 34 33 31 32 32 33 35 31 33 28 32 37 36 38 39 40 40 35
47 47 46 46 40 40 40 44 42 38 17 36 37 42 41 37 37 38 43 41 36 36 36 34 37 36 35 35 33 32 32 31 32 29 29 27 30 30 31 34 35 36 37 37 37
46 47 47 47 46 43 43 42 41 21 18 33 36 34 34 36 38 40 39 44 43 38 38 38 40 38 36 37 32 32 30 30 29 29 28 27 29 27 26 26 28 34 35 36 36
47 49 47 45 40 44 43 39 25 16 33 32 32 34 33 33 34 36 37 37 35 31 32 37 37 38 36 33 33 30 28 27 26 25 24 24 25 27 27 25 25 25 26 30 34
48 47 47 45 44 44 42 28 20 26 33 35 32 33 30 32 31 32 35 35 37 35 34 32 30 36 37 34 32 30 27 24 19 21 22 23 24 24 27 26 25 26 27 28 27
46 43 45 46 44 44 36 17 18 26 37 31 33 30 29 32 30 28 31 33 36 36 31 32 32 38 38 38 34 31 30 25 21 19 20 21 22 21 21 21 23 24 27 28 29
40 39 41 46 45 43 32 26 28 30 37 34 32 33 26 29 26 28 29 33 36 37 33 32 31 37 37 38 35 31 30 26 25 16 16 17 17 18 21 21 21 22 24 29 32
39 39 42 46 45 39 27 29 32 35 36 35 34 34 32 28 26 28 27 35 37 37 34 31 31 34 37 35 32 30 29 28 26 23 19 15 16 20 22 21 21 22 24 30 35
37 37 44 46 39 37 29 31 37 35 36 35 32 31 35 34 27 29 31 34 37 36 32 32 31 31 34 38 36 34 29 27 24 22 21 20 21 23 21 23 23 24 28 32 37
34 40 45 45 32 28 31 33 35 33 33 31 30 31 31 34 31 30 32 35 37 34 32 33 28 28 30 33 35 36 34 31 27 26 22 22 21 22 24 23 24 29 30 33 38
34 30 38 42 40 34 31 32 32 35 34 32 31 29 27 29 30 30 31 37 36 37 38 35 29 25 22 23 30 31 34 33 29 25 25 25 25 27 28 29 29 27 30 32 37
32 30 32 34 34 31 32 34 33 32 33 35 31 32 28 27 28 29 30 33 36 40 35 32 26 26 27 27 32 30 30 34 33 32 29 27 27 28 30 30 30 29 27 30 35
31 31 31 28 28 30 31 32 33 34 35 33 33 32 32 30 29 28 30 31 33 32 37 32 27 26 23 26 30 29 30 31 33 33 32 32 31 33 34 30 27 26 24 28 33
29 31 29 24 26 31 24 28 28 33 35 39 38 32 34 35 36 34 33 30 30 30 30 31 28 25 22 24 24 22 25 28 30 33 32 31 31 33 33 32 33 32 27 26 29

GFSSW_sfc_dewp_054.txt.gz
Dewpoint
52 49 49 49 49 49 49 48 50 50 50 50 51 50 49 50 52 48 45 48 50 55 55 52 51 55 55 53 53 52 43 37 36 34 37 44 42 45 45 47 46 46 45 50 63
53 51 48 50 48 49 50 51 49 49 49 48 49 49 49 51 44 43 45 55 54 54 51 50 47 52 50 50 51 48 44 38 40 42 42 44 43 44 42 42 43 43 45 55 64
51 52 50 47 49 48 50 49 49 49 49 49 49 50 48 49 39 37 47 53 57 54 52 51 46 46 44 51 48 47 42 42 41 44 45 44 44 45 40 41 43 42 44 49 62
47 50 52 49 47 48 48 49 49 49 49 50 49 51 50 44 30 46 52 54 55 52 52 50 46 43 41 43 48 44 43 41 40 46 44 41 45 42 43 43 46 45 45 48 51
52 47 49 51 49 47 48 48 49 49 49 48 48 50 44 38 37 44 46 50 49 50 50 48 43 39 37 40 45 43 44 43 42 46 45 45 42 43 43 44 46 45 45 44 49
50 50 46 49 50 50 48 49 49 47 48 48 48 46 42 34 40 42 42 43 48 47 48 50 41 40 36 39 41 42 45 44 43 46 46 45 43 44 38 44 44 44 44 44 43
50 50 48 46 49 50 49 49 50 47 48 47 47 41 40 34 40 40 42 41 46 46 47 50 45 41 38 39 41 42 42 44 43 43 43 47 43 42 42 42 42 41 43 44 44
50 50 48 46 48 50 51 50 50 47 47 47 46 40 33 38 40 41 41 42 42 46 49 51 49 43 41 41 40 38 40 39 42 44 44 44 36 39 41 41 41 40 41 43 43
49 49 48 47 47 49 49 51 49 47 46 46 40 38 31 41 40 43 42 45 45 46 48 51 48 41 42 37 36 37 32 36 42 42 44 41 36 39 41 42 40 39 40 41 42
49 49 49 48 46 49 49 50 47 45 42 41 40 35 31 32 43 43 43 48 45 44 46 46 46 38 35 33 26 27 28 35 39 42 43 41 38 37 40 40 39 37 37 39 43
49 49 49 48 46 48 48 42 39 35 35 32 33 32 31 38 42 39 42 47 45 41 38 43 39 35 33 31 27 29 30 33 39 43 42 41 39 39 38 41 41 39 38 39 42
48 48 48 47 45 48 46 37 34 38 28 36 36 36 37 42 35 38 44 38 41 36 39 37 35 34 34 34 33 33 30 30 35 41 42 40 38 38 37 38 39 39 37 40 41
49 48 47 47 46 46 42 37 44 42 35 34 37 38 40 42 36 38 42 39 39 35 37 35 37 36 35 34 31 30 29 30 30 37 39 37 35 37 38 37 38 38 38 39 41
47 47 46 45 44 44 39 42 44 43 35 31 32 37 39 40 35 43 44 40 38 35 37 37 39 35 32 32 29 28 31 33 32 30 25 34 19 29 33 36 37 38 38 37 41
47 47 47 44 43 41 41 45 44 40 23 35 34 41 39 36 36 37 42 42 35 35 37 35 38 34 33 32 31 31 33 31 30 27 29 30 27 20 30 31 32 35 38 39 40
47 48 47 47 45 44 45 43 43 32 23 33 34 32 33 35 36 38 41 42 39 36 37 38 40 37 35 35 34 33 32 32 32 30 28 25 26 21 25 26 28 32 35 38 38
48 48 45 44 42 45 44 41 32 29 35 29 27 33 32 33 37 38 36 37 36 33 33 37 38 38 37 32 33 31 29 29 26 28 23 26 27 22 27 28 26 26 27 33 36
47 47 46 45 45 45 43 32 29 32 32 33 30 31 27 32 33 35 35 35 38 35 34 33 31 37 37 33 31 30 25 25 18 20 20 24 24 22 26 26 26 26 27 28 28
48 46 46 46 45 45 37 33 31 33 35 29 30 26 26 29 28 29 33 32 35 36 35 32 32 38 37 35 33 32 31 25 25 22 24 20 23 23 21 22 22 22 25 27 27
45 44 44 46 46 44 35 32 34 32 35 29 29 28 24 26 24 27 29 34 35 35 35 32 32 36 36 36 34 32 29 27 32 24 15 16 18 13 20 22 21 21 23 25 29
44 40 44 46 46 39 33 33 33 34 37 36 36 32 28 24 24 25 27 34 36 36 33 33 31 35 36 34 33 31 30 30 27 26 20 12 11 19 22 22 22 24 27 29 31
44 39 45 46 40 37 35 33 37 35 37 35 37 33 30 27 23 28 29 33 37 36 31 32 32 31 35 37 35 32 28 28 26 27 25 22 16 20 22 23 24 27 29 31 34
41 41 46 45 35 33 33 33 36 33 33 31 31 37 37 34 29 32 33 36 38 35 32 32 31 29 32 34 35 34 32 30 29 29 28 23 19 22 23 24 24 28 29 31 35
40 37 40 43 41 35 34 34 33 36 34 32 30 30 31 30 31 31 33 37 37 36 38 36 30 29 25 30 32 32 32 32 31 30 25 24 24 24 26 27 28 30 31 30 34
36 36 37 35 36 35 35 36 33 32 34 35 32 31 28 28 30 31 33 35 36 39 35 33 33 31 26 29 32 31 31 33 34 31 29 26 24 25 27 29 31 32 32 30 30
33 35 35 31 31 34 34 33 33 35 36 34 32 33 30 29 30 29 32 33 34 36 36 33 33 29 29 27 30 29 30 30 32 31 31 31 30 32 32 32 32 31 32 32 30
34 36 33 26 29 33 30 29 31 34 36 38 37 33 35 37 39 37 33 32 32 35 35 35 32 31 26 25 24 23 23 26 28 31 31 29 28 30 30 31 33 33 33 33 33

GFSSW_sfc_dewp_057.txt.gz
Dewpoint
51 53 51 49 50 49 51 50 50 49 50 49 50 50 50 50 50 49 44 43 47 51 55 50 50 49 53 53 51 47 44 40 36 31 35 42 40 43 45 45 47 46 47 52 63
49 51 53 50 48 49 49 50 50 50 49 49 49 50 50 51 44 41 47 50 54 54 49 49 47 48 50 49 51 48 45 39 41 39 40 42 39 42 42 43 44 43 49 62 65
52 48 50 52 49 48 48 50 49 49 49 50 50 51 49 48 41 36 50 51 53 54 51 50 47 46 41 50 49 46 41 41 41 41 43 43 43 43 41 41 43 43 46 61 63
51 52 48 49 52 48 48 48 49 49 49 49 49 51 50 44 31 46 52 53 54 52 51 50 48 43 42 43 49 43 42 43 43 46 42 41 43 41 41 43 44 44 45 52 61
51 51 50 47 49 51 49 49 50 48 48 49 48 48 46 37 34 44 45 50 51 50 49 48 44 43 37 41 43 47 41 42 48 44 43 45 41 41 42 44 44 43 44 45 55
51 51 49 48 47 49 51 49 49 50 47 48 48 48 42 33 38 39 42 43 48 48 49 49 44 41 36 38 43 43 44 43 42 43 44 43 42 44 40 42 42 43 42 43 45
52 50 49 49 47 48 50 51 49 50 46 48 47 41 38 35 37 39 40 41 47 47 44 49 47 41 38 34 40 40 40 43 42 41 39 42 40 40 41 41 40 41 41 42 43
51 50 49 49 47 47 50 50 50 50 46 48 46 39 33 37 38 39 40 41 43 46 46 49 50 47 38 36 39 42 45 40 40 40 39 40 34 37 40 41 40 41 39 41 42
49 50 49 48 48 46 49 49 50 49 47 47 41 36 30 42 39 41 41 41 43 45 48 51 52 42 40 35 35 35 34 36 36 39 39 40 32 36 38 39 39 40 38 39 41
49 49 49 48 48 46 49 49 47 48 43 38 35 35 30 33 43 43 42 42 44 44 44 47 45 38 36 35 28 27 22 28 33 39 40 40 37 38 39 40 39 39 38 38 39
49 48 48 47 47 46 48 44 40 37 34 31 30 29 29 38 43 43 43 47 45 42 40 40 39 34 29 30 25 23 22 27 31 39 40 39 38 38 38 38 38 38 38 37 37
48 48 48 47 46 46 46 38 35 39 29 33 33 33 33 40 36 41 43 38 41 37 39 38 35 32 29 28 27 22 23 29 35 40 41 39 39 38 38 37 38 36 36 36 36
48 48 47 46 44 46 42 35 42 40 34 34 35 35 36 41 34 39 42 40 37 34 38 37 37 39 30 31 28 27 24 25 32 39 39 38 39 37 37 37 36 36 36 36 36
47 47 46 47 43 43 39 40 43 42 35 30 31 36 38 38 36 41 42 40 39 34 35 35 40 39 33 29 28 25 27 28 30 33 28 34 22 29 33 34 35 35 36 36 37
47 47 48 47 43 40 41 43 42 40 26 33 33 37 37 35 35 40 42 42 35 36 35 36 38 37 31 30 28 27 31 30 30 29 22 28 25 20 27 28 30 34 35 36 38
46 48 48 44 44 43 44 42 42 32 23 34 31 31 31 33 35 39 42 45 35 36 38 38 42 39 31 30 30 33 30 29 28 25 26 25 23 18 19 25 25 27 30 34 36
47 47 46 43 41 44 43 40 34 29 35 29 26 29 29 34 35 37 38 38 33 32 33 36 37 40 38 33 33 31 28 28 24 28 23 24 22 21 24 26 26 26 27 29 33
46 47 46 45 45 44 43 34 29 30 32 31 28 29 27 33 35 33 36 35 35 30 34 33 30 36 37 30 29 30 25 23 16 18 19 24 22 19 25 25 25 26 27 27 29
48 45 45 45 45 45 37 33 32 34 30 26 28 26 26 29 30 32 36 35 32 34 33 32 33 38 37 35 32 29 29 26 25 22 22 20 20 22 22 22 22 22 23 25 27
44 43 43 46 46 44 37 34 34 36 35 26 26 25 24 26 26 28 34 34 33 36 37 33 32 37 37 36 33 31 29 24 31 23 12 15 14 14 18 20 21 24 27 28 28
44 40 45 46 46 41 36 35 34 35 33 31 33 27 24 23 24 25 30 34 35 35 35 33 28 35 37 34 30 31 30 29 27 26 21 10 11 18 21 23 25 27 29 30 31
44 38 45 46 40 37 36 35 37 35 38 38 37 32 24 22 22 26 29 32 35 34 32 32 31 30 31 36 35 32 27 27 25 26 23 22 17 19 23 23 25 27 29 30 33
39 39 46 45 36 33 35 34 35 33 33 33 35 35 34 28 26 30 32 35 37 34 33 32 32 30 31 31 32 31 30 29 27 30 27 22 17 23 23 23 25 27 29 30 31
40 37 41 43 40 34 33 32 32 36 33 32 30 34 32 30 32 31 33 36 36 35 38 35 29 29 25 29 28 29 28 30 29 29 24 22 21 22 24 25 26 27 29 31 32
39 35 36 35 35 35 36 34 30 31 34 33 31 30 29 28 30 30 33 35 36 38 34 33 34 32 27 30 32 31 28 29 31 30 27 23 23 24 26 29 30 31 31 32 32
34 33 36 35 35 35 35 33 31 34 34 31 30 31 29 28 30 29 33 33 33 35 34 34 32 31 33 27 29 29 29 29 30 30 30 28 28 29 30 30 29 30 30 30 31
36 37 35 32 34 32 32 32 33 35 37 36 33 32 34 36 36 34 32 34 33 33 34 33 32 33 28 24 24 23 23 25 28 28 28 26 26 29 31 32 34 34 34 33 32

GFSSW_sfc_dewp_060.txt.gz
Dewpoint
53 50 51 53 51 50 49 50 51 50 50 50 50 50 51 51 50 49 45 46 48 52 53 50 49 49 52 53 54 50 44 38 36 33 36 41 41 44 44 46 45 46 51 60 65
51 53 50 51 52 50 49 49 51 50 50 50 50 51 51 50 45 41 46 51 55 55 49 48 47 48 49 50 52 48 45 40 39 40 39 41 40 42 43 44 43 47 60 63 65
52 52 52 49 50 52 49 49 49 51 50 49 50 50 51 49 41 38 52 52 53 53 51 49 48 47 43 49 48 49 42 43 42 45 42 42 42 43 42 44 43 43 56 62 64
52 51 51 50 49 49 51 49 49 50 49 49 49 50 50 45 33 46 52 52 52 53 51 49 48 46 42 45 47 44 44 44 47 48 46 43 43 41 44 43 44 44 50 62 62
51 53 51 50 49 48 49 51 49 50 49 48 49 49 46 38 36 45 45 49 49 50 47 47 46 46 42 40 47 44 44 48 49 48 47 45 43 42 43 44 44 43 45 51 61
51 52 51 49 49 48 48 51 51 49 50 47 49 48 42 35 38 38 40 42 46 48 47 48 47 45 40 40 44 43 45 45 49 47 48 44 43 45 42 43 43 43 43 45 47
51 50 50 50 49 48 47 50 50 50 50 47 49 42 37 35 37 37 38 40 45 47 45 46 48 48 42 37 43 43 40 44 45 45 43 44 40 41 41 42 41 41 42 42 44
50 50 50 50 49 48 46 49 50 51 50 47 48 41 34 37 39 37 39 39 42 47 48 48 49 48 45 39 42 39 40 37 44 47 45 41 36 40 41 40 41 41 40 41 42
49 50 50 49 49 49 46 49 49 50 49 47 43 39 31 42 38 41 41 40 41 45 49 46 49 46 42 38 38 39 33 35 40 41 40 38 35 36 38 39 39 40 40 40 42
49 50 49 48 48 48 46 49 49 48 46 39 35 33 34 33 43 42 43 42 42 43 45 42 44 41 40 36 32 35 34 35 36 39 38 37 36 38 37 37 38 39 39 40 39
50 49 49 48 48 47 46 46 42 39 36 30 29 28 28 39 44 41 43 42 44 42 35 38 37 35 35 35 32 32 32 32 35 40 36 37 37 37 37 39 40 40 38 39 39
48 48 48 47 47 45 46 41 38 40 32 32 32 31 31 38 37 40 42 39 39 37 38 35 35 37 38 34 29 26 27 32 35 39 38 38 36 38 38 38 38 38 38 39 39
48 48 47 46 46 44 42 39 43 40 37 33 32 34 34 40 39 40 41 39 38 36 36 35 37 40 37 30 30 28 23 34 35 39 39 38 37 38 39 38 38 38 38 37 39
47 47 46 47 43 43 40 40 45 43 34 32 32 34 36 37 38 41 43 41 40 36 36 37 38 38 37 32 29 24 25 32 37 36 32 36 24 35 37 37 37 37 37 36 36
47 46 47 47 44 40 42 44 44 43 23 30 31 36 37 35 36 39 43 42 35 34 34 35 37 37 36 30 29 29 32 34 37 32 29 33 27 21 36 33 34 35 35 37 37
47 48 48 43 45 44 45 44 42 32 21 31 30 29 31 33 35 40 42 44 40 36 38 38 43 41 39 32 32 32 30 29 28 27 23 24 25 22 25 26 27 28 34 35 36
47 47 46 44 43 45 44 42 32 26 33 27 26 28 31 32 34 38 37 36 34 29 32 36 37 40 40 33 35 30 28 25 24 22 22 24 23 23 25 25 25 26 27 28 30
47 47 46 44 46 45 44 38 28 27 32 28 27 28 29 32 33 36 35 32 34 31 34 32 28 38 39 34 32 29 28 26 18 19 22 24 21 21 25 24 26 27 26 27 27
48 46 44 46 46 46 42 32 31 33 28 25 27 27 28 29 29 34 36 32 32 34 32 33 32 40 38 35 34 31 29 27 26 23 23 23 21 23 24 22 22 23 24 25 27
45 45 42 46 47 45 39 34 33 36 34 25 26 25 26 26 27 31 34 33 34 36 36 32 32 37 37 38 35 33 28 25 29 17 14 17 16 17 20 21 26 28 29 30 30
46 42 45 47 47 42 34 34 34 36 33 31 32 26 24 24 26 26 32 32 35 36 35 33 32 35 37 36 31 31 31 30 28 27 24 15 15 22 22 25 27 29 29 31 33
46 39 46 47 40 40 36 34 37 36 38 36 37 33 26 24 24 27 32 33 35 35 32 34 32 31 34 38 36 34 30 27 26 24 24 22 18 22 24 25 26 28 28 30 34
41 39 46 45 36 33 36 34 34 34 35 36 34 34 34 26 27 29 32 35 37 36 34 33 32 26 28 31 33 32 31 31 30 30 25 22 19 23 23 23 25 26 27 29 33
40 35 39 43 40 37 33 32 32 38 33 32 33 35 32 28 32 30 33 36 37 36 39 37 31 29 25 27 30 29 29 30 30 25 26 25 23 23 23 25 28 31 31 31 32
42 36 36 35 35 35 37 32 31 31 35 33 31 31 29 29 29 28 32 34 37 37 35 34 31 29 28 31 32 31 28 28 29 29 25 25 23 24 28 29 30 31 32 31 31
37 36 37 35 34 34 35 33 31 34 35 31 31 31 30 30 32 29 31 32 32 35 33 34 31 29 26 28 29 28 29 29 29 30 29 29 28 29 30 32 33 33 34 34 34
39 39 37 36 34 33 33 33 34 36 37 36 33 33 34 36 33 34 33 34 34 33 32 33 30 27 23 25 24 22 24 27 29 29 28 27 27 31 31 33 33 34 34 35 35

GFSSW_sfc_dewp_063.txt.gz
Dewpoint
52 52 53 51 51 52 50 50 49 51 51 50 51 51 51 51 51 49 45 46 48 55 55 51 51 51 53 52 53 53 44 38 36 36 38 42 40 43 44 44 51 51 56 62 64
53 53 52 52 50 50 52 50 49 50 51 50 50 50 51 52 47 44 48 52 52 55 50 49 49 50 48 50 51 48 43 40 41 42 39 41 39 40 43 44 53 60 63 64 66
53 52 53 52 50 50 49 51 50 49 50 49 50 50 51 50 44 41 50 51 52 52 53 51 49 49 45 48 48 47 44 44 45 46 43 41 41 43 44 43 44 57 60 64 63
53 52 53 52 50 50 48 49 52 49 51 49 48 49 50 47 32 45 50 51 52 51 52 48 48 46 44 44 48 45 45 43 47 49 45 43 43 43 44 43 44 55 61 63 63
53 52 53 52 50 50 49 48 51 50 50 51 48 49 47 42 39 45 45 48 49 50 46 46 46 45 42 41 46 45 47 46 48 49 47 45 43 43 43 43 43 50 60 61 62
53 51 50 51 50 50 48 47 51 51 49 50 47 49 44 37 38 42 41 42 45 48 45 45 47 48 44 41 45 46 47 49 49 50 48 45 43 42 43 43 43 43 46 56 61
52 52 50 50 50 50 48 47 50 50 50 49 47 44 40 37 38 39 39 42 46 47 45 47 49 46 47 42 45 46 44 45 49 49 48 46 42 41 42 42 42 42 43 44 53
52 50 50 50 49 49 48 47 48 50 50 49 47 44 37 40 40 41 41 42 44 48 48 49 49 47 47 45 42 42 42 38 43 46 45 42 37 41 41 40 41 41 41 43 43
51 49 50 49 49 48 48 47 48 49 50 49 43 42 34 42 39 42 42 41 42 48 48 46 45 45 46 41 39 39 34 36 36 45 45 40 36 39 41 40 39 40 41 40 42
49 50 49 49 49 48 47 48 48 49 45 45 40 34 35 35 42 43 44 44 42 44 42 42 41 41 41 38 32 34 32 35 35 43 42 41 37 37 36 38 38 39 40 40 40
49 49 48 48 47 46 45 45 42 39 40 33 31 31 30 42 44 41 45 43 44 41 35 38 35 34 35 35 35 35 33 32 36 41 43 41 38 37 38 37 37 39 39 39 40
49 48 47 46 46 44 45 42 39 39 36 33 34 32 33 40 39 40 42 38 40 36 38 36 33 36 37 36 35 34 32 31 34 37 41 38 37 37 38 38 39 39 40 39 39
48 47 46 46 45 43 42 42 43 42 37 35 35 35 37 41 38 40 41 40 38 36 36 33 35 40 38 36 34 33 31 32 34 39 40 37 36 37 38 40 40 39 39 39 40
47 46 46 46 42 43 42 43 43 42 31 30 34 36 38 42 37 43 43 40 39 34 37 37 39 38 37 36 33 28 32 35 37 38 34 37 28 34 37 39 39 39 38 38 37
47 45 46 47 43 42 42 43 42 41 11 29 33 38 38 36 37 41 46 43 37 37 37 35 37 38 37 35 36 34 31 36 38 35 34 35 28 26 36 37 37 38 38 37 37
46 47 48 44 45 45 43 42 41 28 7 25 33 32 32 35 38 41 42 44 41 36 38 39 42 41 41 38 35 35 37 36 34 32 25 31 27 23 31 33 34 36 36 36 37
47 48 47 44 43 43 43 40 31 13 31 25 29 31 33 33 35 36 37 35 35 29 32 36 35 40 40 33 34 32 28 27 26 21 22 24 23 24 25 26 26 26 27 28 29
48 48 46 45 46 43 42 37 17 26 27 29 29 29 31 33 34 34 34 31 34 35 34 31 29 37 40 34 30 29 26 23 21 20 21 23 21 21 24 26 26 24 25 26 27
48 45 45 45 45 45 41 32 30 27 29 28 29 28 29 30 32 34 32 33 35 34 31 33 32 39 39 37 33 30 25 26 24 22 20 22 23 23 22 22 24 27 28 28 28
44 44 44 45 45 43 38 33 33 35 35 29 27 27 26 27 28 31 32 33 35 36 35 34 31 38 37 37 34 31 28 25 24 13 15 21 18 19 21 26 28 29 30 31 32
44 41 45 46 45 42 34 34 34 37 36 34 30 27 25 25 27 30 33 33 35 36 36 33 33 34 34 35 32 31 30 29 28 27 22 14 15 19 24 27 28 29 30 31 33
42 36 45 45 39 39 35 36 36 35 38 36 36 34 31 24 26 30 33 33 35 35 31 35 32 31 33 38 37 35 31 28 25 23 24 21 17 23 26 27 29 29 28 32 34
40 40 45 45 31 32 35 35 36 35 36 36 34 34 34 30 27 32 33 36 37 36 34 33 31 28 29 31 33 33 32 31 31 30 24 19 18 23 23 24 25 27 30 31 33
38 35 41 42 40 36 33 34 34 38 35 35 35 35 32 30 30 30 33 37 36 36 40 36 31 25 23 27 31 30 30 31 29 24 25 25 22 23 27 29 31 32 32 33 33
39 34 35 33 33 36 36 34 33 32 34 33 32 34 30 28 29 31 32 36 36 38 35 34 27 26 29 31 31 30 28 30 28 28 25 25 25 27 29 31 33 33 33 34 34
38 36 36 34 35 35 35 33 33 36 34 31 32 33 32 32 33 29 30 30 31 35 34 34 27 27 24 28 28 28 29 29 29 30 29 28 27 30 32 33 33 33 35 35 36
38 37 35 35 34 33 33 33 35 36 36 35 34 35 35 35 32 33 33 33 34 33 33 32 27 24 21 24 23 21 25 26 29 29 30 28 30 32 32 32 33 34 32 33 34

GFSSW_sfc_dewp_066.txt.gz
Dewpoint
53 53 53 52 51 51 51 52 50 49 50 51 50 50 50 51 52 49 46 48 48 52 52 48 50 51 53 51 51 52 44 38 38 31 37 41 39 43 45 49 55 52 57 58 63
53 53 53 53 52 50 50 49 51 50 49 50 49 50 51 51 48 45 48 52 54 54 48 46 48 49 48 49 51 48 42 40 39 39 38 41 39 41 45 51 57 60 63 62 63
53 53 53 53 52 50 50 49 49 52 49 52 49 49 50 49 45 41 50 52 51 54 51 50 49 49 46 47 47 48 42 43 44 47 45 41 40 44 44 44 50 57 61 63 64
53 53 52 53 52 50 50 49 49 51 50 51 50 48 50 47 31 45 48 50 51 53 51 47 47 46 44 43 48 43 46 46 47 49 46 41 43 45 44 43 51 59 62 63 62
53 53 52 51 51 50 50 48 48 51 50 49 50 48 47 42 41 45 46 44 50 48 45 45 45 45 41 42 44 45 44 47 47 50 48 46 43 43 42 43 53 61 61 62 62
53 53 52 50 51 51 50 47 47 51 51 50 48 48 44 37 39 44 44 42 45 46 47 45 47 47 45 42 40 46 46 46 48 49 50 45 43 43 43 43 50 56 59 61 61
53 52 51 50 50 49 50 48 47 49 50 50 47 45 41 37 38 42 42 41 45 47 45 48 48 45 46 43 45 47 44 46 47 48 48 48 42 42 44 42 43 44 49 57 60
52 51 49 50 50 48 48 48 47 48 50 50 46 44 37 40 40 40 41 42 44 47 48 50 47 44 46 46 45 43 41 39 40 47 48 47 39 42 43 41 41 41 42 45 54
51 49 49 50 49 49 48 48 48 48 49 49 44 42 36 42 39 42 42 41 43 47 47 48 44 43 45 41 39 40 34 37 37 45 46 43 40 41 42 40 39 40 41 41 43
51 48 50 48 48 48 47 47 49 48 44 45 42 35 34 34 41 43 44 44 42 44 42 43 41 39 40 39 31 33 34 35 35 42 42 43 41 40 39 40 39 39 40 41 41
50 49 48 47 47 46 45 44 40 38 40 34 33 33 31 42 45 42 45 43 42 41 35 40 36 35 36 38 35 33 34 35 38 44 42 41 41 41 38 37 37 38 39 40 40
49 48 47 46 45 45 44 41 38 39 34 37 32 33 33 41 39 41 42 39 39 36 37 35 34 37 39 39 35 33 31 33 38 42 40 41 39 39 38 38 38 37 39 39 39
49 48 46 45 45 44 42 42 43 41 35 36 35 35 37 39 38 39 41 40 38 35 35 32 32 38 38 36 35 34 29 32 33 38 41 41 38 39 38 39 39 39 39 40 40
49 48 46 46 42 43 42 44 43 41 24 27 34 36 38 41 38 44 42 40 38 36 36 36 38 36 37 34 33 32 34 36 35 36 32 39 28 32 36 37 38 39 39 39 39
48 47 46 47 42 42 42 43 42 37 5 25 32 38 40 39 39 42 44 42 36 36 38 34 37 37 35 35 35 32 35 39 38 37 36 36 30 26 34 35 36 38 39 39 39
48 47 47 46 43 44 43 42 41 21 4 24 33 32 34 37 39 40 42 45 42 38 38 39 42 39 39 37 36 37 37 36 37 36 30 32 29 22 30 35 37 38 39 39 38
48 48 46 43 41 44 43 40 22 11 26 23 29 30 33 33 35 36 36 36 33 30 32 36 36 41 41 34 37 36 31 28 27 27 25 29 26 24 25 27 32 30 29 29 30
49 49 46 44 45 43 42 33 11 23 24 29 29 29 30 33 34 34 32 33 36 35 32 31 29 38 40 36 35 30 28 26 21 21 22 24 22 21 24 24 24 25 26 27 29
50 45 44 44 44 45 37 22 22 24 28 28 29 28 28 30 34 33 33 34 35 34 31 31 32 39 39 37 33 30 29 28 25 22 21 21 23 23 23 27 29 29 30 30 30
44 43 43 45 45 42 34 30 30 32 33 31 26 27 25 27 29 32 31 33 34 36 35 33 30 37 38 35 33 29 28 24 26 15 17 20 20 20 23 27 28 29 30 31 33
44 39 44 45 45 39 28 33 34 36 35 32 29 27 26 25 28 31 31 33 35 35 35 34 30 33 33 35 33 30 27 28 27 26 19 14 15 18 23 27 27 29 30 32 33
43 34 45 45 37 38 34 36 37 35 37 36 35 33 29 25 28 32 32 33 35 35 32 34 32 29 30 35 37 35 31 27 21 20 22 18 17 24 26 28 29 28 29 32 34
39 40 45 45 33 33 35 36 36 36 37 36 33 33 34 30 29 33 34 36 37 35 33 32 29 21 25 28 32 32 32 31 30 28 25 18 18 23 26 29 30 31 32 33 33
38 35 40 42 39 35 34 35 35 37 36 37 34 34 32 29 30 32 33 37 36 35 40 36 29 24 21 24 31 29 31 31 28 25 25 25 21 28 30 32 33 33 34 34 34
37 33 35 33 35 34 34 34 33 33 34 33 32 34 30 27 28 31 34 36 36 37 34 33 26 25 29 30 30 29 30 30 28 27 26 24 24 28 30 32 33 34 35 35 36
37 34 35 32 34 34 35 33 32 35 32 31 31 31 31 30 30 29 31 31 32 34 33 33 25 26 24 27 27 27 29 29 30 29 28 28 28 31 32 33 33 33 32 31 32
40 37 35 34 33 33 33 33 35 35 35 35 34 34 33 33 33 33 32 33 34 33 32 31 27 23 22 24 22 21 23 27 29 29 29 28 30 32 29 29 31 29 29 29 29

GFSSW_sfc_dewp_069.txt.gz
Dewpoint
54 54 54 53 54 52 51 50 50 52 51 50 50 49 50 51 51 48 46 48 49 53 53 49 47 49 51 50 51 51 43 40 38 35 33 38 39 43 47 49 54 48 55 57 60
54 54 54 53 54 53 51 51 49 50 52 50 52 49 49 50 47 46 48 52 53 54 49 46 44 46 44 47 48 46 41 39 40 36 34 40 38 43 48 53 55 59 60 62 63
55 55 54 53 53 52 51 50 49 49 51 50 51 49 49 49 44 42 49 49 51 54 49 48 47 45 41 46 45 44 41 42 41 45 47 41 39 44 48 47 51 53 56 60 62
56 55 54 53 52 52 51 50 49 49 51 50 51 49 49 47 25 43 47 47 49 53 49 47 45 42 40 41 45 42 44 44 42 49 47 41 42 44 44 45 48 58 59 60 60
57 55 54 53 51 51 51 51 48 48 51 50 50 48 46 42 41 43 46 43 48 50 45 44 43 43 40 40 44 42 43 46 48 50 49 48 43 43 43 46 59 61 61 60 59
57 56 54 52 50 50 50 50 48 47 50 51 49 47 43 36 38 42 44 41 44 45 45 45 44 46 45 43 40 42 43 45 48 50 50 46 43 43 42 47 59 59 59 60 61
57 56 53 51 50 50 49 48 49 47 48 50 49 45 41 37 39 41 41 42 44 46 45 45 46 45 46 42 42 44 41 46 47 48 48 49 43 43 43 49 52 57 58 59 61
57 55 52 49 50 49 49 48 48 48 48 50 48 44 37 41 39 40 41 41 44 48 47 48 47 44 46 46 42 39 39 39 42 45 48 47 39 43 44 43 43 44 47 56 59
56 54 51 49 50 49 49 48 47 48 48 49 44 41 36 41 38 41 42 41 43 46 48 47 45 43 44 40 38 37 32 37 38 44 45 44 41 42 42 42 41 42 41 43 47
56 53 50 50 48 47 46 47 48 47 45 46 43 36 34 34 40 42 44 43 42 43 41 42 41 38 39 39 32 33 32 36 37 42 43 41 39 41 41 40 40 41 42 41 42
55 51 51 48 47 47 44 43 40 37 39 35 34 33 33 42 44 41 44 42 42 40 35 39 37 31 36 37 37 35 36 35 38 43 41 39 42 41 43 38 39 38 39 40 41
53 52 49 48 46 45 44 40 37 38 33 38 36 33 34 41 38 40 42 39 38 34 37 35 34 35 37 38 37 36 36 36 40 43 39 39 40 43 45 42 37 37 37 38 39
53 51 49 47 45 44 41 42 43 40 34 35 35 34 37 39 36 39 40 40 36 35 35 30 34 38 36 35 36 34 34 35 36 40 41 40 37 40 44 41 39 39 38 39 39
52 51 48 46 42 43 40 43 43 39 19 24 33 36 40 41 38 44 43 41 37 34 34 34 37 37 35 33 35 30 34 34 37 33 31 39 29 32 38 38 38 39 39 40 39
52 50 48 47 42 41 41 43 42 32 0 20 31 38 41 38 39 41 44 42 36 37 36 35 35 35 34 36 35 34 39 34 35 36 35 35 33 29 33 34 36 37 38 39 40
52 49 48 46 43 43 43 42 37 19 -2 22 33 32 35 38 38 40 41 44 43 38 38 38 41 38 38 38 37 38 38 38 37 36 30 34 32 24 28 33 34 36 38 39 39
51 49 47 44 40 44 42 39 20 10 23 21 27 30 33 33 35 38 36 37 35 31 31 36 36 39 42 35 37 36 31 28 26 27 27 32 31 28 26 26 33 34 30 28 29
50 49 47 44 44 43 41 29 9 18 23 27 29 29 29 32 33 33 33 34 37 35 33 31 28 36 39 36 34 33 28 26 20 23 24 29 27 22 23 25 26 27 28 29 30
50 46 45 45 44 44 35 20 18 23 27 28 28 27 27 29 32 32 33 34 36 34 31 31 31 39 39 37 35 34 28 29 23 22 23 23 22 22 26 28 29 30 30 31 32
46 44 43 46 45 42 36 28 29 29 32 29 25 27 24 27 28 30 31 32 33 36 35 33 31 36 38 36 33 30 28 26 27 18 16 20 20 21 23 27 28 29 30 32 33
45 40 44 46 44 40 31 28 33 35 34 28 27 26 26 26 29 31 30 32 35 34 34 33 30 30 33 35 32 28 27 28 27 26 20 16 17 21 22 27 28 28 30 32 33
43 36 45 44 37 36 32 34 36 35 36 35 33 32 26 25 29 30 31 33 35 35 32 33 31 28 29 35 36 34 30 26 21 21 21 18 18 24 28 28 29 30 31 32 33
40 40 45 44 30 31 35 35 35 35 36 35 33 33 33 29 29 33 33 36 36 34 32 32 27 19 21 25 31 32 32 30 28 26 22 16 19 29 31 32 33 33 34 34 35
40 34 40 42 37 33 34 34 34 37 36 36 33 34 31 29 32 32 33 37 35 35 40 35 28 23 20 22 29 28 31 29 27 21 23 23 23 29 31 32 33 34 35 35 35
37 33 35 33 34 36 34 35 33 33 34 35 33 32 28 27 30 31 34 35 35 37 34 30 25 25 28 30 30 29 30 30 27 27 23 24 24 28 31 32 33 33 30 29 29
38 34 34 33 34 35 35 33 33 33 31 31 30 31 30 28 28 29 32 32 30 33 32 32 25 25 23 25 26 27 28 29 30 28 27 27 28 31 33 32 30 28 28 29 29
41 37 34 35 32 33 33 33 33 34 34 34 33 33 31 32 33 32 32 34 34 32 31 29 27 22 20 23 22 21 22 27 28 30 29 27 29 32 27 26 30 29 29 30 30

GFSSW_sfc_dewp_072.txt.gz
Dewpoint
57 57 55 55 54 54 54 52 51 50 51 53 51 51 49 49 50 47 44 46 49 53 52 49 48 47 49 48 50 49 42 37 38 39 37 37 37 43 46 45 47 46 49 56 61
59 58 57 55 55 53 53 52 51 50 50 50 51 52 49 49 47 45 48 50 53 53 50 48 45 45 44 45 46 44 39 37 38 39 38 36 38 41 49 49 54 47 56 59 58
60 58 58 55 54 52 52 52 50 49 49 50 51 51 49 49 43 39 49 49 49 52 49 47 47 45 42 42 43 42 38 38 42 41 42 38 42 43 48 47 53 46 54 56 56
61 59 57 56 55 52 51 51 51 49 48 52 50 50 49 46 21 42 48 45 47 52 49 45 44 41 39 38 40 39 40 41 41 43 46 44 44 43 48 45 50 50 56 58 56
62 59 57 56 55 52 51 51 51 49 48 51 51 48 45 41 40 43 48 44 49 51 46 44 41 41 36 38 39 41 40 41 43 45 49 49 46 45 43 51 56 55 57 57 55
62 59 56 56 54 52 50 49 51 48 47 49 50 47 42 34 37 41 44 43 42 45 45 45 41 44 38 39 38 40 40 40 45 44 47 46 46 45 45 49 58 56 57 58 57
61 59 56 55 54 51 50 48 48 49 47 48 49 44 41 35 38 40 41 41 43 45 43 45 44 43 43 40 41 38 39 42 43 44 45 49 43 44 45 54 56 55 56 58 59
60 58 56 54 53 51 50 49 48 48 47 48 48 43 37 39 40 40 41 40 42 47 46 47 47 44 42 43 42 39 39 36 40 46 49 45 39 44 46 50 50 53 56 56 58
59 57 55 54 51 50 49 48 48 48 47 48 43 40 35 40 39 40 42 41 42 45 46 45 44 42 42 36 37 38 31 34 37 45 44 43 41 44 45 47 44 44 48 55 57
56 57 54 52 52 49 47 47 47 48 46 46 42 36 33 32 39 41 43 43 42 42 41 42 41 39 37 35 28 33 31 34 35 42 42 40 39 42 44 44 44 43 44 47 50
55 57 53 52 50 48 44 43 40 37 39 33 35 34 33 41 44 41 42 41 41 39 35 38 36 33 34 35 36 32 32 33 39 42 41 39 38 40 44 44 40 42 41 44 46
52 55 53 52 49 47 44 40 37 37 31 37 37 35 35 40 37 40 42 38 36 33 36 36 34 35 38 38 37 34 33 33 38 42 40 39 37 39 44 45 43 41 40 39 41
52 55 53 51 48 45 41 41 43 40 33 34 36 34 37 40 37 38 40 39 36 34 35 33 35 37 36 35 36 35 34 35 34 38 40 39 37 38 42 44 44 41 41 38 38
51 54 52 50 45 42 40 42 44 38 20 23 31 35 40 41 38 43 44 38 37 34 35 35 37 35 35 35 36 33 36 36 37 33 30 37 31 36 41 41 42 43 40 39 39
51 53 51 48 43 42 41 44 42 31 2 17 29 38 42 38 39 41 45 41 35 35 37 34 36 35 34 35 38 36 37 36 36 35 35 35 32 31 36 37 40 40 39 39 40
50 53 51 48 45 44 44 41 36 19 -1 19 32 32 36 38 38 39 40 43 41 38 39 37 40 39 35 37 38 38 37 37 37 35 28 33 30 24 27 31 35 37 38 39 39
51 52 49 47 41 44 43 37 20 12 21 21 27 30 33 33 36 38 37 37 35 28 32 35 36 39 41 38 38 37 34 28 27 27 26 31 31 30 23 24 28 29 28 29 33
52 50 48 46 46 43 39 28 12 17 21 26 28 29 29 32 35 36 36 34 36 34 33 26 22 36 39 36 36 32 29 25 21 23 26 33 27 22 23 28 28 29 30 31 32
51 48 46 47 44 42 35 17 19 21 26 27 28 26 27 29 32 35 33 36 36 34 30 32 31 39 39 36 34 33 28 28 23 23 25 26 22 22 27 29 30 31 32 33 34
46 44 44 46 45 41 32 26 28 27 30 28 24 26 23 26 28 29 31 32 35 37 36 33 31 37 36 35 33 31 30 24 26 17 18 20 20 20 24 28 29 31 32 33 34
44 40 45 46 44 39 27 27 32 33 33 27 26 26 26 26 29 28 29 32 35 34 34 32 30 33 33 33 30 28 27 27 26 25 21 19 17 23 22 28 28 30 32 33 33
43 34 45 45 37 36 31 33 36 34 35 34 31 31 26 26 28 29 30 33 35 35 31 32 29 29 29 33 35 35 29 24 21 21 20 20 19 28 27 28 31 32 33 34 35
39 39 45 45 32 32 34 34 34 33 34 33 32 33 33 28 28 31 33 36 35 34 30 30 26 17 21 25 30 30 31 29 25 24 20 17 19 30 32 32 33 33 35 34 33
40 33 39 42 38 29 32 33 32 36 36 35 32 33 31 29 31 31 32 36 35 36 38 33 27 21 18 21 28 28 29 29 25 19 23 20 23 28 31 32 33 34 31 30 30
40 35 38 33 35 32 33 34 32 33 34 35 33 32 28 27 28 30 34 33 34 36 33 29 25 24 26 29 29 29 29 29 24 25 21 23 24 28 31 32 32 30 28 28 29
38 36 34 31 33 32 35 32 32 33 32 31 31 32 30 28 27 28 32 30 29 32 31 30 24 25 22 24 25 27 28 30 29 28 27 24 25 30 32 32 28 28 29 29 30
42 38 34 34 32 31 32 33 33 33 34 33 32 32 31 32 32 32 34 33 32 30 30 28 26 21 20 22 21 20 23 27 28 29 28 26 28 31 27 31 28 29 30 30 31

GFSSW_sfc_dewp_075.txt.gz
Dewpoint
62 60 59 58 57 56 54 54 53 52 51 50 51 51 52 50 49 47 44 43 48 52 53 50 48 47 47 47 49 48 40 35 34 35 38 39 39 41 44 44 47 48 48 54 60
62 62 60 58 57 56 54 53 53 52 50 50 50 51 51 49 47 45 48 48 52 52 49 48 45 45 44 45 45 43 38 35 34 36 39 38 39 40 44 44 47 46 58 59 60
61 61 61 59 58 56 54 52 51 51 50 49 52 50 50 48 40 36 48 51 48 51 48 47 46 44 42 43 43 42 37 36 36 38 40 39 41 43 45 44 48 46 52 58 58
60 60 62 59 58 56 55 52 51 52 49 48 52 49 48 46 19 40 48 45 47 51 48 46 44 40 39 37 39 37 39 39 39 40 42 41 40 41 44 44 47 48 52 56 55
58 59 61 59 57 56 54 52 50 50 48 48 51 48 44 41 39 42 47 45 50 49 45 43 41 39 37 36 38 38 37 40 40 40 43 46 44 40 42 45 47 51 55 54 54
55 58 59 58 57 55 53 51 49 50 48 48 49 47 43 29 35 41 42 44 42 47 45 45 41 41 38 39 37 37 38 39 40 40 43 41 43 45 42 45 48 54 54 55 54
54 56 59 57 56 54 52 50 48 47 48 48 49 45 41 30 37 39 41 41 42 43 42 45 44 41 39 38 38 38 36 37 39 40 42 44 42 45 45 46 47 52 54 56 55
52 54 59 57 54 53 52 49 48 47 47 48 49 43 34 38 41 39 41 41 41 44 46 46 45 42 38 40 40 36 35 32 36 41 41 42 37 44 46 46 48 50 50 54 57
49 52 54 56 53 52 51 48 47 47 47 48 45 39 31 39 39 41 42 41 42 43 45 45 43 39 37 36 34 36 30 30 37 41 44 43 38 44 45 47 47 47 51 53 54
49 50 53 55 52 52 48 46 47 48 46 46 42 37 33 31 39 41 43 43 42 42 41 42 40 36 38 36 29 31 33 35 34 40 40 40 40 43 45 45 45 44 47 54 55
48 49 52 53 52 50 46 46 40 38 41 35 33 32 33 39 44 41 43 42 41 39 34 38 35 32 36 36 34 35 34 34 36 39 38 38 38 41 45 44 42 45 45 48 53
47 48 50 52 52 50 44 41 40 37 32 39 37 37 36 39 36 40 42 38 36 33 36 34 33 35 36 36 34 36 34 35 36 42 40 38 37 40 42 44 45 44 44 43 45
46 48 49 53 51 48 43 41 44 40 33 35 37 34 36 39 37 38 40 39 36 33 35 33 35 37 36 33 35 33 32 34 34 38 39 38 36 38 42 44 45 44 43 42 43
46 47 47 52 46 43 42 44 44 38 25 25 32 34 39 41 38 43 44 38 36 33 36 35 37 35 35 36 36 33 36 35 35 35 30 37 30 35 38 40 43 45 45 44 42
46 47 47 50 43 41 43 44 41 33 14 17 29 39 41 37 39 41 45 41 35 35 36 33 36 35 33 35 37 35 37 36 35 34 34 35 31 31 39 38 40 43 44 45 44
47 46 47 48 46 46 46 41 35 24 9 19 32 33 36 38 39 39 40 43 41 38 38 36 39 39 36 36 37 38 37 37 37 35 28 34 30 28 26 30 37 42 40 40 39
47 47 48 47 43 48 44 35 26 17 22 23 27 31 33 33 35 38 36 35 33 26 32 33 35 40 39 38 39 36 33 28 26 26 26 34 30 26 23 26 31 38 33 31 33
47 50 49 45 48 46 38 31 20 18 21 26 28 29 28 33 36 37 36 35 36 34 32 24 26 36 40 37 36 34 31 25 22 23 29 34 24 28 28 30 31 31 35 36 35
49 48 45 47 47 45 36 27 22 23 25 27 29 26 27 30 35 35 35 34 35 34 29 32 32 39 39 37 35 33 29 28 28 29 28 24 22 25 29 30 32 33 34 34 35
46 43 43 48 47 42 34 28 28 26 29 28 24 26 24 27 29 31 31 33 37 37 36 35 31 36 36 35 33 31 29 24 28 23 22 21 20 21 27 29 31 32 32 33 35
43 38 45 48 46 38 30 28 32 31 31 27 26 26 25 26 30 29 30 33 35 34 34 32 30 33 32 33 32 29 27 27 26 25 22 20 17 23 25 29 31 32 33 34 34
42 34 46 47 36 36 31 32 36 34 35 33 31 29 25 26 29 30 30 33 36 35 31 33 30 28 31 33 35 35 29 23 24 21 20 20 19 28 26 29 32 33 34 34 33
37 38 46 45 32 33 34 34 33 33 33 32 32 32 31 29 29 32 34 36 35 34 31 30 27 20 24 26 30 31 31 27 25 24 21 19 20 30 32 33 33 34 31 30 30
39 32 38 41 38 33 34 31 31 35 35 33 32 32 29 29 31 32 32 35 35 36 37 31 27 22 20 23 28 29 30 28 24 22 22 20 23 29 31 32 34 31 29 29 29
39 36 38 32 35 34 34 32 31 31 34 34 32 30 28 26 27 31 33 32 33 35 32 30 26 24 25 27 30 30 30 29 25 24 22 22 24 27 31 32 33 29 28 29 30
37 36 38 32 34 34 34 30 31 31 32 31 31 31 29 27 27 27 32 30 30 31 31 30 25 25 22 24 26 28 29 29 29 27 26 24 25 30 32 31 28 28 29 30 30
42 40 36 34 33 33 33 31 32 33 34 33 32 31 30 31 31 32 33 33 32 31 29 27 26 22 20 22 22 21 24 28 29 29 27 23 27 30 30 31 29 29 30 30 30

GFSSW_sfc_dewp_078.txt.gz
Dewpoint
61 61 61 62 60 58 57 55 53 53 52 51 50 51 51 51 50 44 35 33 42 49 54 50 48 47 45 41 45 45 39 33 29 28 28 31 36 38 39 38 38 41 44 46 55
59 60 60 61 61 59 56 54 53 53 51 50 50 51 51 50 44 38 38 47 49 52 42 42 41 44 43 41 38 39 35 31 29 28 29 29 36 37 38 38 39 43 45 54 59
56 58 59 59 62 59 56 54 53 51 51 49 50 51 49 47 35 26 49 51 51 50 45 43 44 41 38 40 39 34 34 31 31 32 33 31 35 36 38 38 38 39 44 55 57
54 55 58 59 60 59 56 55 52 51 52 48 47 51 48 42 23 38 49 45 53 47 44 41 41 37 35 33 37 37 34 30 32 35 35 35 35 36 39 36 38 42 48 54 57
51 53 56 56 60 59 56 55 51 49 50 47 47 48 42 37 32 36 46 46 47 45 38 36 36 35 32 29 33 34 34 34 32 36 37 38 37 36 38 39 38 41 46 53 56
49 50 55 56 60 58 56 53 49 48 49 47 47 48 40 35 31 40 41 45 42 43 40 39 35 37 35 34 33 32 34 34 35 36 38 36 38 40 39 38 41 41 44 52 55
49 48 52 54 59 57 54 51 49 47 47 47 47 45 40 37 33 39 37 40 40 40 38 39 38 38 35 33 34 38 35 35 34 34 38 36 37 39 41 42 40 41 44 51 54
48 48 50 53 58 55 53 53 50 48 46 46 48 43 37 34 38 40 39 38 40 40 41 40 41 39 37 37 36 35 34 33 33 34 34 38 32 34 39 43 41 41 44 50 54
48 48 49 51 56 54 53 50 49 48 47 48 44 41 30 37 37 39 39 38 40 41 42 41 41 38 36 35 34 35 32 32 29 31 33 37 35 36 41 44 41 40 45 51 55
47 47 48 50 54 52 51 48 48 48 47 44 41 35 33 28 35 39 41 41 39 40 39 39 40 35 34 35 27 33 30 29 28 30 33 34 35 42 43 42 42 43 46 52 52
48 47 48 50 53 52 49 48 40 38 42 34 33 30 30 35 42 38 41 41 40 38 32 37 34 31 30 36 37 34 34 33 28 35 34 38 37 38 41 44 44 45 47 50 53
48 47 46 49 53 51 46 43 38 37 32 38 37 35 36 35 34 38 42 37 35 31 34 33 31 30 35 37 37 35 33 36 38 39 35 38 38 38 39 43 44 44 45 50 52
48 47 47 48 52 48 42 42 45 41 32 34 36 34 34 37 35 36 40 37 34 31 32 33 31 35 38 36 35 34 35 33 35 38 38 37 37 37 39 43 45 45 45 46 48
47 47 46 47 48 45 42 44 45 39 33 29 34 34 38 39 36 40 42 38 35 31 33 34 37 36 37 34 36 32 35 36 35 35 34 37 30 35 36 42 45 44 44 46 46
47 47 46 45 45 42 41 44 43 37 22 27 32 38 39 37 39 39 43 39 36 34 36 35 35 35 34 35 38 34 38 35 36 32 35 35 33 33 39 40 42 44 45 46 46
46 46 46 46 46 45 45 43 38 31 20 26 32 33 36 38 38 38 39 41 40 37 38 36 38 38 36 37 39 39 35 36 35 33 30 34 34 31 29 27 38 39 40 39 40
47 46 45 46 42 48 45 39 31 25 23 27 29 32 33 32 36 37 36 34 35 32 33 33 36 37 37 38 40 38 32 31 29 31 29 35 30 31 28 28 32 38 36 39 39
48 48 46 46 48 46 44 34 26 24 25 27 28 30 30 34 33 34 33 32 35 34 32 31 30 36 39 37 36 34 32 27 21 27 30 28 28 29 30 33 38 38 38 37 38
50 49 45 47 48 46 38 30 29 27 24 27 29 28 28 31 33 34 34 33 34 36 32 34 32 39 39 37 36 32 30 28 30 31 25 27 26 28 31 32 35 38 38 38 36
45 43 44 48 47 43 36 30 28 25 28 29 25 26 25 29 29 31 33 36 37 38 37 33 31 35 35 35 33 30 28 28 31 25 22 24 22 25 28 31 32 33 35 36 36
43 37 45 48 46 39 32 32 31 29 31 27 26 26 26 27 29 29 34 37 36 34 35 33 30 31 33 34 33 30 28 27 26 26 21 19 22 26 29 31 31 33 34 33 32
42 34 44 47 35 36 33 32 35 33 35 32 31 27 26 29 31 31 32 35 35 35 31 32 31 31 31 32 33 34 29 24 24 21 22 20 20 28 29 32 33 33 32 30 30
38 38 46 46 32 33 35 33 33 32 32 31 31 31 29 31 29 33 34 36 36 35 32 30 30 30 29 29 31 30 28 26 24 26 22 21 21 28 30 32 34 32 30 29 30
40 33 37 40 39 31 35 31 30 35 34 33 33 31 30 30 33 33 33 35 35 36 36 32 28 27 24 27 30 28 28 28 26 27 19 20 24 28 31 32 34 31 29 29 30
40 35 37 34 35 35 35 31 29 30 35 33 31 29 28 28 30 31 33 32 33 35 32 31 31 29 26 28 30 30 30 29 29 24 23 22 23 28 31 32 33 30 29 29 30
38 37 38 34 35 35 35 30 30 33 33 30 30 30 29 27 28 29 31 31 32 32 31 31 32 28 30 25 28 28 30 29 28 27 25 24 25 28 32 33 30 29 29 30 30
43 41 37 34 33 35 34 32 32 33 34 33 31 31 31 32 33 34 34 33 33 31 29 29 30 31 27 23 23 23 24 28 30 29 26 23 28 31 32 32 31 30 30 30 30

GFSSW_sfc_dewp_081.txt.gz
Dewpoint
57 58 59 60 60 61 59 58 56 54 53 51 51 50 52 52 51 45 39 37 38 46 52 48 45 43 43 38 37 40 38 31 27 25 24 23 23 27 30 33 34 35 34 38 55
54 55 57 58 59 60 60 58 55 53 53 51 49 50 51 50 44 38 39 42 46 52 45 42 39 42 40 39 36 36 33 30 27 25 24 24 24 25 29 32 35 36 36 40 59
52 54 54 56 58 58 61 58 54 52 51 51 48 51 49 48 37 26 51 47 51 48 40 38 40 38 35 37 38 33 29 26 26 26 27 27 26 26 29 32 33 35 38 43 54
50 51 53 54 57 57 60 58 55 52 51 51 47 51 49 42 25 37 50 49 52 42 39 36 35 34 31 29 35 33 32 31 28 27 29 31 32 28 29 31 33 35 39 46 51
50 49 50 52 55 56 60 58 55 51 51 50 47 50 45 38 34 40 46 46 46 41 36 32 31 31 29 25 27 28 29 29 31 32 29 30 32 31 31 33 34 37 43 43 52
47 50 48 51 52 55 59 57 53 50 51 49 48 50 42 35 31 33 37 39 40 41 36 36 32 32 31 29 28 27 27 28 30 29 33 29 30 33 33 32 34 37 38 41 43
47 48 49 48 50 54 58 53 52 50 50 49 48 44 40 35 31 34 37 37 38 38 36 36 35 34 32 30 31 31 30 31 30 32 31 33 32 31 32 34 36 35 39 40 45
46 47 47 48 51 54 54 53 52 49 48 47 48 42 36 35 33 32 31 32 35 38 38 38 37 35 34 34 33 30 31 30 29 32 33 34 32 29 30 34 36 38 38 39 44
47 47 48 48 50 55 54 53 51 49 48 49 44 42 32 38 31 32 36 35 35 37 38 37 37 36 35 34 31 30 29 28 28 31 32 33 31 30 30 31 35 38 40 41 44
48 48 48 48 52 54 53 51 49 48 46 44 40 38 31 28 34 34 36 37 38 37 38 39 38 33 32 31 25 28 32 30 28 30 31 31 29 33 39 40 34 38 39 42 47
47 47 48 48 49 53 50 47 40 39 41 36 34 28 26 33 37 36 39 40 40 37 33 35 33 31 29 31 29 33 34 33 35 30 29 29 30 29 40 41 42 37 38 43 48
47 47 48 48 48 51 48 40 38 41 33 37 33 32 33 34 33 36 40 36 34 31 32 31 31 28 31 31 32 32 33 34 34 32 32 27 32 30 38 39 42 44 42 46 53
47 47 48 47 49 49 42 41 45 43 33 35 35 32 32 35 33 35 39 35 32 28 28 29 28 31 37 37 36 35 30 32 34 36 35 34 36 37 37 38 41 45 45 50 52
47 47 47 47 46 46 42 42 46 42 35 31 33 33 37 36 35 38 40 39 35 31 32 32 31 36 37 34 35 31 34 36 36 33 32 34 30 35 36 37 44 44 46 48 49
46 46 47 46 43 42 43 44 46 40 26 30 32 37 37 34 38 39 43 39 34 33 37 35 35 36 36 36 39 36 36 35 35 36 34 33 31 33 36 38 44 46 47 47 48
47 47 46 45 45 42 45 46 41 32 25 28 32 34 34 36 37 38 40 40 40 37 38 36 37 37 36 36 38 39 37 37 37 37 31 35 31 32 34 35 35 42 42 42 43
47 47 46 45 40 45 45 42 32 29 24 27 29 32 33 32 36 37 34 35 34 32 31 32 35 37 38 37 38 39 34 31 31 31 29 35 28 33 36 33 35 40 41 42 43
47 48 46 42 44 47 44 35 29 27 23 27 30 32 33 33 33 34 32 32 34 32 33 33 31 36 39 38 34 38 31 29 26 28 28 30 28 32 37 39 40 39 40 40 41
49 46 44 45 46 46 38 31 32 28 25 28 30 29 30 31 33 34 34 31 34 36 34 33 32 39 38 36 35 32 31 29 27 25 25 29 33 34 36 37 38 38 38 38 40
43 43 42 45 48 44 35 33 30 26 27 29 26 28 25 29 31 32 30 35 36 38 37 36 33 37 35 35 34 31 29 29 32 25 22 24 26 28 34 35 37 38 38 38 37
40 38 46 48 46 38 33 34 28 29 29 27 25 25 25 27 27 29 34 37 36 34 35 32 32 30 33 33 31 30 27 25 25 26 20 20 24 28 30 32 34 36 37 36 35
40 33 46 46 35 36 35 33 33 31 32 30 29 26 26 28 29 29 32 35 35 34 31 32 31 30 29 31 32 33 25 23 25 23 23 23 23 28 31 32 32 32 30 30 30
38 36 44 45 34 35 34 31 30 29 31 30 29 30 29 29 29 31 32 34 35 34 32 29 29 31 28 29 31 28 27 26 24 27 21 22 23 28 31 32 32 31 29 29 30
40 34 38 39 40 32 29 26 29 35 33 32 31 30 29 30 31 31 32 34 34 35 36 34 29 29 26 29 30 28 27 25 27 27 18 21 24 27 30 32 32 30 30 30 30
41 36 38 35 33 35 31 27 27 30 33 32 29 27 27 28 29 30 30 31 33 34 32 31 30 31 26 28 30 28 27 26 27 23 22 22 23 27 30 32 33 31 30 30 30
39 37 37 34 36 35 32 27 28 31 32 28 28 27 27 28 28 28 27 28 30 29 30 31 33 29 33 25 27 27 28 28 27 25 23 23 25 28 31 32 32 30 30 30 30
44 41 35 33 35 32 28 27 30 32 33 32 29 30 32 33 33 32 32 31 31 30 29 30 31 34 27 24 24 23 24 27 29 29 27 23 28 29 32 33 31 31 31 30 30

GFSSW_sfc_dewp_084.txt.gz
Dewpoint
52 53 54 56 56 58 60 61 59 57 55 54 52 50 50 52 52 48 44 41 40 47 49 47 46 42 43 40 38 39 36 32 30 27 26 26 23 24 24 26 27 30 32 35 59
51 52 53 53 55 56 59 58 60 57 55 53 51 49 51 52 46 41 42 47 44 48 48 44 39 42 40 38 38 35 33 32 30 28 26 25 24 24 23 24 27 31 35 40 61
49 51 50 51 52 55 57 57 60 56 54 53 51 51 51 50 41 38 46 47 50 51 42 39 39 37 36 38 37 35 31 30 27 26 28 27 25 26 28 26 26 30 34 36 56
48 48 51 50 50 53 54 56 59 55 53 53 50 51 51 46 29 45 54 52 53 43 38 34 34 34 32 30 35 33 33 32 32 31 30 26 26 28 30 30 30 30 34 45 50
48 47 49 49 49 50 52 55 59 55 53 53 49 51 46 40 34 47 51 51 47 40 35 31 29 30 28 26 28 27 28 28 29 30 29 31 30 27 29 31 32 33 34 42 48
48 48 47 48 48 49 53 55 58 54 52 51 49 50 44 33 32 40 41 42 40 40 36 35 31 33 30 29 29 29 29 28 29 28 30 29 29 31 27 32 33 33 36 38 43
49 48 47 48 49 50 52 56 55 53 53 51 49 46 40 34 31 34 35 36 38 38 36 36 34 33 33 31 31 31 29 31 30 29 29 30 29 31 30 29 31 33 33 36 44
48 48 48 49 49 50 54 55 53 52 52 50 49 43 36 37 36 32 32 32 34 37 38 39 38 36 34 33 32 31 32 28 28 30 30 30 27 31 34 32 29 32 36 37 43
49 48 48 49 49 53 55 54 52 51 50 49 45 40 35 38 28 29 29 31 35 36 39 35 37 34 35 33 31 31 27 27 28 29 30 29 27 30 31 31 28 30 35 40 43
48 48 48 48 49 49 54 53 51 49 47 44 40 38 35 28 34 34 37 35 35 37 36 37 39 35 34 32 23 24 28 31 32 32 33 30 29 29 33 37 38 29 33 41 43
48 47 48 48 48 50 50 48 42 41 43 38 36 28 28 33 35 35 38 39 38 35 33 36 34 30 30 32 31 29 29 29 31 32 35 33 32 30 36 41 42 43 40 40 45
48 47 47 48 48 48 50 41 42 44 38 40 35 31 32 34 34 36 39 36 35 31 33 33 32 29 29 35 34 33 30 30 32 34 35 35 30 31 34 40 40 43 45 47 52
48 47 47 47 47 49 46 44 48 45 38 36 36 32 32 34 32 36 38 36 32 30 31 32 28 34 35 35 35 33 30 33 32 36 36 32 29 31 37 38 40 42 46 50 51
47 47 47 47 45 45 43 46 48 46 34 32 33 32 35 36 34 38 39 38 36 30 35 35 34 31 32 35 36 31 33 33 35 32 27 34 22 32 36 36 38 44 46 49 52
47 47 46 46 44 40 45 47 47 42 22 33 32 36 36 35 38 38 43 39 34 33 36 30 34 35 36 36 38 34 37 35 36 35 33 33 32 32 36 36 37 45 47 48 48
46 46 47 46 46 44 47 46 44 31 23 28 33 33 34 34 36 39 39 40 39 37 38 36 36 37 35 36 37 38 36 36 36 36 27 32 32 31 33 35 36 42 43 46 47
48 47 45 44 40 47 46 41 30 26 27 26 28 32 31 32 35 34 34 34 35 32 31 33 36 38 38 36 38 38 36 30 28 28 26 35 28 31 36 37 38 41 42 44 46
49 48 46 43 47 45 43 35 24 24 26 27 30 32 31 32 33 35 34 33 35 33 35 32 30 37 39 36 38 35 36 29 25 26 27 31 27 32 37 40 39 41 41 42 43
49 46 45 44 47 46 37 27 30 29 27 28 31 30 31 31 32 33 33 35 34 38 33 33 32 39 39 38 35 34 34 34 34 29 29 31 33 36 38 38 39 39 40 40 41
45 42 43 45 47 43 34 32 28 27 28 30 27 29 26 28 31 33 34 35 35 39 38 36 32 37 35 39 37 32 30 29 34 27 24 28 30 33 35 36 38 38 38 38 39
40 39 44 47 46 39 31 33 29 30 31 28 26 27 28 28 35 32 33 36 36 38 38 34 35 32 34 33 31 31 28 27 26 26 23 23 28 31 38 38 38 38 37 34 35
39 34 45 46 36 36 33 35 32 31 33 31 30 30 30 29 32 32 33 36 35 35 31 32 32 29 30 32 32 33 26 24 26 22 25 25 24 31 32 33 31 31 31 30 30
37 37 45 45 33 34 37 31 33 30 32 31 29 30 31 31 32 32 33 34 36 34 32 31 28 28 26 29 32 28 25 27 27 30 22 23 24 31 32 31 30 29 29 30 30
40 33 39 41 41 36 30 29 31 36 33 32 31 31 30 30 31 30 32 35 34 35 38 36 29 27 25 27 30 27 26 26 29 25 23 24 26 30 32 31 30 29 30 30 31
40 36 38 35 35 33 30 30 31 30 33 31 30 28 28 28 29 29 31 33 33 36 33 32 27 27 26 29 29 28 27 27 26 22 23 24 26 29 32 32 31 30 30 30 30
38 38 39 34 35 32 32 30 30 32 32 28 29 31 31 29 29 28 29 30 30 30 30 31 28 28 23 26 27 25 27 29 29 27 24 26 26 30 31 33 31 30 30 30 31
43 42 37 36 33 28 28 30 33 34 34 34 32 33 32 32 32 31 30 30 29 29 29 30 30 28 23 25 24 23 24 27 29 29 28 26 28 30 31 33 31 30 31 31 31

GFSSW_sfc_dewp_087.txt.gz
Dewpoint
51 51 52 51 52 54 55 58 59 61 58 56 55 52 50 51 52 50 46 45 45 48 49 48 48 45 43 40 40 37 35 33 33 32 31 30 27 27 26 24 24 27 29 47 61
49 49 51 51 50 51 52 56 58 59 59 56 54 51 50 52 49 45 48 49 51 49 48 47 45 42 40 39 38 33 32 32 34 32 30 28 27 26 26 26 28 27 35 60 61
49 48 48 48 51 50 52 53 55 58 58 56 53 51 52 51 45 41 46 49 46 49 50 42 41 40 37 38 37 35 31 32 32 32 32 30 28 27 26 27 30 29 31 52 59
51 49 49 48 48 50 49 50 52 57 58 55 53 51 51 48 35 46 48 48 51 49 43 38 37 36 34 32 36 33 34 34 33 33 32 29 29 28 30 27 29 32 32 40 56
50 50 50 48 48 47 48 51 53 56 57 55 52 52 48 43 40 50 54 53 48 44 39 35 32 31 29 29 31 30 32 32 32 31 30 30 29 28 29 32 29 29 34 42 49
50 49 48 48 48 49 49 51 54 56 56 54 52 51 45 37 47 48 47 50 45 42 39 35 33 35 32 31 30 31 32 31 31 30 29 28 27 29 29 31 32 30 31 35 43
50 49 49 48 49 49 50 54 54 57 55 53 52 46 42 39 36 44 40 42 41 41 39 38 37 34 34 31 32 33 31 32 30 31 31 30 27 26 29 31 32 32 30 33 36
49 49 48 48 49 49 50 56 57 54 54 52 52 45 38 40 35 35 35 36 36 38 40 39 39 37 34 34 32 31 31 27 30 32 33 31 25 24 29 31 30 32 32 32 37
48 49 48 48 49 50 52 54 54 54 53 51 46 44 36 37 32 33 31 34 33 37 39 36 38 35 34 31 28 30 19 26 26 32 33 32 28 28 28 29 31 31 32 32 36
48 48 48 48 48 51 54 54 53 51 48 45 44 39 37 30 34 31 33 37 36 38 37 38 36 34 34 29 17 19 20 27 27 30 31 33 34 35 29 32 29 29 30 31 38
48 48 48 47 48 48 48 48 42 41 45 40 38 35 35 36 36 37 40 39 39 34 30 37 32 28 29 32 30 29 28 27 28 30 32 34 35 35 31 35 38 39 38 42 44
47 48 47 47 47 47 48 43 43 44 38 43 40 35 35 36 34 38 41 38 36 31 33 33 29 31 32 31 31 33 31 29 30 32 35 35 35 36 33 35 39 42 44 46 49
48 47 46 46 47 47 45 45 49 47 38 39 39 34 33 36 35 37 40 38 33 31 31 29 29 33 33 33 32 32 32 30 29 32 36 34 33 33 33 38 40 42 45 47 50
47 47 46 46 43 45 43 48 48 47 33 35 35 34 35 37 36 40 41 39 36 31 35 33 35 33 33 33 34 32 36 36 34 34 26 34 17 29 35 36 38 44 45 47 51
46 45 46 45 44 41 44 48 49 43 19 34 33 38 37 36 38 39 42 38 33 32 35 26 33 34 34 36 38 35 37 36 35 33 34 29 31 32 35 34 36 43 46 47 48
46 46 46 45 44 45 47 45 43 28 18 31 35 34 34 36 37 40 40 40 39 36 36 34 37 36 36 37 37 38 38 36 36 35 26 26 30 30 32 35 37 41 45 47 48
48 46 45 45 40 47 45 39 21 16 30 28 31 33 32 33 35 35 36 34 32 31 30 32 35 38 38 35 38 38 34 28 26 26 27 33 28 30 36 37 38 41 42 44 45
49 47 44 45 47 45 41 29 20 29 26 29 30 32 32 33 34 36 34 30 35 34 32 29 22 36 39 36 36 37 35 28 23 23 26 31 26 32 38 39 41 42 42 43 43
48 46 43 46 46 44 35 25 27 29 28 30 32 31 30 32 32 32 31 34 35 37 33 30 31 39 39 39 37 34 34 37 33 30 28 30 33 35 37 38 39 40 41 41 41
43 42 42 46 45 42 31 31 30 29 31 33 29 29 27 30 30 31 34 35 36 39 38 36 31 36 37 38 38 33 33 29 32 26 24 29 30 31 34 35 37 38 38 39 39
39 36 43 46 45 36 29 32 35 37 37 34 28 28 27 32 33 34 32 35 37 37 39 37 36 32 36 32 31 32 29 28 27 28 23 22 28 38 37 37 37 36 37 37 38
38 32 45 46 35 36 33 35 37 34 34 32 31 32 29 33 33 32 33 36 38 35 34 35 31 26 28 31 32 32 30 25 24 22 24 24 27 36 37 36 35 34 32 30 33
37 38 42 42 27 31 37 35 35 33 33 32 31 31 31 34 30 32 33 34 36 35 32 31 28 24 25 26 30 28 27 27 28 26 23 21 26 32 31 31 34 32 30 30 30
38 32 37 41 38 35 30 30 32 35 33 32 30 31 30 30 32 31 32 35 34 34 39 35 28 26 22 26 30 27 28 28 26 22 24 24 28 31 30 29 29 29 30 30 31
37 31 34 29 33 35 31 33 32 32 33 30 29 29 28 29 29 29 31 32 34 37 34 31 25 25 26 29 28 27 28 29 27 24 22 27 28 30 31 30 29 29 30 30 30
35 34 36 33 34 31 31 32 32 32 33 32 33 33 31 30 29 28 29 29 30 30 29 31 24 28 22 26 25 23 26 29 29 28 26 26 27 31 33 31 30 29 30 30 31
40 39 34 34 32 28 30 33 33 33 34 34 34 33 31 32 32 32 30 29 30 30 28 29 27 24 21 25 24 20 23 27 29 29 28 26 29 31 32 31 30 30 30 30 31

GFSSW_sfc_dewp_090.txt.gz
Dewpoint
50 50 50 50 52 50 51 52 55 59 59 59 58 55 52 50 52 51 46 47 47 48 48 48 47 45 42 39 39 36 34 32 33 33 33 31 28 29 28 26 27 27 29 52 60
51 52 49 48 49 51 50 51 53 57 57 60 57 55 51 52 50 47 50 53 51 50 47 46 45 43 39 39 38 33 31 32 34 33 31 30 30 29 27 27 27 30 33 53 61
51 52 51 49 48 48 48 50 50 53 55 59 57 53 52 51 45 43 50 52 51 48 50 47 43 42 38 38 37 35 31 32 31 32 34 33 31 31 29 28 28 27 29 33 47
51 51 50 50 50 48 48 48 50 51 54 59 56 53 53 48 29 46 49 52 49 51 48 38 38 35 33 32 35 33 35 34 35 35 34 31 31 29 29 28 31 31 31 33 43
50 51 50 50 48 48 49 49 49 51 53 58 55 53 48 43 40 47 50 50 47 43 39 35 31 33 30 30 31 29 31 33 33 32 31 29 28 28 28 29 31 32 32 33 40
50 50 49 49 49 48 49 49 51 52 53 57 55 53 45 36 45 50 51 46 45 40 37 34 32 35 31 30 30 32 33 33 33 32 32 30 28 29 27 28 28 30 31 33 35
49 49 49 49 49 49 50 50 51 53 54 58 55 46 42 37 47 47 51 48 44 41 38 38 38 33 34 30 33 33 29 31 29 30 31 31 28 28 27 27 27 28 30 34 35
48 48 49 49 48 49 51 54 55 55 56 55 53 44 37 41 44 39 37 38 40 39 39 39 38 35 33 34 32 29 29 26 29 32 32 31 24 28 29 26 25 28 31 32 35
49 48 48 48 48 49 51 55 57 57 55 54 48 43 36 39 35 35 34 35 33 36 38 36 37 34 34 29 25 28 19 25 27 30 31 32 29 32 34 34 28 26 27 33 35
48 48 48 48 48 49 50 53 53 54 50 47 44 40 38 32 33 33 32 35 37 37 38 36 36 31 31 29 15 19 24 26 26 30 29 29 29 31 33 36 33 28 31 31 34
48 47 48 47 47 48 47 45 41 41 45 40 39 38 37 36 36 38 39 39 38 35 30 36 30 28 28 30 28 26 26 26 28 30 30 30 30 33 35 35 33 35 37 38 39
47 47 47 46 46 47 46 39 43 44 36 43 39 34 34 36 34 39 41 37 36 30 32 33 29 30 31 31 31 30 29 28 30 31 33 33 33 33 35 34 34 36 40 43 47
48 47 46 46 46 47 43 43 48 47 38 38 40 33 35 37 36 38 39 38 35 31 31 28 28 32 32 31 30 29 29 29 31 33 33 31 30 32 34 36 40 43 45 46 47
45 46 46 45 42 44 41 47 48 47 33 35 36 35 35 38 36 40 41 38 35 31 32 31 33 32 31 32 32 30 32 35 36 33 27 33 17 30 35 36 38 43 46 47 48
47 47 46 44 41 40 44 48 48 45 19 35 35 38 37 37 38 39 42 37 33 32 33 24 32 32 33 33 36 32 37 37 35 32 31 31 29 26 33 32 36 40 44 46 49
48 47 46 44 43 44 47 46 44 27 19 33 35 34 34 36 38 40 39 40 38 35 35 32 36 36 34 37 37 36 36 38 36 34 26 24 27 27 32 34 36 40 43 45 48
47 45 44 45 40 46 44 39 22 17 32 30 33 32 33 34 35 36 36 32 31 29 27 31 33 37 38 35 38 37 34 27 25 22 25 32 29 30 35 36 38 41 42 44 44
47 46 46 46 47 44 41 28 13 29 25 31 32 32 30 34 34 34 33 29 34 33 32 30 23 36 39 36 36 37 34 29 23 23 24 33 26 31 38 39 41 42 42 43 42
46 42 42 45 45 42 33 22 22 28 29 30 35 31 31 33 30 32 31 33 35 37 32 31 29 37 39 39 39 36 34 37 33 30 25 29 33 35 37 38 39 39 40 40 41
40 39 41 46 45 39 29 28 29 32 33 34 28 29 27 30 29 31 32 34 36 38 37 36 30 36 36 40 39 37 35 31 32 24 23 28 30 30 34 34 36 37 38 39 40
38 35 41 45 43 37 29 32 35 38 35 34 30 28 27 32 32 32 30 34 37 38 38 35 34 30 35 33 30 33 32 30 28 30 26 21 27 37 35 35 35 36 38 38 39
37 32 42 43 32 35 33 35 37 36 38 36 31 30 31 34 32 33 32 35 38 37 34 36 31 26 28 30 32 32 31 26 24 21 24 23 26 39 38 38 37 35 34 36 38
35 35 41 42 25 29 34 36 36 33 33 32 30 31 33 33 30 32 33 35 36 34 32 31 28 24 24 23 29 29 28 28 27 25 22 19 24 33 36 36 36 33 31 32 32
36 28 34 38 36 31 31 29 31 35 32 31 31 31 30 31 32 31 32 35 34 34 38 34 28 25 20 25 29 27 28 29 24 21 23 24 26 29 29 30 32 30 30 31 31
34 28 32 30 32 34 33 32 31 32 33 34 32 32 29 29 28 28 30 31 33 36 33 29 25 24 26 28 27 26 27 29 26 25 22 27 28 30 30 29 29 29 30 30 30
33 33 34 32 33 29 31 32 32 32 33 32 32 32 31 29 29 28 29 29 29 29 30 31 23 27 22 25 23 21 25 28 29 27 28 27 27 32 32 30 29 29 30 30 30
39 38 34 33 29 29 32 33 33 32 34 34 33 31 31 32 32 32 32 29 30 29 27 29 27 23 18 24 24 16 22 26 28 29 27 25 28 32 32 31 29 29 30 30 31

GFSSW_sfc_dewp_093.txt.gz
Dewpoint
51 52 52 52 49 50 51 50 51 54 57 59 60 58 55 51 51 50 44 45 47 49 47 47 46 43 42 38 38 37 33 30 32 33 32 32 30 30 29 27 28 28 36 48 59
51 52 52 52 50 48 49 49 49 51 52 56 58 58 54 52 49 47 48 51 52 48 47 45 43 41 38 38 37 34 31 31 34 34 31 31 33 31 29 29 29 28 30 32 38
50 51 52 52 52 52 50 48 48 50 50 55 58 57 52 51 41 38 50 52 52 48 49 46 44 42 37 37 36 34 30 32 32 32 34 34 32 32 30 29 28 28 30 32 34
49 50 51 52 51 50 50 48 49 48 51 54 57 54 54 47 31 45 50 54 51 50 44 38 37 34 32 31 34 33 35 34 35 35 34 32 31 28 29 29 30 31 32 32 34
48 50 50 51 51 50 49 49 50 50 50 52 56 55 48 42 37 46 53 52 47 45 38 33 33 33 30 30 30 29 31 33 33 33 32 31 29 28 27 28 29 30 31 32 35
47 49 50 50 50 49 49 49 50 50 51 52 57 53 44 35 42 46 47 45 43 39 35 33 32 34 31 30 29 31 33 32 33 32 31 30 28 29 27 28 27 28 28 31 34
47 48 49 49 49 49 49 49 50 51 51 52 57 49 43 37 49 50 47 45 43 40 37 38 36 32 33 29 32 32 28 30 30 29 30 31 27 28 27 27 27 27 26 26 35
48 49 49 49 49 48 49 50 53 54 53 53 54 47 40 43 49 47 43 42 41 39 39 39 37 35 33 33 31 29 28 25 27 31 31 26 20 25 28 28 29 29 30 30 33
48 49 49 49 48 48 50 50 55 56 54 55 48 42 37 45 43 36 37 35 35 37 37 37 36 32 33 28 22 26 21 25 27 30 30 31 28 31 32 32 31 32 34 30 32
47 47 48 48 47 48 48 48 52 51 49 48 45 39 38 35 36 34 34 36 34 36 37 36 35 30 30 25 10 15 18 25 26 28 29 28 26 28 31 33 34 36 35 30 33
48 48 47 47 46 47 44 44 41 42 43 39 38 40 36 36 36 37 39 39 37 34 29 35 27 23 27 28 25 23 23 25 27 29 29 29 30 30 32 35 36 36 34 35 39
47 47 46 46 46 48 45 38 41 43 38 43 40 38 33 35 34 39 40 35 34 30 31 30 25 29 30 30 30 29 28 26 29 31 33 33 32 32 32 33 36 35 36 39 43
46 46 46 45 47 45 43 41 49 48 37 38 38 36 35 35 35 37 39 38 33 31 30 26 26 32 31 30 30 29 29 27 27 32 35 34 30 30 34 37 41 43 45 46 46
47 46 46 45 43 44 42 47 49 47 32 33 35 34 34 39 37 40 40 37 34 31 31 30 31 31 30 31 31 29 30 31 32 34 24 31 17 25 33 35 37 41 44 46 48
47 46 47 43 41 41 45 48 48 45 18 35 37 40 36 38 39 39 41 36 32 32 34 25 31 31 32 32 33 31 35 35 35 34 30 29 24 25 32 32 36 41 43 44 48
47 47 46 43 43 44 47 47 45 25 19 33 35 34 35 37 39 40 38 39 38 34 34 32 35 35 34 35 35 35 35 35 36 34 25 24 22 20 31 33 36 40 42 44 45
46 48 45 45 40 45 44 40 22 16 32 32 33 33 34 34 35 35 35 31 30 29 25 31 32 35 37 35 37 36 33 22 22 24 21 32 26 27 34 36 39 41 41 42 43
47 46 46 45 44 42 39 29 20 29 29 33 31 32 30 33 33 34 32 30 33 34 32 30 19 36 38 36 35 35 35 28 21 21 22 33 28 30 36 38 41 41 41 41 41
45 41 41 44 45 41 31 25 23 29 31 31 33 29 29 33 31 30 32 32 34 34 32 31 29 35 39 38 38 37 34 37 32 30 23 28 33 36 38 37 38 38 38 39 40
38 38 38 44 44 37 29 29 30 35 34 34 27 28 26 30 28 28 30 33 35 37 37 35 30 34 36 39 39 38 39 32 33 25 22 27 30 31 34 34 35 36 37 38 40
37 32 38 43 41 36 30 33 35 38 37 33 30 27 29 30 31 30 29 33 36 38 37 36 34 28 34 34 31 35 34 35 31 32 26 22 26 37 35 35 35 37 37 38 39
37 28 39 42 31 35 33 36 37 36 37 36 32 30 30 33 32 33 30 33 37 38 34 36 31 27 28 30 32 31 30 28 24 22 24 23 27 38 38 37 37 37 38 39 39
33 33 39 39 26 31 33 35 36 34 33 32 30 31 34 33 29 32 33 35 38 35 32 32 28 23 20 22 28 29 28 28 27 25 22 20 23 35 37 37 36 35 36 37 36
33 28 34 36 33 30 30 31 31 34 32 32 32 31 31 31 32 30 31 34 34 33 38 33 27 25 19 25 28 26 27 28 24 20 23 23 25 29 30 35 34 32 30 31 31
33 29 31 29 32 33 31 32 31 31 33 33 31 32 29 28 27 27 29 29 32 34 34 29 24 23 25 27 27 24 26 28 26 25 20 24 25 29 30 30 31 30 30 30 30
33 32 33 31 32 29 32 31 31 32 32 31 31 32 31 29 29 28 29 29 28 30 30 30 22 26 21 25 25 23 22 27 28 27 27 27 26 31 30 29 29 29 30 30 30
37 37 34 31 29 29 31 32 32 32 33 33 33 31 29 31 32 32 32 31 29 28 28 28 26 23 17 23 23 15 20 26 28 29 27 24 26 32 30 30 29 29 30 30 30

GFSSW_sfc_dewp_096.txt.gz
Dewpoint
49 50 52 52 52 51 49 49 50 49 52 55 56 59 58 54 52 50 43 42 47 49 50 46 44 42 41 38 37 38 31 28 29 33 31 32 30 32 31 28 29 28 34 35 33
50 49 50 51 52 52 51 50 49 48 50 51 54 57 57 53 49 46 47 51 51 49 45 43 42 40 37 37 36 34 28 27 34 34 32 31 33 32 31 30 30 29 30 31 34
51 50 50 51 51 52 51 51 48 49 48 50 53 57 55 50 38 35 50 53 52 48 48 43 43 40 36 37 36 33 29 32 32 33 34 34 32 32 30 29 29 28 29 31 34
50 49 49 50 51 51 52 51 49 50 50 49 52 57 55 46 34 44 51 54 52 48 41 38 37 34 33 31 33 31 34 34 35 34 32 30 32 28 29 29 30 30 31 32 34
48 48 48 49 50 50 51 50 49 49 49 50 53 56 46 41 36 44 54 53 47 41 37 35 34 33 29 29 30 28 31 32 33 33 32 32 30 29 28 29 29 29 30 32 33
48 48 47 49 50 49 51 49 49 49 49 50 53 55 44 39 44 47 46 43 41 38 35 33 31 33 30 30 28 31 32 32 31 30 30 28 26 28 26 28 26 27 27 28 31
48 48 48 48 49 49 49 49 49 50 51 50 53 49 43 40 49 46 45 42 41 39 36 37 34 32 32 28 32 31 26 29 28 28 28 28 22 28 28 28 27 28 28 29 30
48 47 48 48 49 48 48 49 50 52 51 51 53 48 42 48 48 45 44 41 39 40 39 38 37 34 32 32 29 28 26 22 23 30 30 27 21 25 30 29 28 30 31 32 34
47 47 47 48 48 47 49 49 49 54 54 51 49 44 41 50 47 38 38 37 36 38 39 37 36 33 31 26 19 24 16 24 25 30 30 29 26 30 31 29 28 29 31 34 37
47 47 48 47 47 48 46 48 47 52 51 48 47 39 42 43 39 34 36 37 35 37 37 36 34 30 28 23 9 14 17 23 24 27 28 27 26 28 29 31 31 31 34 36 37
47 47 47 46 48 45 43 41 39 41 44 40 41 38 38 44 37 38 40 38 36 34 29 34 27 21 24 27 22 21 22 23 26 28 29 28 29 30 32 33 35 35 34 36 36
48 47 46 46 48 45 44 36 37 43 36 42 39 38 37 38 33 38 39 35 33 29 32 28 25 28 29 29 28 27 27 26 27 30 31 32 32 34 33 33 35 40 42 43 45
47 47 47 47 48 45 42 40 46 47 35 38 39 39 39 40 33 36 38 37 31 29 28 24 25 31 30 28 28 28 27 27 28 30 33 33 28 26 34 37 39 42 45 46 48
46 47 46 46 43 44 42 47 49 48 30 33 37 37 35 38 36 40 40 36 33 29 30 29 31 30 30 31 30 27 29 30 31 33 27 30 21 24 31 34 36 41 43 45 48
47 48 47 44 42 41 45 48 48 45 17 34 36 39 39 38 37 39 41 36 32 33 31 23 29 31 31 30 32 29 33 32 32 32 33 29 26 23 31 31 33 38 41 43 46
47 46 44 42 43 45 48 47 44 26 19 32 35 33 35 38 38 39 38 38 38 33 32 31 34 34 32 34 34 34 34 34 34 34 25 25 26 18 31 33 36 39 41 42 43
48 48 46 46 42 45 44 38 24 19 32 32 31 34 34 34 34 34 33 30 29 26 20 29 32 35 35 35 37 36 34 25 17 20 18 31 27 23 33 35 38 40 40 41 42
47 45 45 45 44 42 37 27 19 30 29 33 31 33 31 33 32 33 31 28 32 32 30 26 19 34 38 36 36 36 35 26 14 22 24 34 28 29 36 39 40 41 40 40 41
44 40 40 42 44 40 32 25 21 27 31 30 32 28 28 32 32 29 30 31 34 34 31 30 29 34 38 38 38 37 33 37 32 33 27 26 33 36 38 37 37 37 37 39 40
37 36 37 42 43 36 31 30 31 35 34 34 27 28 26 29 27 28 28 32 35 35 37 35 30 32 36 39 39 38 38 33 32 24 23 27 28 31 34 35 35 35 36 39 40
37 33 37 42 40 36 30 32 35 37 36 32 28 27 27 28 29 29 28 32 35 38 37 36 34 28 34 34 31 35 32 34 34 32 26 22 27 38 36 36 35 36 38 39 39
34 29 39 41 32 34 33 36 38 35 36 35 31 30 30 31 30 32 29 32 36 38 35 35 32 27 27 30 31 32 30 29 24 21 24 23 26 38 38 37 37 37 39 39 40
32 32 39 38 27 29 31 35 36 33 32 32 30 31 34 32 29 31 32 34 37 36 33 34 27 21 18 21 28 28 28 28 27 24 22 19 22 35 37 36 37 37 37 38 37
32 29 34 36 32 29 30 31 31 34 33 32 32 31 32 31 31 29 30 34 36 35 38 33 27 25 19 23 27 25 25 28 25 19 22 22 24 30 32 35 35 33 31 32 31
33 29 31 28 31 30 30 32 31 31 33 33 30 31 30 27 27 27 29 29 32 33 33 29 23 23 25 26 26 25 23 27 25 24 18 23 24 28 31 32 33 32 30 30 31
33 32 32 30 30 29 32 31 31 32 32 31 30 31 30 28 28 26 29 27 27 29 29 30 23 26 22 24 25 24 24 26 28 27 26 26 25 30 29 28 29 29 30 30 30
36 36 32 31 29 29 31 32 32 33 33 33 33 30 29 31 32 32 32 32 30 27 27 27 25 22 19 21 22 16 19 26 27 28 26 24 25 30 30 30 29 29 29 30 30

GFSSW_sfc_dewp_099.txt.gz
Dewpoint
52 51 49 49 51 52 53 50 49 49 49 50 52 54 58 56 53 50 43 41 48 50 49 46 43 41 41 39 38 39 29 25 27 32 29 32 31 32 33 31 30 30 30 33 32
51 51 51 50 50 51 52 52 50 49 48 48 50 53 58 55 48 45 46 51 53 50 44 42 40 39 38 37 37 34 23 23 32 34 32 32 33 33 31 29 29 29 30 32 34
50 50 51 49 49 50 51 51 52 49 50 49 49 52 57 52 39 36 50 53 52 49 47 44 43 40 37 36 36 33 27 32 32 33 32 33 32 33 31 29 30 28 30 31 33
48 49 49 48 49 50 51 51 51 50 48 48 51 54 55 47 38 44 53 55 52 48 40 39 38 35 34 31 33 31 34 33 34 33 31 29 31 29 30 28 30 31 31 31 32
48 48 48 47 49 49 49 50 52 51 48 46 51 55 48 40 38 42 55 53 44 40 37 37 35 33 31 29 30 29 30 32 32 32 32 31 30 28 28 29 29 30 30 30 33
48 47 47 47 48 49 48 49 52 51 49 47 48 54 47 41 48 48 44 41 39 37 35 34 32 34 31 30 27 31 31 31 30 30 29 27 27 27 26 27 28 27 28 28 30
48 48 48 48 48 48 49 48 49 50 50 49 49 51 46 42 50 47 42 41 40 38 36 37 34 33 32 30 31 30 26 28 26 27 29 27 21 27 27 27 27 28 29 30 32
49 47 46 48 46 47 48 48 49 51 50 50 51 49 44 51 50 43 39 38 39 39 38 39 37 35 33 33 27 28 25 20 21 29 29 28 22 21 26 31 31 30 30 31 34
49 46 46 47 47 48 46 47 48 51 52 51 50 47 42 52 43 39 39 37 38 40 40 37 37 33 32 27 22 23 20 22 24 28 29 29 26 29 31 30 29 29 30 33 35
50 48 47 48 49 45 45 47 50 51 49 48 48 42 45 44 39 36 38 38 37 38 37 36 34 31 29 24 16 20 21 23 24 26 28 29 28 29 31 32 31 31 33 35 37
48 48 47 49 46 44 42 42 40 41 42 40 41 40 43 45 41 38 39 37 36 34 31 35 28 22 23 26 20 22 25 25 26 28 28 29 29 31 33 35 35 37 41 43 45
48 47 47 49 46 44 42 37 37 40 34 42 43 43 42 39 35 37 39 35 33 30 32 28 25 27 28 29 28 28 26 26 28 29 30 31 31 32 34 37 41 40 42 44 47
48 47 48 48 46 43 41 41 46 47 34 36 41 40 41 37 33 37 38 36 31 30 28 24 28 31 30 30 28 28 27 26 27 30 33 32 29 27 33 37 37 41 42 45 47
47 46 46 48 43 44 43 47 48 47 30 31 36 38 39 39 35 40 40 36 34 28 29 29 31 30 30 29 30 26 29 29 30 31 28 33 26 26 30 33 34 39 40 42 46
47 46 47 46 43 42 44 48 48 45 17 34 37 39 40 36 36 38 41 36 32 32 28 25 29 32 31 30 31 29 30 31 32 33 32 32 28 26 31 30 34 39 41 41 44
48 48 45 43 43 45 47 47 44 26 17 30 37 37 36 37 38 38 37 38 37 33 33 30 34 34 31 33 33 33 33 34 35 34 27 25 26 24 30 34 35 39 41 41 42
47 47 45 45 40 45 43 37 26 19 33 30 34 35 34 33 34 34 33 31 28 20 19 28 32 35 35 34 36 35 34 23 18 24 21 28 27 26 33 34 37 40 40 41 41
45 44 45 44 44 43 37 29 21 29 29 33 33 32 31 32 32 33 32 29 31 32 29 24 20 32 36 35 36 36 35 26 17 20 24 32 26 31 36 39 40 39 39 40 41
42 39 38 40 43 39 32 25 24 27 30 30 31 27 30 32 31 30 30 31 33 33 29 27 23 35 38 37 37 36 32 36 31 30 28 28 33 37 38 37 37 36 38 39 40
37 35 36 40 41 36 32 30 31 34 33 32 26 27 26 29 27 29 28 31 36 34 36 35 31 32 37 38 38 36 37 32 33 23 22 26 29 31 34 35 35 35 36 38 39
35 34 38 41 40 36 29 30 34 37 36 31 28 27 27 27 28 28 29 31 35 37 37 36 34 28 34 35 32 35 32 33 34 32 25 23 26 38 35 36 35 36 38 38 39
34 31 40 40 33 31 32 34 37 34 36 34 31 30 29 30 29 31 30 32 36 38 34 35 32 28 27 30 31 32 29 28 25 22 25 24 25 37 38 38 37 38 39 39 40
32 31 39 39 28 24 30 34 35 33 32 31 30 32 33 32 29 32 33 34 37 37 33 34 28 22 18 21 28 28 28 28 27 25 22 21 22 35 37 37 38 38 38 38 37
33 29 35 35 31 29 29 30 30 33 33 32 31 31 31 29 31 29 30 34 37 37 39 34 27 25 19 20 27 27 25 27 26 21 22 22 27 31 35 36 36 36 35 35 33
34 29 31 28 30 29 29 31 30 31 33 32 30 31 30 26 26 26 29 28 32 33 34 30 25 24 26 26 27 27 25 24 24 23 20 21 27 30 32 35 35 34 30 30 30
33 32 31 29 28 28 32 30 31 31 32 31 30 31 30 28 28 26 29 27 27 28 29 29 25 27 23 25 25 24 25 23 27 28 27 27 26 29 32 31 32 32 30 30 31
35 35 31 31 29 28 29 30 31 32 32 33 32 29 28 30 32 32 32 31 30 27 26 27 26 23 19 20 21 18 20 23 27 28 26 25 25 31 30 30 30 30 30 30 31

GFSSW_sfc_dewp_102.txt.gz
Dewpoint
51 51 52 52 49 50 51 53 50 49 48 49 51 53 56 57 54 50 40 38 46 51 48 42 41 42 42 40 40 39 19 17 20 24 25 32 29 31 32 29 27 28 29 30 29
51 51 51 52 52 50 50 51 52 50 47 49 49 51 58 56 48 43 44 49 53 52 40 35 35 39 37 38 39 29 20 16 28 31 29 31 31 30 26 23 23 23 24 25 29
48 50 49 50 50 50 50 50 51 51 47 50 49 52 56 48 42 37 48 53 52 47 43 40 38 34 33 36 34 33 24 28 31 33 33 30 28 29 26 23 23 22 20 23 28
48 48 48 47 47 49 50 50 51 50 50 47 51 53 54 49 40 43 53 54 52 45 41 38 34 30 28 29 34 26 31 31 33 33 31 28 26 24 23 23 21 22 23 25 28
48 48 47 47 46 48 49 49 51 52 50 46 50 54 48 43 43 44 55 52 43 40 39 36 31 32 28 29 31 27 31 31 31 31 29 27 25 22 21 21 22 23 25 26 28
49 47 46 45 46 47 48 49 50 51 52 48 51 53 47 41 48 50 43 40 38 38 36 35 33 32 29 28 25 29 29 27 27 26 25 24 22 25 17 22 22 27 27 27 29
50 48 48 47 47 47 48 48 47 49 50 50 50 52 47 44 48 44 41 38 37 37 35 34 33 28 29 29 30 29 23 23 24 25 26 28 23 24 21 24 28 29 30 31 31
52 50 46 47 47 47 48 48 48 49 50 48 51 51 44 52 48 39 37 38 38 38 38 37 34 33 30 31 25 24 23 19 21 27 30 29 20 21 22 30 31 31 31 32 34
51 49 46 46 47 48 46 46 47 50 50 50 49 48 43 53 41 37 36 36 38 38 37 35 35 32 30 27 28 22 25 20 22 28 28 28 26 27 30 32 32 33 33 34 36
49 48 48 48 48 45 46 50 50 51 48 42 47 43 47 43 37 37 38 38 36 35 35 34 34 29 28 25 27 22 22 24 24 26 28 29 29 29 32 33 36 37 39 41 43
48 48 49 46 45 45 44 45 42 40 42 37 37 42 41 41 37 36 37 35 33 33 30 34 28 26 25 25 25 27 26 27 27 28 30 30 31 31 32 36 38 39 40 41 43
48 48 48 45 45 44 43 40 39 41 35 42 42 42 43 38 35 35 36 31 31 30 31 29 27 26 28 28 28 28 27 29 28 29 30 31 31 32 32 37 38 39 41 43 45
47 48 47 46 46 45 44 43 46 44 35 37 40 40 41 37 32 34 35 33 29 28 25 27 28 30 29 31 29 28 26 27 30 31 32 32 29 29 32 37 36 38 41 41 44
48 48 47 47 44 45 43 48 48 47 33 32 36 38 38 35 33 40 40 34 32 28 29 28 29 29 29 32 29 28 28 29 31 31 29 32 27 29 29 32 34 37 39 41 42
49 46 48 46 44 42 45 48 48 45 21 35 37 42 39 34 32 35 40 35 31 30 31 31 31 31 31 30 31 29 29 30 31 31 32 29 30 27 29 29 32 35 39 40 41
48 47 44 45 45 44 47 47 44 33 21 32 37 35 33 35 35 36 36 38 36 32 32 30 32 33 31 31 31 32 32 34 33 31 28 27 28 27 29 32 34 37 40 41 42
46 47 45 45 40 45 44 40 34 25 33 32 35 33 32 32 33 33 32 30 31 32 32 30 32 34 34 33 35 34 32 29 28 26 27 27 27 27 32 37 39 39 39 40 41
48 44 44 42 44 45 41 35 24 29 31 36 32 32 29 31 32 32 31 30 32 31 31 32 31 32 35 34 33 34 36 30 23 24 26 28 27 32 38 39 38 38 39 39 40
42 44 43 41 44 43 37 30 29 30 31 30 30 28 29 31 30 32 31 32 33 32 31 31 33 33 36 37 37 36 34 36 32 28 28 29 33 37 38 38 37 37 38 38 39
41 41 40 42 44 41 38 31 31 34 32 31 25 27 26 28 28 29 29 32 34 34 35 33 32 32 37 37 37 35 36 31 33 26 23 26 28 32 35 35 36 36 37 37 39
38 41 43 43 45 41 35 35 33 35 35 31 27 27 27 28 29 29 29 32 35 36 36 35 32 30 34 35 32 35 32 32 31 30 26 21 26 37 36 36 36 36 37 38 39
40 41 45 45 41 38 36 35 37 34 36 33 31 31 30 31 30 31 30 32 35 38 34 35 32 30 28 30 31 32 29 26 26 24 26 24 24 36 38 37 38 37 38 39 39
40 40 45 45 38 36 33 34 34 32 32 31 31 33 33 32 29 32 32 34 37 37 33 35 31 28 22 26 29 28 29 27 28 28 26 23 23 35 37 36 38 37 39 38 36
39 40 42 41 37 33 32 32 32 34 33 32 31 32 32 30 32 30 30 34 37 36 38 36 30 27 21 21 27 26 26 27 28 27 22 22 24 31 36 35 36 37 36 35 35
37 37 36 37 33 33 33 32 31 32 33 32 30 31 30 27 27 27 29 29 34 35 35 33 30 28 27 26 27 27 26 25 27 26 23 20 25 29 34 35 35 36 36 32 31
36 36 35 33 31 32 33 32 32 32 32 30 29 30 30 27 28 26 29 27 27 29 31 31 31 28 28 25 27 25 25 25 25 25 27 25 26 28 33 35 35 35 34 31 30
41 38 33 32 31 29 31 31 31 33 33 33 31 30 28 30 32 32 32 32 31 28 27 29 29 28 24 20 20 19 20 22 24 27 26 24 24 30 31 34 35 35 35 32 31

GFSSW_sfc_dewp_105.txt.gz
Dewpoint
53 52 51 51 52 50 50 51 53 49 47 48 51 52 56 58 54 50 42 42 44 51 47 37 39 39 40 41 40 34 22 17 19 18 25 29 26 29 30 27 24 24 24 26 26
48 49 50 51 50 50 50 49 50 50 48 48 49 50 55 56 50 47 47 48 53 51 36 31 35 36 33 35 35 25 21 19 26 27 26 28 27 25 24 21 20 21 21 22 23
48 48 49 48 49 49 49 49 50 51 48 50 50 51 58 53 46 41 48 53 53 49 35 30 34 31 31 33 31 28 24 25 29 30 30 26 24 24 24 22 19 18 19 20 23
48 48 48 47 47 47 48 49 51 50 50 47 51 52 54 50 42 42 53 55 50 41 38 33 31 26 29 29 30 26 28 27 30 31 28 25 24 20 19 19 19 21 21 22 23
48 47 47 47 46 47 48 49 50 51 50 46 50 54 50 46 41 46 54 54 42 39 35 30 26 26 24 26 27 23 28 29 29 28 25 23 22 20 19 20 19 20 22 23 25
49 48 46 45 45 47 48 49 51 51 51 50 51 54 47 43 48 51 51 44 39 38 36 32 28 30 27 27 26 27 27 24 24 23 23 22 20 21 17 20 23 26 27 27 29
49 49 48 47 46 47 48 47 47 49 49 50 49 50 47 43 50 47 43 38 38 37 34 33 30 27 29 27 27 26 22 23 23 23 24 27 25 24 21 20 27 29 29 31 32
52 49 47 47 47 46 48 48 49 47 47 49 50 48 43 52 54 50 39 37 37 36 36 33 31 30 27 28 24 23 22 21 21 26 28 29 18 22 21 28 29 30 32 33 34
51 49 47 47 47 48 46 46 47 48 50 49 47 47 44 51 46 45 36 36 36 36 35 32 32 28 28 27 29 21 30 20 22 27 28 29 24 25 28 31 30 32 35 37 40
49 49 49 49 47 47 49 49 49 49 48 44 47 42 46 41 42 36 37 36 33 35 32 30 31 25 23 24 30 25 24 22 22 26 28 29 28 28 29 31 32 34 37 39 40
49 48 47 46 45 45 47 47 42 40 42 39 38 41 41 45 41 36 36 34 32 28 28 32 30 27 23 22 23 24 22 24 25 27 30 30 30 29 30 31 35 35 36 38 41
48 47 47 47 44 44 43 40 41 41 35 40 43 42 44 43 38 35 33 28 27 28 28 28 27 25 25 26 26 26 25 28 27 28 30 30 30 31 31 33 35 36 37 40 42
49 47 46 47 46 45 43 43 46 43 35 36 40 40 42 40 34 33 33 30 27 25 24 27 26 28 28 29 27 26 25 25 30 31 32 32 29 30 31 35 36 35 38 39 41
47 48 46 46 43 44 43 47 48 48 34 32 36 38 40 37 33 38 38 32 29 25 27 27 29 27 27 31 29 27 27 28 30 31 30 30 28 29 29 30 34 34 36 39 40
48 46 48 44 43 42 44 47 48 45 22 35 37 43 40 36 32 35 39 34 28 27 31 31 29 30 29 31 29 29 30 30 31 30 31 29 30 28 28 27 30 35 38 40 41
48 48 47 45 44 44 47 46 44 33 22 33 38 37 34 32 34 35 34 36 34 31 30 29 32 32 31 31 31 31 32 32 31 30 28 28 28 26 29 31 35 37 39 40 41
50 46 44 43 41 45 45 41 34 27 34 33 34 33 29 29 31 31 30 30 31 32 32 31 31 33 33 32 34 32 33 31 28 29 28 27 26 26 30 37 38 38 38 40 40
48 46 44 41 44 45 42 37 28 30 31 36 30 28 27 29 30 31 30 30 31 30 32 33 31 32 34 34 32 33 34 31 23 25 27 28 27 31 37 39 38 38 39 39 39
43 43 43 43 45 45 37 33 31 30 29 29 28 27 28 29 29 31 30 30 32 32 30 31 33 33 35 35 36 35 34 35 33 28 27 28 32 36 37 37 35 36 38 38 39
40 41 42 43 45 42 37 32 31 31 30 29 24 26 24 27 28 28 29 32 32 33 34 32 32 32 35 37 37 33 35 32 34 25 23 28 29 33 36 38 37 37 37 38 38
42 37 44 45 45 37 37 34 33 34 34 29 26 25 26 27 28 28 28 31 34 34 35 33 31 30 34 34 30 33 30 31 29 28 26 21 28 35 36 38 37 37 38 38 38
43 42 44 46 42 38 38 35 35 34 34 32 31 30 28 30 30 29 29 32 35 36 32 34 31 30 28 32 32 32 29 25 25 25 26 24 25 36 37 37 38 37 38 39 39
36 40 45 44 40 38 34 33 34 33 33 32 32 33 33 31 28 29 31 34 35 35 32 33 31 29 25 27 29 29 28 27 26 28 26 23 22 36 36 36 37 36 37 39 39
39 42 40 39 38 33 32 32 32 35 32 32 31 32 30 28 30 29 29 34 36 36 38 36 30 27 24 23 25 24 25 26 26 28 23 21 19 31 35 34 36 37 37 37 36
39 38 37 38 32 33 33 32 31 31 32 31 29 30 29 24 25 26 28 30 35 37 35 33 29 30 27 25 24 24 25 25 26 27 23 19 21 22 31 34 35 36 36 34 34
36 35 36 32 32 30 32 31 31 31 31 28 27 28 27 25 27 25 27 26 25 30 30 32 30 28 29 24 24 24 24 24 24 24 24 23 23 24 26 34 33 33 34 35 33
41 38 34 32 30 28 28 29 31 33 33 31 31 30 27 29 32 31 32 31 30 27 26 27 29 29 24 21 20 17 17 20 23 23 22 20 21 25 26 31 33 33 34 34 33

GFSSW_sfc_dewp_108.txt.gz
Dewpoint
51 54 54 53 51 52 49 49 51 50 48 48 51 52 55 59 55 51 45 45 47 51 48 38 39 42 46 44 43 39 29 23 23 23 28 29 27 30 30 26 24 23 23 24 24
49 48 48 49 50 50 50 49 50 51 49 49 49 49 54 57 52 50 47 48 53 48 39 34 35 37 36 38 38 32 27 28 28 28 28 28 27 24 24 23 22 21 23 23 25
47 48 48 48 49 49 50 49 49 51 50 51 50 51 54 54 49 46 48 52 53 48 42 33 38 37 35 35 34 32 30 28 29 32 29 26 24 24 24 24 22 19 20 22 25
49 47 47 47 48 48 48 49 49 51 50 48 51 55 56 52 40 43 51 54 51 45 38 33 33 33 33 31 33 29 30 28 32 33 29 26 24 21 20 20 20 20 21 21 23
49 48 48 48 48 48 48 48 51 52 51 47 50 55 51 47 42 45 54 53 43 42 36 31 29 30 29 29 31 27 29 30 30 31 27 24 23 20 19 20 20 21 24 24 27
49 48 48 47 47 48 49 50 51 52 51 48 51 55 47 43 49 50 52 47 38 39 37 34 30 34 28 28 29 30 32 28 28 26 25 24 22 22 19 21 24 28 30 30 31
50 49 48 48 48 48 47 48 49 51 50 49 49 51 45 45 53 47 44 42 40 40 38 35 34 33 30 29 29 29 26 26 26 27 27 29 27 25 22 21 23 29 30 32 33
49 49 49 48 47 47 47 48 48 49 49 50 50 49 44 52 53 47 43 39 38 38 37 35 34 32 31 30 26 26 24 22 25 28 31 30 20 25 20 23 29 30 33 37 40
50 49 49 48 49 48 47 47 48 48 48 48 46 47 43 50 48 48 41 36 37 36 37 31 35 31 30 28 28 22 29 23 25 29 31 30 26 27 28 29 30 31 36 38 41
49 48 48 48 47 48 50 47 48 49 48 44 45 42 44 42 47 44 40 37 35 37 35 35 33 27 25 28 28 26 24 24 21 29 29 29 27 28 30 30 30 35 35 37 41
47 48 47 46 46 48 48 47 42 41 40 40 39 40 40 43 44 36 37 35 34 32 30 35 31 30 24 27 25 25 22 25 26 29 30 30 30 30 31 31 32 36 36 38 41
47 48 48 46 46 45 46 41 42 41 35 41 41 42 45 45 35 34 35 31 31 30 28 31 30 26 26 28 27 28 27 28 30 30 30 30 31 32 32 34 35 35 36 38 41
49 46 47 47 46 46 44 43 47 44 35 37 41 40 43 42 36 35 35 32 30 27 28 30 26 27 27 31 28 27 25 27 30 32 32 31 30 31 32 36 36 36 38 40 41
48 48 47 45 44 44 43 47 48 48 33 32 37 39 41 39 36 37 39 35 32 26 29 28 28 27 28 31 30 29 28 29 31 30 25 31 23 29 32 33 33 35 38 40 41
48 47 46 47 44 43 44 48 48 46 21 35 38 43 42 37 34 34 39 38 28 27 33 30 28 29 30 31 30 30 32 31 32 29 30 29 24 29 29 28 32 37 40 40 40
50 46 47 46 45 44 47 47 45 33 22 33 38 37 33 32 33 35 35 38 36 32 31 31 33 33 33 31 31 31 32 33 32 31 26 28 27 27 30 32 35 38 38 40 40
51 45 45 43 42 46 46 42 32 25 34 33 35 36 29 29 31 31 31 32 32 30 30 32 32 34 34 32 34 33 32 27 25 25 20 29 26 27 34 37 37 37 38 40 40
47 45 44 41 46 46 43 37 25 31 32 37 33 30 28 29 30 31 31 30 32 32 32 30 23 33 34 34 33 34 33 29 17 24 26 28 24 29 37 38 38 38 38 39 39
47 45 45 45 46 46 39 30 31 32 30 28 28 28 29 29 30 31 29 31 32 32 30 31 31 35 35 34 35 35 33 35 29 28 22 26 30 36 38 37 36 36 37 38 39
45 45 44 45 46 44 38 31 31 30 29 29 26 27 25 28 29 29 29 32 33 33 34 32 29 33 35 37 37 35 35 31 32 24 22 26 29 31 35 35 37 36 36 37 39
45 42 46 47 46 40 35 33 32 34 34 30 26 25 26 28 27 27 28 32 34 34 35 33 32 31 35 34 32 32 31 30 29 29 24 22 26 35 36 36 35 35 35 36 38
48 41 48 47 43 39 37 35 35 33 36 34 33 32 30 30 28 29 30 32 36 36 31 34 32 28 30 33 32 32 30 28 24 27 27 24 24 36 36 36 36 36 36 37 39
41 42 49 48 39 38 35 33 34 34 33 33 33 34 33 31 29 30 31 34 37 36 34 33 31 24 24 27 29 29 29 30 26 28 24 22 24 36 36 36 36 36 36 37 38
43 39 45 42 39 35 34 33 33 37 34 33 32 33 30 28 30 29 31 36 36 36 40 37 30 27 24 24 26 25 26 28 26 24 26 24 24 33 35 34 36 36 36 37 38
42 39 38 40 34 34 34 34 32 32 34 33 31 31 29 25 25 27 29 32 36 39 36 33 28 28 29 28 27 25 24 25 25 26 23 21 21 22 31 34 35 36 36 37 37
41 38 37 33 32 33 33 32 32 33 32 29 28 29 27 26 27 26 28 26 26 33 31 32 28 28 24 26 25 24 25 24 24 25 26 26 25 26 25 33 34 36 36 36 35
42 39 36 35 31 29 30 31 32 34 34 33 32 31 28 32 32 32 32 31 30 27 27 28 28 26 23 26 25 19 20 21 24 24 24 23 24 25 25 30 34 33 34 34 35

GFSSW_sfc_dewp_111.txt.gz
Dewpoint
50 50 52 52 54 52 51 51 52 51 49 49 52 52 54 59 56 52 46 46 48 52 49 40 39 42 43 42 39 35 25 22 26 26 28 28 28 28 29 26 25 24 22 24 26
49 47 51 53 54 53 52 51 53 51 50 48 50 49 57 58 52 50 47 48 52 48 44 35 37 39 35 39 35 29 26 27 30 29 27 28 25 24 23 23 23 21 21 22 25
48 49 49 49 50 51 51 50 53 51 51 49 50 51 56 56 46 45 48 49 51 48 47 40 37 37 32 34 31 29 27 29 34 31 29 26 24 23 24 23 22 19 20 21 23
49 49 48 49 49 50 50 50 51 52 51 49 52 56 57 53 35 48 51 53 50 49 46 34 34 30 31 29 31 25 29 30 33 33 29 26 23 21 22 21 22 21 24 23 23
48 49 49 49 50 49 48 48 51 52 51 49 51 55 51 47 44 51 56 52 47 45 40 33 30 28 28 29 27 26 30 30 31 30 28 26 23 22 20 20 21 26 27 26 27
50 49 49 48 49 49 50 51 52 52 50 49 50 53 48 42 51 53 54 49 41 42 38 34 29 32 28 28 28 31 30 27 26 26 26 25 24 25 19 21 24 26 30 31 32
50 50 49 49 49 49 49 50 50 51 50 49 50 51 46 46 53 52 46 42 41 40 36 35 33 30 29 27 29 27 24 27 27 27 27 30 25 25 21 21 21 30 32 37 39
50 49 49 48 48 49 50 49 49 50 51 50 50 49 44 52 53 47 46 39 39 38 36 36 34 31 30 29 25 25 22 20 26 27 31 28 10 26 24 20 27 32 38 39 44
51 50 49 50 49 49 49 49 49 48 50 48 47 47 43 52 47 49 49 38 37 36 34 33 33 28 28 27 25 23 23 22 25 29 31 29 22 25 26 29 29 32 37 38 43
48 48 47 48 48 50 48 48 47 46 45 43 46 42 42 44 48 47 41 39 36 36 34 33 31 26 25 29 17 21 20 23 20 28 29 28 27 28 29 31 29 34 36 41 42
49 49 47 47 49 50 48 44 42 40 42 40 41 40 42 45 48 42 40 37 35 33 26 34 28 24 24 25 24 23 22 24 26 31 29 29 30 30 32 31 33 35 38 39 41
47 48 46 47 47 46 45 41 42 42 36 41 41 43 45 46 39 37 38 32 32 28 28 30 26 26 28 29 27 26 25 27 31 33 30 30 30 32 33 34 35 36 38 40 41
48 47 47 47 47 45 43 44 48 43 35 37 41 40 42 43 36 35 40 34 30 27 28 27 27 29 30 30 28 26 25 29 28 32 33 30 28 30 34 36 35 36 40 41 41
48 47 46 46 43 43 42 46 48 48 29 31 37 40 41 41 36 39 40 37 30 28 30 28 29 28 30 31 30 27 30 30 32 28 22 30 18 29 31 34 36 39 39 40 40
48 47 45 45 42 41 44 48 48 44 13 35 37 45 42 36 36 33 40 38 28 30 30 27 28 28 30 32 30 31 33 32 32 29 26 27 21 26 31 30 34 38 39 38 38
47 47 48 46 44 45 47 45 43 23 19 32 38 38 37 35 34 35 37 38 36 32 32 30 33 33 33 32 31 33 32 32 31 30 19 25 24 25 28 29 35 38 36 39 39
49 47 45 44 41 45 45 40 25 20 34 33 35 35 31 31 31 34 33 32 31 22 26 31 32 34 34 32 34 32 28 19 17 18 17 29 26 26 32 35 36 36 35 37 38
48 47 44 43 45 45 42 33 21 32 33 37 34 31 29 30 31 32 31 29 31 32 28 23 18 33 34 33 31 34 33 20 10 16 18 28 22 25 37 38 38 37 36 39 39
48 43 43 44 45 44 36 28 26 30 32 33 32 29 29 30 31 31 31 31 32 32 26 28 28 35 34 33 35 33 32 35 24 25 19 22 27 34 37 37 36 35 37 37 39
42 42 42 45 45 42 32 28 30 33 31 30 26 27 26 29 29 30 29 32 33 33 34 31 27 34 35 36 36 35 35 30 29 16 20 21 24 27 33 35 36 36 36 38 38
41 38 44 46 43 37 27 28 33 34 35 32 28 26 26 27 28 27 28 32 34 34 35 33 31 31 35 34 32 32 30 30 28 29 22 20 23 35 33 35 35 36 36 37 38
43 33 44 45 35 35 29 35 36 34 35 33 33 32 29 29 27 30 31 33 36 36 33 33 32 26 29 34 34 32 30 29 23 25 27 24 23 36 36 36 36 35 36 37 37
38 38 46 45 30 28 34 34 35 34 33 33 33 34 33 30 28 30 32 35 37 35 33 33 30 20 23 25 29 28 29 30 27 26 22 20 23 36 35 35 36 35 36 37 38
40 31 40 38 37 31 32 32 33 36 33 32 32 33 31 28 29 29 32 35 36 36 40 37 31 26 23 24 27 27 28 30 27 21 22 24 25 32 35 35 35 35 36 36 38
37 32 35 30 30 32 33 32 31 32 33 32 30 29 29 25 26 27 31 32 36 39 35 33 27 26 28 29 29 27 25 26 27 26 24 22 23 23 32 35 35 36 36 36 37
35 35 35 31 31 32 32 30 32 32 32 30 29 29 27 27 28 27 28 27 30 34 33 32 25 27 23 27 27 26 26 26 25 27 26 25 24 26 26 28 34 35 36 36 37
40 37 34 32 30 28 29 30 32 33 33 32 31 30 28 31 32 32 32 32 31 30 29 30 27 23 19 25 25 15 19 23 24 25 25 24 25 26 25 29 33 35 36 36 37

GFSSW_sfc_dewp_114.txt.gz
Dewpoint
52 50 51 53 54 54 54 52 53 51 49 50 53 57 57 60 56 52 47 46 48 50 50 42 40 41 43 40 39 32 25 24 26 27 27 28 28 27 29 25 25 23 22 24 27
49 48 50 52 53 51 52 53 53 51 49 50 50 50 55 59 54 50 48 49 50 48 45 37 38 36 36 37 34 29 28 28 30 29 27 26 24 24 22 23 22 20 21 23 26
49 50 50 51 51 52 53 52 53 51 50 49 50 51 57 55 49 44 52 49 50 49 48 45 39 34 33 32 30 31 28 31 34 30 28 26 24 23 23 22 20 20 19 22 25
49 50 49 50 50 50 51 50 53 52 51 49 53 55 56 52 38 49 57 52 50 49 45 36 36 31 30 28 31 27 30 31 33 32 28 25 24 20 22 20 21 20 23 25 26
49 50 50 50 49 49 49 49 50 52 50 50 52 55 52 44 45 52 58 54 46 44 40 32 28 30 29 27 25 27 29 31 31 28 27 26 23 21 21 21 21 23 29 28 29
49 49 49 49 50 50 50 51 51 52 49 50 50 53 49 40 52 53 52 51 43 41 36 32 30 32 29 27 26 30 30 29 26 26 25 24 23 25 18 20 22 27 29 33 38
50 50 49 49 49 50 51 52 52 51 51 50 51 51 46 47 52 54 48 44 40 40 34 35 33 29 29 27 28 27 23 25 26 27 27 28 21 25 22 22 21 28 36 43 46
49 49 49 49 50 50 50 50 50 50 50 51 51 48 45 51 54 48 49 40 36 36 36 36 33 30 29 28 25 22 22 17 25 27 30 25 5 24 26 21 22 32 39 45 46
50 50 49 49 50 49 50 50 49 49 49 49 46 44 42 51 46 49 50 39 36 35 35 33 31 27 28 26 23 22 18 19 24 28 30 27 16 25 23 28 28 32 38 43 44
48 47 47 50 50 49 48 48 48 46 45 43 45 40 43 44 47 47 49 42 35 33 30 32 31 26 25 23 13 17 21 21 22 27 28 27 27 28 29 29 30 32 38 41 42
48 46 48 49 50 50 46 44 40 40 42 41 41 41 43 45 47 43 42 38 36 30 25 32 26 22 23 25 26 23 24 22 26 30 28 27 28 29 31 32 32 35 39 39 41
47 46 49 49 48 47 44 41 43 42 36 41 42 43 45 45 36 37 41 32 34 26 30 28 24 26 29 28 26 25 25 26 30 32 30 30 30 32 33 33 33 36 38 39 40
47 47 47 47 47 45 43 44 47 43 35 37 42 41 43 43 38 38 40 35 31 28 29 26 26 30 29 29 27 27 26 29 27 32 33 29 24 30 35 35 36 39 40 40 40
48 47 46 47 42 42 41 46 48 47 27 31 37 40 42 43 37 39 40 37 30 29 29 27 28 29 30 29 29 26 31 31 32 27 19 28 15 26 31 34 35 39 38 38 38
47 46 47 44 41 39 43 47 46 42 14 34 37 43 43 37 38 34 39 36 30 31 27 25 27 28 30 30 31 29 33 32 31 28 25 25 20 25 31 31 33 38 38 37 37
47 47 48 44 43 45 47 46 42 21 18 33 39 37 34 35 34 34 36 37 36 32 31 29 31 32 32 32 32 33 32 32 31 26 16 23 23 24 28 29 33 38 37 38 38
46 49 45 45 39 45 44 39 24 20 33 34 34 34 34 33 32 34 32 31 31 21 23 30 31 33 34 32 33 31 25 14 14 20 14 27 25 26 28 34 35 37 36 37 39
48 47 45 44 45 44 40 30 21 31 33 36 35 34 31 33 31 32 30 28 31 30 26 19 17 32 33 32 30 32 27 17 10 16 17 26 22 26 34 36 37 37 37 37 38
47 42 42 43 45 43 34 27 24 30 33 33 33 29 29 31 31 31 30 31 31 32 26 24 25 34 33 34 34 30 25 32 23 22 20 21 24 30 36 36 36 36 36 36 37
42 41 42 44 45 40 31 28 30 33 32 32 27 28 27 29 29 29 30 32 32 33 33 31 25 33 34 36 36 33 34 27 26 16 17 18 22 26 31 33 36 35 35 36 37
41 36 43 45 43 35 25 27 32 34 35 31 30 25 27 27 29 28 28 32 34 33 35 33 29 31 35 33 31 33 30 30 27 25 18 19 19 30 31 32 33 35 36 36 36
40 33 43 44 34 33 28 34 36 33 35 33 33 32 30 30 29 30 30 31 35 35 33 34 31 26 31 33 34 32 31 29 22 21 24 22 22 31 34 35 35 35 36 36 37
38 38 45 43 30 28 33 33 34 34 32 32 33 33 32 30 28 31 32 35 36 35 32 32 29 20 24 26 28 30 31 30 27 25 22 20 20 34 34 34 35 35 35 36 37
37 31 37 37 35 31 31 32 31 35 33 32 31 32 30 27 29 30 31 35 36 36 39 36 30 25 19 21 27 27 28 30 27 21 22 23 23 25 34 34 35 35 35 35 36
34 31 34 28 30 31 32 31 31 30 33 31 29 28 28 25 26 28 32 32 35 39 35 33 27 25 28 28 29 28 26 28 28 28 22 20 24 22 23 28 34 35 35 35 36
35 32 34 30 31 29 31 31 31 32 31 29 28 30 27 26 26 26 27 30 31 33 32 32 24 26 22 26 27 26 26 27 27 28 27 26 25 26 25 28 31 33 35 35 36
38 36 31 29 29 27 28 30 31 33 33 32 31 30 29 30 32 32 32 32 31 31 31 30 27 22 19 23 24 14 20 24 25 26 25 24 26 28 26 26 27 28 34 35 35

GFSSW_sfc_dewp_117.txt.gz
Dewpoint
52 49 48 50 53 53 52 54 54 53 50 50 54 57 59 60 56 52 46 47 48 50 50 44 39 41 43 38 37 31 26 23 25 26 27 28 27 26 27 23 24 22 23 24 27
49 48 50 51 53 53 53 53 54 53 49 51 51 56 57 59 53 49 52 51 50 49 43 38 39 38 36 34 33 29 27 27 30 28 26 25 24 24 22 23 22 19 21 23 25
50 51 50 50 50 50 52 51 53 53 50 50 50 51 56 58 49 45 57 55 51 49 46 44 41 35 33 30 30 30 28 31 32 28 27 25 23 23 21 20 20 18 20 23 27
51 51 51 51 48 51 52 53 53 53 51 50 53 54 58 53 37 51 57 60 51 47 42 36 34 31 29 28 30 27 30 31 33 30 26 23 23 18 22 20 21 20 22 27 27
50 50 50 49 49 49 49 49 50 52 50 51 52 55 52 44 46 54 58 53 45 43 38 32 28 30 27 26 28 28 30 31 30 26 25 23 21 20 20 21 22 21 28 30 35
50 49 49 50 50 51 51 49 51 51 51 50 52 54 47 39 52 54 55 46 41 40 34 31 28 32 29 27 26 30 31 27 25 26 26 22 22 24 17 20 20 25 32 40 44
49 49 49 50 50 51 51 52 52 52 51 51 52 51 46 44 53 53 50 46 40 39 32 34 31 29 28 27 28 27 23 24 25 26 27 28 18 22 20 22 22 32 40 46 47
50 50 50 49 50 50 50 51 51 50 51 51 51 47 45 52 54 50 48 40 36 35 35 35 33 30 28 27 25 20 20 15 24 26 30 19 1 20 25 21 20 33 43 45 46
49 49 48 49 49 50 51 50 50 50 50 48 45 44 43 52 47 49 49 42 40 33 35 32 31 27 28 24 22 20 15 18 23 28 30 25 13 24 23 22 27 29 41 45 44
47 48 49 49 48 50 50 48 48 46 45 43 45 38 43 43 47 47 50 44 35 31 31 32 28 25 26 19 15 15 22 20 21 26 27 26 25 26 28 26 27 30 37 43 43
47 48 49 50 49 49 46 43 39 40 42 41 42 40 42 45 47 45 48 42 34 28 25 32 24 21 25 26 22 21 22 21 26 29 28 27 27 28 29 29 30 31 36 40 41
47 48 49 48 49 48 44 41 42 42 36 41 41 42 44 45 37 42 46 36 30 26 29 26 23 25 29 27 25 24 23 25 30 31 31 30 30 31 32 32 32 34 38 39 40
46 47 48 48 47 44 43 44 47 43 35 37 42 41 43 44 39 38 43 36 31 29 27 24 25 29 28 27 27 27 26 27 24 31 31 29 20 28 34 35 37 37 39 40 40
46 46 47 47 41 42 41 46 47 47 28 32 38 41 41 43 36 39 40 36 31 28 29 27 28 29 29 28 28 25 30 31 31 25 16 28 14 22 30 34 35 39 38 38 39
47 47 48 43 41 38 42 46 47 39 17 34 37 45 43 37 37 35 37 36 31 31 25 25 27 29 29 29 31 28 32 32 30 27 22 24 20 24 30 30 33 37 37 38 38
47 47 48 43 43 44 46 44 38 22 19 33 38 38 37 35 35 35 36 36 36 31 31 29 30 32 31 32 32 33 31 28 30 25 15 21 22 23 26 29 31 36 37 38 38
46 49 45 45 38 45 44 36 23 19 32 31 35 37 34 33 32 33 32 32 29 21 22 29 31 33 34 31 32 30 25 12 9 14 12 25 24 26 27 29 32 35 36 37 38
47 44 44 45 45 43 39 29 23 30 32 35 35 33 31 32 31 32 29 29 32 30 25 19 15 31 33 32 29 30 25 14 0 15 17 25 22 25 31 34 35 36 36 37 37
47 42 42 43 45 41 33 24 23 29 33 34 34 29 29 31 30 30 30 30 31 31 23 24 22 34 33 35 32 29 24 30 21 20 21 19 23 28 34 35 35 35 36 35 36
41 41 41 44 44 38 31 27 30 33 34 33 27 28 27 29 29 29 29 32 31 33 33 29 25 32 34 35 35 32 33 24 24 14 17 17 20 24 28 32 35 35 35 35 36
41 36 42 44 42 35 25 27 32 34 34 31 30 26 28 28 29 28 29 32 34 33 35 32 28 30 33 32 30 32 29 28 26 23 17 17 17 27 29 32 31 34 36 36 36
39 33 43 43 34 31 27 33 36 33 34 33 33 31 29 29 29 30 29 31 35 35 32 32 30 26 29 33 33 32 30 28 22 20 23 21 21 27 34 32 34 33 35 35 36
37 37 44 41 29 27 33 33 33 33 32 32 32 33 31 30 28 30 32 35 36 35 32 31 27 19 22 26 30 30 31 30 26 25 22 19 17 30 33 34 35 34 34 35 36
35 30 35 36 34 31 30 32 30 34 32 31 31 31 29 27 30 30 31 34 37 36 38 34 29 23 16 18 27 28 28 29 27 21 22 23 23 23 26 34 34 34 35 35 35
33 31 33 28 30 30 31 31 30 29 32 30 28 28 27 25 27 28 31 32 35 38 34 31 25 25 27 28 28 27 27 28 28 28 24 20 23 21 22 23 24 32 35 35 35
34 30 32 30 30 28 30 29 29 31 32 29 26 29 29 27 25 25 29 29 29 32 31 32 24 25 22 25 27 27 27 28 28 29 29 29 28 28 28 26 27 30 33 35 35
37 36 28 28 28 26 26 29 30 32 32 31 30 29 29 29 31 30 31 31 30 32 30 29 26 22 19 21 23 14 20 23 25 27 27 25 25 26 25 25 26 26 28 31 33